GEFSCGP_prec_meanprecacc_006.txt.gz
Total_Precipitation_Accumulation
0.00 0.00 0.00 0.00 0.00 0.00 0.00 0.00 0.00 0.00 0.00 0.00 0.00 0.00 0.00 0.00 0.00 0.00 0.00 0.00 0.00 0.00 0.00 0.00 0.00 0.00 0.00 0.00 0.00 0.00 0.00 0.00 0.00 0.00 0.00 0.00 0.00 0.00 0.00 0.00 0.00 0.00 0.00 0.00
0.00 0.00 0.00 0.00 0.00 0.00 0.00 0.00 0.00 0.00 0.00 0.00 0.00 0.00 0.00 0.00 0.00 0.00 0.00 0.00 0.00 0.00 0.00 0.00 0.00 0.00 0.00 0.00 0.00 0.00 0.00 0.00 0.00 0.00 0.00 0.00 0.00 0.00 0.00 0.00 0.00 0.00 0.00 0.00
0.00 0.00 0.00 0.00 0.00 0.00 0.00 0.00 0.00 0.00 0.00 0.00 0.00 0.00 0.00 0.00 0.00 0.00 0.00 0.00 0.00 0.00 0.00 0.00 0.00 0.00 0.00 0.00 0.00 0.00 0.00 0.00 0.00 0.00 0.00 0.00 0.00 0.00 0.00 0.00 0.00 0.00 0.00 0.00
0.00 0.00 0.00 0.00 0.00 0.00 0.00 0.00 0.00 0.00 0.00 0.00 0.00 0.00 0.00 0.00 0.00 0.00 0.00 0.00 0.00 0.00 0.00 0.00 0.00 0.00 0.00 0.00 0.00 0.00 0.00 0.00 0.00 0.00 0.00 0.00 0.00 0.00 0.00 0.00 0.00 0.00 0.00 0.00
0.00 0.00 0.00 0.00 0.00 0.00 0.00 0.00 0.00 0.00 0.00 0.00 0.00 0.00 0.00 0.00 0.00 0.00 0.00 0.00 0.00 0.00 0.00 0.00 0.00 0.00 0.00 0.00 0.00 0.00 0.00 0.00 0.00 0.00 0.00 0.00 0.00 0.00 0.00 0.00 0.00 0.00 0.00 0.00
0.00 0.00 0.00 0.00 0.00 0.00 0.00 0.00 0.00 0.00 0.00 0.00 0.00 0.00 0.00 0.00 0.00 0.00 0.00 0.00 0.00 0.00 0.00 0.00 0.00 0.00 0.00 0.00 0.00 0.00 0.00 0.00 0.00 0.00 0.00 0.00 0.00 0.00 0.00 0.00 0.00 0.00 0.00 0.00
0.00 0.00 0.00 0.00 0.00 0.00 0.00 0.00 0.00 0.00 0.00 0.00 0.00 0.00 0.00 0.00 0.00 0.00 0.00 0.00 0.00 0.00 0.00 0.00 0.00 0.00 0.00 0.00 0.00 0.00 0.00 0.00 0.00 0.00 0.00 0.00 0.00 0.00 0.00 0.00 0.00 0.00 0.00 0.00
0.00 0.00 0.00 0.00 0.00 0.00 0.00 0.00 0.00 0.00 0.00 0.00 0.00 0.00 0.00 0.00 0.00 0.00 0.00 0.00 0.00 0.00 0.00 0.00 0.00 0.00 0.00 0.00 0.00 0.00 0.00 0.00 0.00 0.00 0.00 0.00 0.00 0.00 0.00 0.00 0.00 0.00 0.00 0.00
0.00 0.00 0.00 0.00 0.00 0.00 0.00 0.00 0.00 0.00 0.00 0.00 0.00 0.00 0.00 0.00 0.00 0.00 0.00 0.00 0.00 0.00 0.00 0.00 0.00 0.00 0.00 0.00 0.00 0.00 0.00 0.00 0.00 0.00 0.00 0.00 0.00 0.00 0.00 0.00 0.00 0.00 0.00 0.00
0.00 0.00 0.00 0.00 0.00 0.00 0.00 0.00 0.00 0.00 0.00 0.00 0.00 0.00 0.00 0.00 0.00 0.00 0.00 0.00 0.00 0.00 0.00 0.00 0.00 0.00 0.00 0.00 0.00 0.00 0.00 0.00 0.00 0.00 0.00 0.00 0.00 0.00 0.00 0.00 0.00 0.00 0.00 0.00
0.00 0.00 0.00 0.00 0.00 0.00 0.00 0.00 0.00 0.00 0.00 0.00 0.00 0.00 0.00 0.00 0.00 0.00 0.00 0.00 0.00 0.00 0.00 0.00 0.00 0.00 0.00 0.00 0.00 0.00 0.00 0.00 0.00 0.00 0.00 0.00 0.00 0.00 0.00 0.00 0.00 0.00 0.00 0.00
0.00 0.00 0.00 0.00 0.00 0.00 0.00 0.00 0.00 0.00 0.00 0.00 0.00 0.00 0.00 0.00 0.00 0.00 0.00 0.00 0.00 0.00 0.00 0.00 0.00 0.00 0.00 0.00 0.00 0.00 0.00 0.00 0.00 0.00 0.00 0.00 0.00 0.00 0.00 0.00 0.00 0.00 0.00 0.00
0.00 0.00 0.00 0.00 0.00 0.00 0.00 0.00 0.00 0.00 0.00 0.00 0.00 0.00 0.00 0.00 0.00 0.00 0.00 0.00 0.00 0.00 0.00 0.00 0.00 0.00 0.00 0.00 0.00 0.00 0.00 0.00 0.00 0.00 0.00 0.00 0.00 0.00 0.00 0.00 0.00 0.00 0.00 0.00
0.00 0.00 0.00 0.00 0.00 0.00 0.00 0.00 0.00 0.00 0.00 0.00 0.00 0.00 0.00 0.00 0.00 0.00 0.00 0.00 0.00 0.00 0.00 0.00 0.00 0.00 0.00 0.00 0.00 0.00 0.00 0.00 0.00 0.00 0.00 0.00 0.00 0.00 0.00 0.00 0.00 0.00 0.00 0.00
0.00 0.00 0.00 0.00 0.00 0.00 0.00 0.00 0.00 0.00 0.00 0.00 0.00 0.00 0.00 0.00 0.00 0.00 0.00 0.00 0.00 0.00 0.00 0.00 0.00 0.00 0.00 0.00 0.00 0.00 0.00 0.00 0.00 0.00 0.00 0.00 0.00 0.00 0.00 0.00 0.00 0.00 0.00 0.00
0.00 0.00 0.00 0.00 0.00 0.00 0.00 0.00 0.00 0.00 0.00 0.00 0.00 0.00 0.00 0.00 0.00 0.00 0.00 0.00 0.00 0.00 0.00 0.00 0.00 0.00 0.00 0.00 0.00 0.00 0.00 0.00 0.00 0.00 0.00 0.00 0.00 0.00 0.00 0.00 0.00 0.00 0.00 0.00
0.00 0.00 0.00 0.00 0.00 0.00 0.00 0.00 0.00 0.00 0.00 0.00 0.00 0.00 0.00 0.00 0.00 0.00 0.00 0.00 0.00 0.00 0.00 0.00 0.00 0.00 0.00 0.00 0.00 0.00 0.00 0.00 0.00 0.00 0.00 0.00 0.00 0.00 0.00 0.00 0.00 0.00 0.00 0.00
0.00 0.00 0.00 0.00 0.00 0.00 0.00 0.00 0.00 0.00 0.00 0.00 0.00 0.00 0.00 0.00 0.00 0.00 0.00 0.00 0.00 0.00 0.00 0.00 0.00 0.00 0.00 0.00 0.00 0.00 0.00 0.00 0.00 0.00 0.00 0.00 0.00 0.00 0.00 0.00 0.00 0.00 0.00 0.00
0.00 0.00 0.00 0.00 0.00 0.00 0.00 0.00 0.00 0.00 0.00 0.00 0.00 0.00 0.00 0.00 0.00 0.00 0.00 0.00 0.00 0.00 0.00 0.00 0.00 0.00 0.00 0.00 0.00 0.00 0.00 0.00 0.00 0.00 0.00 0.00 0.00 0.00 0.00 0.00 0.00 0.00 0.00 0.00
0.00 0.00 0.00 0.00 0.00 0.00 0.00 0.00 0.00 0.00 0.00 0.00 0.00 0.00 0.00 0.00 0.00 0.00 0.00 0.00 0.00 0.00 0.00 0.00 0.00 0.00 0.00 0.00 0.00 0.00 0.00 0.00 0.00 0.00 0.00 0.00 0.00 0.00 0.00 0.00 0.00 0.00 0.00 0.00
0.00 0.00 0.00 0.00 0.00 0.00 0.00 0.00 0.00 0.00 0.00 0.00 0.00 0.00 0.00 0.00 0.00 0.00 0.00 0.00 0.00 0.00 0.00 0.00 0.00 0.00 0.00 0.00 0.00 0.00 0.00 0.00 0.00 0.00 0.00 0.00 0.00 0.00 0.00 0.00 0.00 0.00 0.00 0.00
0.00 0.00 0.00 0.00 0.00 0.00 0.00 0.00 0.00 0.00 0.00 0.00 0.00 0.00 0.00 0.00 0.00 0.00 0.00 0.00 0.00 0.00 0.00 0.00 0.00 0.00 0.00 0.00 0.00 0.00 0.00 0.00 0.00 0.00 0.00 0.00 0.00 0.00 0.00 0.00 0.00 0.00 0.00 0.00
0.00 0.00 0.00 0.00 0.00 0.00 0.00 0.00 0.00 0.00 0.00 0.00 0.00 0.00 0.00 0.00 0.00 0.00 0.01 0.01 0.01 0.00 0.00 0.00 0.00 0.00 0.00 0.00 0.00 0.00 0.00 0.00 0.00 0.00 0.00 0.00 0.00 0.00 0.00 0.00 0.00 0.00 0.00 0.00
0.00 0.00 0.00 0.00 0.00 0.00 0.00 0.00 0.00 0.00 0.00 0.00 0.00 0.00 0.00 0.00 0.00 0.01 0.01 0.01 0.00 0.00 0.00 0.00 0.00 0.00 0.00 0.00 0.00 0.00 0.00 0.00 0.00 0.00 0.00 0.00 0.00 0.00 0.00 0.00 0.00 0.00 0.00 0.00
0.00 0.00 0.00 0.00 0.00 0.00 0.00 0.00 0.00 0.00 0.00 0.00 0.00 0.00 0.00 0.01 0.02 0.02 0.02 0.01 0.00 0.00 0.00 0.00 0.00 0.00 0.00 0.00 0.00 0.00 0.00 0.00 0.00 0.00 0.00 0.00 0.00 0.00 0.00 0.00 0.00 0.00 0.00 0.00
0.00 0.00 0.00 0.00 0.00 0.00 0.00 0.00 0.00 0.00 0.00 0.00 0.00 0.00 0.01 0.02 0.03 0.01 0.00 0.00 0.00 0.00 0.00 0.00 0.00 0.00 0.00 0.00 0.00 0.00 0.00 0.00 0.00 0.00 0.00 0.00 0.00 0.00 0.00 0.00 0.00 0.00 0.00 0.00

GEFSCGP_prec_meanprecacc_012.txt.gz
Total_Precipitation_Accumulation
0.09 0.06 0.03 0.00 0.00 0.00 0.00 0.00 0.00 0.00 0.00 0.00 0.00 0.00 0.00 0.00 0.00 0.00 0.00 0.00 0.00 0.00 0.00 0.00 0.00 0.00 0.00 0.00 0.00 0.00 0.00 0.00 0.00 0.00 0.00 0.00 0.00 0.00 0.00 0.00 0.00 0.00 0.00 0.00
0.08 0.04 0.01 0.00 0.00 0.00 0.00 0.00 0.00 0.00 0.00 0.00 0.00 0.00 0.00 0.00 0.00 0.00 0.00 0.00 0.00 0.00 0.00 0.00 0.00 0.00 0.00 0.00 0.00 0.00 0.00 0.00 0.00 0.00 0.00 0.00 0.00 0.00 0.00 0.00 0.00 0.00 0.00 0.00
0.05 0.02 0.00 0.00 0.00 0.00 0.00 0.00 0.00 0.00 0.00 0.00 0.00 0.00 0.00 0.00 0.00 0.00 0.00 0.00 0.00 0.00 0.00 0.00 0.00 0.00 0.00 0.00 0.00 0.00 0.00 0.00 0.00 0.00 0.00 0.00 0.00 0.00 0.00 0.00 0.00 0.00 0.00 0.00
0.02 0.00 0.00 0.00 0.00 0.00 0.00 0.00 0.00 0.00 0.00 0.00 0.00 0.00 0.00 0.00 0.00 0.00 0.00 0.00 0.00 0.00 0.00 0.00 0.00 0.00 0.00 0.00 0.00 0.00 0.00 0.00 0.00 0.00 0.00 0.00 0.00 0.00 0.00 0.00 0.00 0.00 0.00 0.00
0.02 0.00 0.00 0.00 0.00 0.00 0.00 0.00 0.00 0.00 0.00 0.00 0.00 0.00 0.00 0.00 0.00 0.00 0.00 0.00 0.00 0.00 0.00 0.00 0.00 0.00 0.00 0.00 0.00 0.00 0.00 0.00 0.00 0.00 0.00 0.00 0.00 0.00 0.00 0.00 0.00 0.00 0.00 0.00
0.00 0.00 0.00 0.00 0.00 0.00 0.00 0.00 0.00 0.00 0.00 0.00 0.00 0.00 0.00 0.00 0.00 0.00 0.00 0.00 0.00 0.00 0.00 0.00 0.00 0.00 0.00 0.00 0.00 0.00 0.00 0.00 0.00 0.00 0.00 0.00 0.00 0.00 0.00 0.00 0.00 0.00 0.00 0.00
0.00 0.00 0.00 0.00 0.00 0.00 0.00 0.00 0.00 0.00 0.00 0.00 0.00 0.00 0.00 0.00 0.00 0.00 0.00 0.00 0.00 0.00 0.00 0.00 0.00 0.00 0.00 0.00 0.00 0.00 0.00 0.00 0.00 0.00 0.00 0.00 0.00 0.00 0.00 0.00 0.00 0.00 0.00 0.00
0.00 0.00 0.00 0.00 0.00 0.00 0.00 0.00 0.00 0.00 0.00 0.00 0.00 0.00 0.00 0.00 0.00 0.00 0.00 0.00 0.00 0.00 0.00 0.00 0.00 0.00 0.00 0.00 0.00 0.00 0.00 0.00 0.00 0.00 0.00 0.00 0.00 0.00 0.00 0.00 0.00 0.00 0.00 0.00
0.00 0.00 0.00 0.00 0.00 0.00 0.00 0.00 0.00 0.00 0.00 0.00 0.00 0.00 0.00 0.00 0.00 0.00 0.00 0.00 0.00 0.00 0.00 0.00 0.00 0.00 0.00 0.00 0.00 0.00 0.00 0.00 0.00 0.00 0.00 0.00 0.00 0.00 0.00 0.00 0.00 0.00 0.00 0.00
0.00 0.00 0.00 0.00 0.00 0.00 0.00 0.00 0.00 0.00 0.00 0.00 0.00 0.00 0.00 0.00 0.00 0.00 0.00 0.00 0.00 0.00 0.00 0.00 0.00 0.00 0.00 0.00 0.00 0.00 0.00 0.00 0.00 0.00 0.00 0.00 0.00 0.00 0.00 0.00 0.00 0.00 0.00 0.00
0.00 0.00 0.00 0.00 0.00 0.00 0.00 0.00 0.00 0.00 0.00 0.00 0.00 0.00 0.00 0.00 0.00 0.00 0.00 0.00 0.00 0.00 0.00 0.00 0.00 0.00 0.00 0.00 0.00 0.00 0.00 0.00 0.00 0.00 0.00 0.00 0.00 0.00 0.00 0.00 0.00 0.00 0.00 0.00
0.00 0.00 0.00 0.00 0.00 0.00 0.00 0.00 0.00 0.00 0.00 0.00 0.00 0.00 0.00 0.00 0.00 0.00 0.00 0.00 0.00 0.00 0.00 0.00 0.00 0.00 0.00 0.00 0.00 0.00 0.00 0.00 0.00 0.00 0.00 0.00 0.00 0.00 0.00 0.00 0.00 0.00 0.00 0.00
0.00 0.00 0.00 0.00 0.00 0.00 0.00 0.00 0.00 0.00 0.00 0.00 0.00 0.00 0.00 0.00 0.00 0.00 0.00 0.00 0.00 0.00 0.00 0.00 0.00 0.00 0.00 0.00 0.00 0.00 0.00 0.00 0.00 0.00 0.00 0.00 0.00 0.00 0.00 0.00 0.00 0.00 0.00 0.00
0.00 0.00 0.00 0.00 0.00 0.00 0.00 0.00 0.00 0.00 0.00 0.00 0.00 0.00 0.00 0.00 0.00 0.00 0.00 0.00 0.00 0.00 0.00 0.00 0.00 0.00 0.00 0.00 0.00 0.00 0.00 0.00 0.00 0.00 0.00 0.00 0.00 0.00 0.00 0.00 0.00 0.00 0.00 0.00
0.00 0.00 0.00 0.00 0.00 0.00 0.00 0.00 0.00 0.00 0.00 0.00 0.00 0.00 0.00 0.00 0.00 0.00 0.00 0.00 0.00 0.00 0.00 0.00 0.00 0.00 0.00 0.00 0.00 0.00 0.00 0.00 0.00 0.00 0.00 0.00 0.00 0.00 0.00 0.00 0.00 0.00 0.00 0.00
0.00 0.00 0.00 0.00 0.00 0.00 0.00 0.00 0.00 0.00 0.00 0.00 0.00 0.00 0.00 0.00 0.00 0.00 0.00 0.00 0.00 0.00 0.00 0.00 0.00 0.00 0.00 0.00 0.00 0.00 0.00 0.00 0.00 0.00 0.00 0.00 0.00 0.00 0.00 0.00 0.00 0.00 0.00 0.00
0.00 0.00 0.00 0.00 0.00 0.00 0.00 0.00 0.00 0.00 0.00 0.00 0.00 0.00 0.00 0.00 0.00 0.00 0.00 0.00 0.00 0.00 0.00 0.00 0.00 0.00 0.00 0.00 0.00 0.00 0.00 0.00 0.00 0.00 0.00 0.00 0.00 0.00 0.00 0.00 0.00 0.00 0.00 0.00
0.00 0.00 0.00 0.00 0.00 0.00 0.00 0.00 0.00 0.00 0.00 0.00 0.00 0.00 0.00 0.00 0.00 0.00 0.00 0.00 0.00 0.00 0.00 0.00 0.00 0.00 0.00 0.00 0.00 0.00 0.00 0.00 0.00 0.00 0.00 0.00 0.00 0.00 0.00 0.00 0.00 0.00 0.00 0.00
0.00 0.00 0.00 0.00 0.00 0.00 0.00 0.00 0.00 0.00 0.00 0.00 0.00 0.00 0.00 0.00 0.00 0.00 0.00 0.00 0.00 0.00 0.00 0.00 0.00 0.00 0.00 0.00 0.00 0.00 0.00 0.00 0.00 0.00 0.00 0.00 0.00 0.00 0.00 0.00 0.00 0.00 0.00 0.00
0.00 0.00 0.00 0.00 0.00 0.00 0.00 0.00 0.00 0.00 0.00 0.00 0.00 0.00 0.00 0.00 0.00 0.00 0.00 0.00 0.00 0.00 0.00 0.00 0.00 0.00 0.00 0.00 0.00 0.00 0.00 0.00 0.00 0.00 0.00 0.00 0.00 0.00 0.00 0.00 0.00 0.00 0.00 0.00
0.00 0.00 0.00 0.00 0.00 0.00 0.00 0.00 0.00 0.00 0.00 0.00 0.00 0.00 0.00 0.00 0.00 0.00 0.00 0.00 0.00 0.00 0.00 0.00 0.00 0.00 0.00 0.00 0.00 0.00 0.00 0.00 0.00 0.00 0.00 0.00 0.00 0.00 0.00 0.00 0.00 0.00 0.00 0.00
0.00 0.00 0.00 0.00 0.00 0.00 0.00 0.00 0.00 0.00 0.00 0.00 0.00 0.00 0.00 0.00 0.00 0.00 0.00 0.00 0.00 0.00 0.00 0.00 0.00 0.00 0.00 0.00 0.00 0.00 0.00 0.00 0.00 0.00 0.00 0.00 0.00 0.00 0.00 0.00 0.00 0.00 0.00 0.00
0.00 0.00 0.00 0.00 0.00 0.00 0.00 0.00 0.00 0.00 0.00 0.00 0.00 0.00 0.00 0.00 0.00 0.00 0.01 0.01 0.01 0.01 0.00 0.00 0.00 0.00 0.00 0.00 0.00 0.00 0.00 0.00 0.00 0.00 0.00 0.00 0.00 0.00 0.00 0.00 0.00 0.00 0.00 0.00
0.00 0.00 0.00 0.00 0.00 0.00 0.00 0.00 0.00 0.00 0.00 0.00 0.00 0.00 0.00 0.00 0.00 0.01 0.01 0.01 0.01 0.00 0.00 0.00 0.00 0.00 0.00 0.00 0.00 0.00 0.00 0.00 0.00 0.00 0.00 0.00 0.00 0.00 0.00 0.00 0.00 0.00 0.00 0.00
0.00 0.00 0.00 0.00 0.00 0.00 0.00 0.00 0.00 0.00 0.00 0.00 0.00 0.00 0.00 0.01 0.02 0.02 0.02 0.01 0.00 0.00 0.00 0.00 0.00 0.00 0.00 0.00 0.00 0.00 0.00 0.00 0.00 0.00 0.00 0.00 0.00 0.00 0.00 0.00 0.00 0.00 0.00 0.00
0.00 0.00 0.00 0.00 0.00 0.00 0.00 0.00 0.00 0.00 0.00 0.00 0.00 0.00 0.01 0.02 0.03 0.01 0.00 0.00 0.00 0.00 0.00 0.00 0.00 0.00 0.00 0.00 0.00 0.00 0.00 0.00 0.00 0.00 0.00 0.00 0.00 0.00 0.00 0.00 0.00 0.00 0.00 0.00

GEFSCGP_prec_meanprecacc_018.txt.gz
Total_Precipitation_Accumulation
0.27 0.21 0.09 0.02 0.00 0.00 0.00 0.00 0.00 0.00 0.00 0.00 0.00 0.00 0.00 0.00 0.00 0.00 0.00 0.00 0.00 0.00 0.00 0.00 0.00 0.00 0.00 0.00 0.00 0.00 0.00 0.00 0.00 0.00 0.00 0.00 0.00 0.00 0.00 0.00 0.00 0.00 0.00 0.00
0.27 0.17 0.05 0.01 0.00 0.00 0.00 0.00 0.00 0.00 0.00 0.00 0.00 0.00 0.00 0.00 0.00 0.00 0.00 0.00 0.00 0.00 0.00 0.00 0.00 0.00 0.00 0.00 0.00 0.00 0.00 0.00 0.00 0.00 0.00 0.00 0.00 0.00 0.00 0.00 0.00 0.00 0.00 0.00
0.16 0.08 0.02 0.01 0.01 0.00 0.00 0.00 0.00 0.00 0.00 0.00 0.00 0.00 0.00 0.00 0.00 0.00 0.00 0.00 0.00 0.00 0.00 0.00 0.00 0.00 0.00 0.00 0.00 0.00 0.00 0.00 0.00 0.00 0.00 0.00 0.00 0.00 0.00 0.00 0.00 0.00 0.00 0.00
0.12 0.04 0.02 0.02 0.01 0.00 0.00 0.00 0.00 0.00 0.00 0.00 0.00 0.00 0.00 0.00 0.00 0.00 0.00 0.00 0.00 0.00 0.00 0.00 0.00 0.00 0.00 0.00 0.00 0.00 0.00 0.00 0.00 0.00 0.00 0.00 0.00 0.00 0.00 0.00 0.00 0.00 0.00 0.00
0.10 0.04 0.02 0.02 0.01 0.00 0.00 0.00 0.00 0.00 0.00 0.00 0.00 0.00 0.00 0.00 0.00 0.00 0.00 0.00 0.00 0.00 0.00 0.00 0.00 0.00 0.00 0.00 0.00 0.00 0.00 0.00 0.00 0.00 0.00 0.00 0.00 0.00 0.00 0.00 0.00 0.00 0.00 0.00
0.05 0.02 0.02 0.01 0.00 0.00 0.00 0.00 0.00 0.00 0.00 0.00 0.00 0.00 0.00 0.00 0.00 0.00 0.00 0.00 0.00 0.00 0.00 0.00 0.00 0.00 0.00 0.00 0.00 0.00 0.00 0.00 0.00 0.00 0.00 0.00 0.00 0.00 0.00 0.00 0.00 0.00 0.00 0.00
0.05 0.02 0.02 0.01 0.01 0.01 0.01 0.00 0.00 0.00 0.00 0.00 0.00 0.00 0.00 0.00 0.00 0.00 0.00 0.00 0.00 0.00 0.00 0.00 0.00 0.00 0.00 0.00 0.00 0.00 0.00 0.00 0.00 0.00 0.00 0.00 0.00 0.00 0.00 0.00 0.00 0.00 0.00 0.00
0.04 0.03 0.01 0.01 0.01 0.01 0.01 0.00 0.00 0.00 0.00 0.00 0.00 0.00 0.00 0.00 0.00 0.00 0.00 0.00 0.00 0.00 0.00 0.00 0.00 0.00 0.00 0.00 0.00 0.00 0.00 0.00 0.00 0.00 0.00 0.00 0.00 0.00 0.00 0.00 0.00 0.00 0.00 0.00
0.01 0.02 0.01 0.00 0.00 0.00 0.01 0.00 0.00 0.00 0.00 0.00 0.00 0.00 0.00 0.00 0.00 0.00 0.00 0.00 0.00 0.00 0.00 0.00 0.00 0.00 0.00 0.00 0.00 0.00 0.00 0.00 0.00 0.00 0.00 0.00 0.00 0.00 0.00 0.00 0.00 0.00 0.00 0.00
0.00 0.00 0.00 0.00 0.00 0.00 0.00 0.00 0.00 0.00 0.00 0.00 0.00 0.00 0.00 0.00 0.00 0.00 0.00 0.00 0.00 0.00 0.00 0.00 0.00 0.00 0.00 0.00 0.00 0.00 0.00 0.00 0.00 0.00 0.00 0.00 0.00 0.00 0.00 0.00 0.00 0.00 0.00 0.00
0.00 0.00 0.00 0.00 0.00 0.00 0.00 0.00 0.00 0.00 0.00 0.00 0.00 0.00 0.00 0.00 0.00 0.00 0.00 0.00 0.00 0.00 0.00 0.00 0.00 0.00 0.00 0.00 0.00 0.00 0.00 0.00 0.00 0.00 0.00 0.00 0.00 0.00 0.00 0.00 0.00 0.00 0.00 0.00
0.00 0.00 0.00 0.00 0.00 0.00 0.00 0.00 0.00 0.00 0.00 0.00 0.00 0.00 0.00 0.00 0.00 0.00 0.00 0.00 0.00 0.00 0.00 0.00 0.00 0.00 0.00 0.00 0.00 0.00 0.00 0.00 0.00 0.00 0.00 0.00 0.00 0.00 0.00 0.00 0.00 0.00 0.00 0.00
0.00 0.00 0.00 0.00 0.00 0.00 0.00 0.00 0.00 0.00 0.00 0.00 0.00 0.00 0.00 0.00 0.00 0.00 0.00 0.00 0.00 0.00 0.00 0.00 0.00 0.00 0.00 0.00 0.00 0.00 0.00 0.00 0.00 0.00 0.00 0.00 0.00 0.00 0.00 0.00 0.00 0.00 0.00 0.00
0.00 0.00 0.00 0.00 0.00 0.00 0.00 0.00 0.00 0.00 0.00 0.00 0.00 0.00 0.00 0.00 0.00 0.00 0.00 0.00 0.00 0.00 0.00 0.00 0.00 0.00 0.00 0.00 0.00 0.00 0.00 0.00 0.00 0.00 0.00 0.00 0.00 0.00 0.00 0.00 0.00 0.00 0.00 0.00
0.00 0.00 0.00 0.00 0.00 0.00 0.00 0.00 0.00 0.00 0.00 0.00 0.00 0.00 0.00 0.00 0.00 0.00 0.00 0.00 0.00 0.00 0.00 0.00 0.00 0.00 0.00 0.00 0.00 0.00 0.00 0.00 0.00 0.00 0.00 0.00 0.00 0.00 0.00 0.00 0.00 0.00 0.00 0.00
0.00 0.00 0.00 0.00 0.00 0.00 0.00 0.00 0.00 0.00 0.00 0.00 0.00 0.00 0.00 0.00 0.00 0.00 0.00 0.00 0.00 0.00 0.00 0.00 0.00 0.00 0.00 0.00 0.00 0.00 0.00 0.00 0.00 0.00 0.00 0.00 0.00 0.00 0.00 0.00 0.00 0.00 0.00 0.00
0.00 0.00 0.00 0.00 0.00 0.00 0.00 0.00 0.00 0.00 0.00 0.00 0.00 0.00 0.00 0.00 0.00 0.00 0.00 0.00 0.00 0.00 0.00 0.00 0.00 0.00 0.00 0.00 0.00 0.00 0.00 0.00 0.00 0.00 0.00 0.00 0.00 0.00 0.00 0.00 0.00 0.00 0.00 0.00
0.00 0.00 0.00 0.00 0.00 0.00 0.00 0.00 0.00 0.00 0.00 0.00 0.00 0.00 0.00 0.00 0.00 0.00 0.00 0.00 0.00 0.00 0.00 0.00 0.00 0.00 0.00 0.00 0.00 0.00 0.00 0.00 0.00 0.00 0.00 0.00 0.00 0.00 0.00 0.00 0.00 0.00 0.00 0.00
0.00 0.00 0.00 0.00 0.00 0.00 0.00 0.00 0.00 0.00 0.00 0.00 0.00 0.00 0.00 0.00 0.00 0.00 0.00 0.00 0.00 0.00 0.00 0.00 0.00 0.00 0.00 0.00 0.00 0.00 0.00 0.00 0.00 0.00 0.00 0.00 0.00 0.00 0.00 0.00 0.00 0.00 0.00 0.00
0.00 0.00 0.00 0.00 0.00 0.00 0.00 0.00 0.00 0.00 0.00 0.00 0.00 0.00 0.00 0.00 0.00 0.00 0.00 0.00 0.00 0.00 0.00 0.00 0.00 0.00 0.00 0.00 0.00 0.00 0.00 0.00 0.00 0.00 0.00 0.00 0.00 0.00 0.00 0.00 0.00 0.00 0.00 0.00
0.00 0.00 0.00 0.00 0.00 0.00 0.00 0.00 0.00 0.00 0.00 0.00 0.00 0.00 0.00 0.00 0.00 0.00 0.00 0.00 0.00 0.00 0.00 0.00 0.00 0.00 0.00 0.00 0.00 0.00 0.00 0.00 0.00 0.00 0.00 0.00 0.00 0.00 0.00 0.00 0.00 0.00 0.00 0.00
0.00 0.00 0.00 0.00 0.00 0.00 0.00 0.00 0.00 0.00 0.00 0.00 0.00 0.00 0.00 0.00 0.00 0.00 0.00 0.00 0.00 0.00 0.00 0.00 0.00 0.00 0.00 0.00 0.00 0.00 0.00 0.00 0.00 0.00 0.00 0.00 0.00 0.00 0.00 0.00 0.00 0.00 0.00 0.00
0.00 0.00 0.00 0.00 0.00 0.00 0.00 0.00 0.00 0.00 0.00 0.00 0.00 0.00 0.00 0.00 0.00 0.00 0.01 0.01 0.01 0.01 0.00 0.00 0.00 0.00 0.00 0.00 0.00 0.00 0.00 0.00 0.00 0.00 0.00 0.00 0.00 0.00 0.00 0.00 0.00 0.00 0.00 0.00
0.00 0.00 0.00 0.00 0.00 0.00 0.00 0.00 0.00 0.00 0.00 0.00 0.00 0.00 0.00 0.00 0.00 0.01 0.01 0.01 0.01 0.00 0.00 0.00 0.00 0.00 0.00 0.00 0.00 0.00 0.00 0.00 0.00 0.00 0.00 0.00 0.00 0.00 0.00 0.00 0.00 0.00 0.00 0.00
0.00 0.00 0.00 0.00 0.00 0.00 0.00 0.00 0.00 0.00 0.00 0.00 0.00 0.00 0.00 0.01 0.02 0.02 0.02 0.01 0.00 0.00 0.00 0.00 0.00 0.00 0.00 0.00 0.00 0.00 0.00 0.00 0.00 0.00 0.00 0.00 0.00 0.00 0.00 0.00 0.00 0.00 0.00 0.00
0.00 0.00 0.00 0.00 0.00 0.00 0.00 0.00 0.00 0.00 0.00 0.00 0.00 0.00 0.01 0.02 0.03 0.01 0.00 0.00 0.00 0.00 0.00 0.00 0.00 0.00 0.00 0.00 0.00 0.00 0.00 0.00 0.00 0.00 0.00 0.00 0.00 0.00 0.00 0.00 0.00 0.00 0.00 0.00

GEFSCGP_prec_meanprecacc_024.txt.gz
Total_Precipitation_Accumulation
0.38 0.45 0.26 0.08 0.03 0.00 0.00 0.00 0.00 0.00 0.00 0.00 0.00 0.00 0.00 0.00 0.00 0.00 0.00 0.00 0.00 0.00 0.00 0.00 0.00 0.00 0.00 0.00 0.00 0.00 0.00 0.00 0.00 0.00 0.00 0.00 0.00 0.00 0.00 0.00 0.00 0.00 0.00 0.00
0.39 0.36 0.17 0.04 0.02 0.01 0.00 0.00 0.00 0.00 0.00 0.00 0.00 0.00 0.00 0.00 0.00 0.00 0.00 0.00 0.00 0.00 0.00 0.00 0.00 0.00 0.00 0.00 0.00 0.00 0.00 0.00 0.00 0.00 0.00 0.00 0.00 0.00 0.00 0.00 0.00 0.00 0.00 0.00
0.26 0.21 0.16 0.09 0.03 0.02 0.01 0.00 0.00 0.00 0.00 0.00 0.00 0.00 0.00 0.00 0.00 0.00 0.00 0.00 0.00 0.00 0.00 0.00 0.00 0.00 0.00 0.00 0.00 0.00 0.00 0.00 0.00 0.00 0.00 0.00 0.00 0.00 0.00 0.00 0.00 0.00 0.00 0.00
0.23 0.20 0.18 0.13 0.04 0.01 0.01 0.00 0.00 0.00 0.00 0.00 0.00 0.00 0.00 0.00 0.00 0.00 0.00 0.00 0.00 0.00 0.00 0.00 0.00 0.00 0.00 0.00 0.00 0.00 0.00 0.00 0.00 0.00 0.00 0.00 0.00 0.00 0.00 0.00 0.00 0.00 0.00 0.00
0.25 0.22 0.19 0.15 0.05 0.01 0.00 0.00 0.00 0.00 0.00 0.00 0.00 0.00 0.00 0.00 0.00 0.00 0.00 0.00 0.00 0.00 0.00 0.00 0.00 0.00 0.00 0.00 0.00 0.00 0.00 0.00 0.00 0.00 0.00 0.00 0.00 0.00 0.00 0.00 0.00 0.00 0.00 0.00
0.16 0.20 0.17 0.11 0.05 0.02 0.01 0.00 0.00 0.00 0.00 0.00 0.00 0.00 0.00 0.00 0.00 0.00 0.00 0.00 0.00 0.00 0.00 0.00 0.00 0.00 0.00 0.00 0.00 0.00 0.00 0.00 0.00 0.00 0.00 0.00 0.00 0.00 0.00 0.00 0.00 0.00 0.00 0.00
0.20 0.25 0.18 0.09 0.09 0.05 0.03 0.03 0.03 0.01 0.00 0.00 0.00 0.00 0.00 0.00 0.00 0.00 0.00 0.00 0.00 0.00 0.00 0.00 0.00 0.00 0.00 0.00 0.00 0.00 0.00 0.00 0.00 0.00 0.00 0.00 0.00 0.00 0.00 0.00 0.00 0.00 0.00 0.00
0.18 0.23 0.15 0.08 0.07 0.06 0.04 0.03 0.02 0.01 0.00 0.00 0.00 0.00 0.00 0.00 0.00 0.00 0.00 0.00 0.00 0.00 0.00 0.00 0.00 0.00 0.00 0.00 0.00 0.00 0.00 0.00 0.00 0.00 0.00 0.00 0.00 0.00 0.00 0.00 0.00 0.00 0.00 0.00
0.08 0.12 0.09 0.04 0.03 0.02 0.03 0.02 0.01 0.00 0.00 0.00 0.00 0.00 0.00 0.00 0.00 0.00 0.00 0.00 0.00 0.00 0.00 0.00 0.00 0.00 0.00 0.00 0.00 0.00 0.00 0.00 0.00 0.00 0.00 0.00 0.00 0.00 0.00 0.00 0.00 0.00 0.00 0.00
0.03 0.05 0.06 0.03 0.03 0.02 0.02 0.02 0.01 0.00 0.00 0.00 0.00 0.00 0.00 0.00 0.00 0.00 0.00 0.00 0.00 0.00 0.00 0.00 0.00 0.00 0.00 0.00 0.00 0.00 0.00 0.00 0.00 0.00 0.00 0.00 0.00 0.00 0.00 0.00 0.00 0.00 0.00 0.00
0.01 0.02 0.04 0.03 0.02 0.01 0.01 0.02 0.01 0.00 0.00 0.00 0.00 0.00 0.00 0.00 0.00 0.00 0.00 0.00 0.00 0.00 0.00 0.00 0.00 0.00 0.00 0.00 0.00 0.00 0.00 0.00 0.00 0.00 0.00 0.00 0.00 0.00 0.00 0.00 0.00 0.00 0.00 0.00
0.01 0.01 0.02 0.02 0.00 0.00 0.00 0.00 0.00 0.00 0.00 0.00 0.00 0.00 0.00 0.00 0.00 0.00 0.00 0.00 0.00 0.00 0.00 0.00 0.00 0.00 0.00 0.00 0.00 0.00 0.00 0.00 0.00 0.00 0.00 0.00 0.00 0.00 0.00 0.00 0.00 0.00 0.00 0.00
0.00 0.00 0.02 0.02 0.01 0.00 0.00 0.00 0.00 0.00 0.00 0.00 0.00 0.00 0.00 0.00 0.00 0.00 0.00 0.00 0.00 0.00 0.00 0.00 0.00 0.00 0.00 0.00 0.00 0.00 0.00 0.00 0.00 0.00 0.00 0.00 0.00 0.00 0.00 0.00 0.00 0.00 0.00 0.00
0.00 0.00 0.00 0.01 0.00 0.00 0.00 0.00 0.00 0.00 0.00 0.00 0.00 0.00 0.00 0.00 0.00 0.00 0.00 0.00 0.00 0.00 0.00 0.00 0.00 0.00 0.00 0.00 0.00 0.00 0.00 0.00 0.00 0.00 0.00 0.00 0.00 0.00 0.00 0.00 0.00 0.00 0.00 0.00
0.00 0.00 0.00 0.00 0.00 0.00 0.00 0.00 0.00 0.00 0.00 0.00 0.00 0.00 0.00 0.00 0.00 0.00 0.00 0.00 0.00 0.00 0.00 0.00 0.00 0.00 0.00 0.00 0.00 0.00 0.00 0.00 0.00 0.00 0.00 0.00 0.00 0.00 0.00 0.00 0.00 0.00 0.00 0.00
0.00 0.00 0.00 0.00 0.00 0.00 0.00 0.00 0.00 0.00 0.00 0.00 0.00 0.00 0.00 0.00 0.00 0.00 0.00 0.00 0.00 0.00 0.00 0.00 0.00 0.00 0.00 0.00 0.00 0.00 0.00 0.00 0.00 0.00 0.00 0.00 0.00 0.00 0.00 0.00 0.00 0.00 0.00 0.00
0.00 0.00 0.00 0.00 0.00 0.00 0.00 0.00 0.00 0.00 0.00 0.00 0.00 0.00 0.00 0.00 0.00 0.00 0.00 0.00 0.00 0.00 0.00 0.00 0.00 0.00 0.00 0.00 0.00 0.00 0.00 0.00 0.00 0.00 0.00 0.00 0.00 0.00 0.00 0.00 0.00 0.00 0.00 0.00
0.01 0.01 0.01 0.00 0.00 0.00 0.00 0.00 0.00 0.00 0.00 0.00 0.00 0.00 0.00 0.00 0.00 0.00 0.00 0.00 0.00 0.00 0.00 0.00 0.00 0.00 0.00 0.00 0.00 0.00 0.00 0.00 0.00 0.00 0.00 0.00 0.00 0.00 0.00 0.00 0.00 0.00 0.00 0.00
0.01 0.02 0.02 0.01 0.00 0.00 0.00 0.00 0.00 0.00 0.00 0.00 0.00 0.00 0.00 0.00 0.00 0.00 0.00 0.00 0.00 0.00 0.00 0.00 0.00 0.00 0.00 0.00 0.00 0.00 0.00 0.00 0.00 0.00 0.00 0.00 0.00 0.00 0.00 0.00 0.00 0.00 0.00 0.00
0.02 0.02 0.03 0.02 0.01 0.00 0.00 0.00 0.00 0.00 0.00 0.00 0.00 0.00 0.00 0.00 0.00 0.00 0.00 0.00 0.00 0.00 0.00 0.00 0.00 0.00 0.00 0.00 0.00 0.00 0.00 0.00 0.00 0.00 0.00 0.00 0.00 0.00 0.00 0.00 0.00 0.00 0.00 0.00
0.02 0.02 0.02 0.01 0.00 0.00 0.00 0.00 0.00 0.00 0.00 0.00 0.00 0.00 0.00 0.00 0.00 0.00 0.00 0.00 0.00 0.00 0.00 0.00 0.00 0.00 0.00 0.00 0.00 0.00 0.00 0.00 0.00 0.00 0.00 0.00 0.00 0.00 0.00 0.00 0.00 0.00 0.00 0.00
0.01 0.01 0.01 0.01 0.00 0.00 0.00 0.00 0.00 0.00 0.00 0.00 0.00 0.00 0.00 0.00 0.00 0.00 0.00 0.00 0.00 0.00 0.00 0.00 0.00 0.00 0.00 0.00 0.00 0.00 0.00 0.00 0.00 0.00 0.00 0.00 0.00 0.00 0.00 0.00 0.00 0.00 0.00 0.00
0.00 0.00 0.00 0.00 0.00 0.00 0.00 0.00 0.00 0.00 0.00 0.00 0.00 0.00 0.00 0.00 0.00 0.00 0.01 0.01 0.01 0.01 0.00 0.00 0.00 0.00 0.00 0.00 0.00 0.00 0.00 0.00 0.00 0.00 0.00 0.00 0.00 0.00 0.00 0.00 0.00 0.00 0.00 0.00
0.00 0.00 0.00 0.00 0.00 0.00 0.00 0.00 0.00 0.00 0.00 0.00 0.00 0.00 0.00 0.00 0.00 0.01 0.01 0.01 0.01 0.00 0.00 0.00 0.00 0.00 0.00 0.00 0.00 0.00 0.00 0.00 0.00 0.00 0.00 0.00 0.00 0.00 0.00 0.00 0.00 0.00 0.00 0.00
0.00 0.00 0.00 0.00 0.00 0.00 0.00 0.00 0.00 0.00 0.00 0.00 0.00 0.00 0.00 0.01 0.02 0.02 0.02 0.01 0.00 0.00 0.00 0.00 0.00 0.00 0.00 0.00 0.00 0.00 0.00 0.00 0.00 0.00 0.00 0.00 0.00 0.00 0.00 0.00 0.00 0.00 0.00 0.00
0.00 0.00 0.00 0.00 0.00 0.00 0.00 0.00 0.00 0.00 0.00 0.00 0.00 0.00 0.01 0.02 0.03 0.01 0.00 0.00 0.00 0.00 0.00 0.00 0.00 0.00 0.00 0.00 0.00 0.00 0.00 0.00 0.00 0.00 0.00 0.00 0.00 0.00 0.00 0.00 0.00 0.00 0.00 0.00

GEFSCGP_prec_meanprecacc_030.txt.gz
Total_Precipitation_Accumulation
0.50 0.65 0.45 0.18 0.10 0.06 0.05 0.04 0.02 0.00 0.00 0.00 0.00 0.00 0.00 0.00 0.00 0.00 0.00 0.00 0.00 0.00 0.00 0.00 0.00 0.00 0.00 0.00 0.00 0.00 0.00 0.00 0.00 0.00 0.00 0.00 0.00 0.00 0.00 0.00 0.00 0.00 0.00 0.00
0.57 0.53 0.29 0.14 0.12 0.10 0.09 0.07 0.03 0.01 0.00 0.00 0.00 0.00 0.00 0.00 0.00 0.00 0.00 0.00 0.00 0.00 0.00 0.00 0.00 0.00 0.00 0.00 0.00 0.00 0.00 0.00 0.00 0.00 0.00 0.00 0.00 0.00 0.00 0.00 0.00 0.00 0.00 0.00
0.42 0.31 0.25 0.26 0.22 0.18 0.14 0.11 0.05 0.02 0.01 0.00 0.00 0.00 0.00 0.00 0.00 0.00 0.00 0.00 0.00 0.00 0.00 0.00 0.00 0.00 0.00 0.00 0.00 0.00 0.00 0.00 0.00 0.00 0.00 0.00 0.00 0.00 0.00 0.00 0.00 0.00 0.00 0.00
0.34 0.28 0.37 0.41 0.30 0.21 0.15 0.09 0.06 0.03 0.01 0.00 0.00 0.00 0.00 0.00 0.00 0.00 0.00 0.00 0.00 0.00 0.00 0.00 0.00 0.00 0.00 0.00 0.00 0.00 0.00 0.00 0.00 0.00 0.00 0.00 0.00 0.00 0.00 0.00 0.00 0.00 0.00 0.00
0.35 0.31 0.44 0.52 0.32 0.19 0.14 0.07 0.07 0.05 0.02 0.01 0.00 0.00 0.00 0.00 0.00 0.00 0.00 0.00 0.00 0.00 0.00 0.00 0.00 0.00 0.00 0.00 0.00 0.00 0.00 0.00 0.00 0.00 0.00 0.00 0.00 0.00 0.00 0.00 0.00 0.00 0.00 0.00
0.24 0.31 0.43 0.45 0.30 0.22 0.16 0.14 0.11 0.07 0.04 0.01 0.00 0.00 0.00 0.00 0.00 0.00 0.00 0.00 0.00 0.00 0.00 0.00 0.00 0.00 0.00 0.00 0.00 0.00 0.00 0.00 0.00 0.00 0.00 0.00 0.00 0.00 0.00 0.00 0.00 0.00 0.00 0.00
0.30 0.42 0.45 0.48 0.49 0.39 0.30 0.27 0.22 0.15 0.06 0.01 0.00 0.00 0.00 0.00 0.00 0.00 0.00 0.00 0.00 0.00 0.00 0.00 0.00 0.00 0.00 0.00 0.00 0.00 0.00 0.00 0.00 0.00 0.00 0.00 0.00 0.00 0.00 0.00 0.00 0.00 0.00 0.00
0.31 0.42 0.41 0.52 0.60 0.50 0.32 0.22 0.12 0.07 0.02 0.00 0.00 0.00 0.00 0.00 0.00 0.00 0.00 0.00 0.00 0.00 0.00 0.00 0.00 0.00 0.00 0.00 0.00 0.00 0.00 0.00 0.00 0.00 0.00 0.00 0.00 0.00 0.00 0.00 0.00 0.00 0.00 0.00
0.19 0.28 0.30 0.37 0.44 0.37 0.26 0.14 0.04 0.01 0.00 0.00 0.00 0.00 0.00 0.00 0.00 0.00 0.00 0.00 0.00 0.00 0.00 0.00 0.00 0.00 0.00 0.00 0.00 0.00 0.00 0.00 0.00 0.00 0.00 0.00 0.00 0.00 0.00 0.00 0.00 0.00 0.00 0.00
0.18 0.26 0.30 0.33 0.42 0.36 0.22 0.10 0.04 0.01 0.01 0.00 0.00 0.00 0.00 0.00 0.00 0.00 0.00 0.00 0.00 0.00 0.00 0.00 0.00 0.00 0.00 0.00 0.00 0.00 0.00 0.00 0.00 0.00 0.00 0.00 0.00 0.00 0.00 0.00 0.00 0.00 0.00 0.00
0.20 0.29 0.34 0.35 0.40 0.27 0.14 0.09 0.04 0.01 0.00 0.00 0.00 0.00 0.00 0.00 0.00 0.00 0.00 0.00 0.00 0.00 0.00 0.00 0.00 0.00 0.00 0.00 0.00 0.00 0.00 0.00 0.00 0.00 0.00 0.00 0.00 0.00 0.00 0.00 0.00 0.00 0.00 0.00
0.16 0.26 0.32 0.28 0.19 0.12 0.07 0.04 0.02 0.01 0.00 0.00 0.00 0.00 0.00 0.00 0.00 0.00 0.00 0.00 0.00 0.00 0.00 0.00 0.00 0.00 0.00 0.00 0.00 0.00 0.00 0.00 0.00 0.00 0.00 0.00 0.00 0.00 0.00 0.00 0.00 0.00 0.00 0.00
0.11 0.18 0.26 0.24 0.16 0.11 0.06 0.02 0.01 0.01 0.00 0.00 0.00 0.00 0.00 0.00 0.00 0.00 0.00 0.00 0.00 0.00 0.00 0.00 0.00 0.00 0.00 0.00 0.00 0.00 0.00 0.00 0.00 0.00 0.00 0.00 0.00 0.00 0.00 0.00 0.00 0.00 0.00 0.00
0.11 0.10 0.13 0.12 0.07 0.04 0.02 0.01 0.00 0.00 0.00 0.00 0.00 0.00 0.00 0.00 0.00 0.00 0.00 0.00 0.00 0.00 0.00 0.00 0.00 0.00 0.00 0.00 0.00 0.00 0.00 0.00 0.00 0.00 0.00 0.00 0.00 0.00 0.00 0.00 0.00 0.00 0.00 0.00
0.09 0.06 0.05 0.04 0.01 0.00 0.00 0.00 0.00 0.00 0.00 0.00 0.00 0.00 0.00 0.00 0.00 0.00 0.00 0.00 0.00 0.00 0.00 0.00 0.00 0.00 0.00 0.00 0.00 0.00 0.00 0.00 0.00 0.00 0.00 0.00 0.00 0.00 0.00 0.00 0.00 0.00 0.00 0.00
0.05 0.05 0.03 0.02 0.01 0.00 0.00 0.00 0.00 0.00 0.00 0.00 0.00 0.00 0.00 0.00 0.00 0.00 0.00 0.00 0.00 0.00 0.00 0.00 0.00 0.00 0.00 0.00 0.00 0.00 0.00 0.00 0.00 0.00 0.00 0.00 0.00 0.00 0.00 0.00 0.00 0.00 0.00 0.00
0.02 0.03 0.02 0.02 0.01 0.00 0.00 0.00 0.00 0.00 0.00 0.00 0.00 0.00 0.00 0.00 0.00 0.00 0.00 0.00 0.00 0.00 0.00 0.00 0.00 0.00 0.00 0.00 0.00 0.00 0.00 0.00 0.00 0.00 0.00 0.00 0.00 0.00 0.00 0.00 0.00 0.00 0.00 0.00
0.01 0.03 0.04 0.01 0.01 0.00 0.00 0.00 0.00 0.00 0.00 0.00 0.00 0.00 0.00 0.00 0.00 0.00 0.00 0.00 0.00 0.00 0.00 0.00 0.00 0.00 0.00 0.00 0.00 0.00 0.00 0.00 0.00 0.00 0.00 0.00 0.00 0.00 0.00 0.00 0.00 0.00 0.00 0.00
0.02 0.04 0.05 0.02 0.01 0.00 0.00 0.00 0.00 0.00 0.00 0.00 0.00 0.00 0.00 0.00 0.00 0.00 0.00 0.00 0.00 0.00 0.00 0.00 0.00 0.00 0.00 0.00 0.00 0.00 0.00 0.00 0.00 0.00 0.00 0.00 0.00 0.00 0.00 0.00 0.00 0.00 0.00 0.00
0.03 0.04 0.06 0.04 0.02 0.00 0.00 0.00 0.00 0.00 0.00 0.00 0.00 0.00 0.00 0.00 0.00 0.00 0.00 0.00 0.00 0.00 0.00 0.00 0.00 0.00 0.00 0.00 0.00 0.00 0.00 0.00 0.00 0.00 0.00 0.00 0.00 0.00 0.00 0.00 0.00 0.00 0.00 0.00
0.03 0.05 0.05 0.04 0.02 0.00 0.00 0.00 0.00 0.00 0.00 0.00 0.00 0.00 0.00 0.00 0.00 0.00 0.00 0.00 0.00 0.00 0.00 0.00 0.00 0.00 0.00 0.00 0.00 0.00 0.00 0.00 0.00 0.00 0.00 0.00 0.00 0.00 0.00 0.00 0.00 0.00 0.00 0.00
0.01 0.02 0.03 0.02 0.02 0.00 0.00 0.00 0.00 0.00 0.00 0.00 0.00 0.00 0.00 0.00 0.00 0.00 0.00 0.00 0.00 0.00 0.00 0.00 0.00 0.00 0.00 0.00 0.00 0.00 0.00 0.00 0.00 0.00 0.00 0.00 0.00 0.00 0.00 0.00 0.00 0.00 0.00 0.00
0.00 0.00 0.00 0.00 0.00 0.00 0.00 0.00 0.00 0.00 0.00 0.00 0.00 0.00 0.00 0.00 0.00 0.00 0.01 0.01 0.01 0.01 0.00 0.00 0.00 0.00 0.00 0.00 0.00 0.00 0.00 0.00 0.00 0.00 0.00 0.00 0.00 0.00 0.00 0.00 0.00 0.00 0.00 0.00
0.00 0.00 0.00 0.00 0.00 0.00 0.00 0.00 0.00 0.00 0.00 0.00 0.00 0.00 0.00 0.00 0.00 0.01 0.01 0.01 0.01 0.00 0.00 0.00 0.00 0.00 0.00 0.00 0.00 0.00 0.00 0.00 0.00 0.00 0.00 0.00 0.00 0.00 0.00 0.00 0.00 0.00 0.00 0.00
0.00 0.00 0.00 0.00 0.00 0.00 0.00 0.00 0.00 0.00 0.00 0.00 0.00 0.00 0.00 0.01 0.02 0.02 0.02 0.01 0.00 0.00 0.00 0.00 0.00 0.00 0.00 0.00 0.00 0.00 0.00 0.00 0.00 0.00 0.00 0.00 0.00 0.00 0.00 0.00 0.00 0.00 0.00 0.00
0.00 0.00 0.00 0.00 0.00 0.00 0.00 0.00 0.00 0.00 0.00 0.00 0.00 0.00 0.01 0.02 0.03 0.01 0.00 0.00 0.00 0.00 0.00 0.00 0.00 0.00 0.00 0.00 0.00 0.00 0.00 0.00 0.00 0.00 0.00 0.00 0.00 0.00 0.00 0.00 0.00 0.00 0.00 0.00

GEFSCGP_prec_meanprecacc_036.txt.gz
Total_Precipitation_Accumulation
0.51 0.66 0.46 0.19 0.11 0.07 0.06 0.05 0.03 0.01 0.00 0.01 0.00 0.00 0.00 0.00 0.00 0.00 0.00 0.00 0.00 0.00 0.00 0.00 0.00 0.00 0.00 0.00 0.00 0.00 0.00 0.00 0.00 0.00 0.00 0.00 0.00 0.00 0.00 0.00 0.00 0.00 0.00 0.00
0.59 0.54 0.29 0.14 0.13 0.12 0.11 0.10 0.06 0.02 0.01 0.01 0.01 0.00 0.00 0.00 0.00 0.00 0.00 0.00 0.00 0.00 0.00 0.00 0.00 0.00 0.00 0.00 0.00 0.00 0.00 0.00 0.00 0.00 0.00 0.00 0.00 0.00 0.00 0.00 0.00 0.00 0.00 0.00
0.43 0.31 0.26 0.27 0.23 0.20 0.17 0.15 0.10 0.05 0.04 0.04 0.03 0.01 0.00 0.00 0.00 0.00 0.00 0.00 0.00 0.00 0.00 0.00 0.00 0.00 0.00 0.00 0.00 0.00 0.00 0.00 0.00 0.00 0.00 0.00 0.00 0.00 0.00 0.00 0.00 0.00 0.00 0.00
0.35 0.29 0.38 0.44 0.33 0.24 0.20 0.12 0.13 0.11 0.10 0.07 0.04 0.02 0.00 0.00 0.00 0.00 0.00 0.00 0.00 0.00 0.00 0.00 0.00 0.00 0.00 0.00 0.00 0.00 0.00 0.00 0.00 0.00 0.00 0.00 0.00 0.00 0.00 0.00 0.00 0.00 0.00 0.00
0.38 0.33 0.46 0.55 0.34 0.24 0.19 0.12 0.18 0.20 0.17 0.14 0.07 0.04 0.01 0.00 0.00 0.00 0.00 0.00 0.00 0.00 0.00 0.00 0.00 0.00 0.00 0.00 0.00 0.00 0.00 0.00 0.00 0.00 0.00 0.00 0.00 0.00 0.00 0.00 0.00 0.00 0.00 0.00
0.26 0.34 0.48 0.50 0.34 0.27 0.25 0.28 0.34 0.37 0.37 0.31 0.11 0.05 0.01 0.00 0.00 0.00 0.00 0.00 0.00 0.00 0.00 0.00 0.00 0.00 0.00 0.00 0.00 0.00 0.00 0.00 0.00 0.00 0.00 0.00 0.00 0.00 0.00 0.00 0.00 0.00 0.00 0.00
0.32 0.44 0.49 0.55 0.59 0.49 0.48 0.66 0.74 0.68 0.60 0.31 0.06 0.04 0.02 0.00 0.00 0.00 0.00 0.00 0.00 0.00 0.00 0.00 0.00 0.00 0.00 0.00 0.00 0.00 0.00 0.00 0.00 0.00 0.00 0.00 0.00 0.00 0.00 0.00 0.00 0.00 0.00 0.00
0.34 0.44 0.45 0.57 0.73 0.66 0.52 0.64 0.65 0.52 0.32 0.12 0.04 0.03 0.01 0.00 0.00 0.00 0.00 0.00 0.00 0.00 0.00 0.00 0.00 0.00 0.00 0.00 0.00 0.00 0.00 0.00 0.00 0.00 0.00 0.00 0.00 0.00 0.00 0.00 0.00 0.00 0.00 0.00
0.24 0.33 0.36 0.44 0.56 0.57 0.51 0.46 0.38 0.40 0.26 0.13 0.06 0.02 0.00 0.00 0.00 0.00 0.00 0.00 0.00 0.00 0.00 0.00 0.00 0.00 0.00 0.00 0.00 0.00 0.00 0.00 0.00 0.00 0.00 0.00 0.00 0.00 0.00 0.00 0.00 0.00 0.00 0.00
0.23 0.35 0.40 0.46 0.60 0.59 0.50 0.40 0.42 0.48 0.34 0.20 0.06 0.01 0.00 0.00 0.00 0.00 0.00 0.00 0.00 0.00 0.00 0.00 0.00 0.00 0.00 0.00 0.00 0.00 0.00 0.00 0.00 0.00 0.00 0.00 0.00 0.00 0.00 0.00 0.00 0.00 0.00 0.00
0.24 0.41 0.49 0.54 0.60 0.46 0.40 0.42 0.44 0.39 0.24 0.15 0.05 0.01 0.00 0.00 0.00 0.00 0.00 0.00 0.00 0.00 0.00 0.00 0.00 0.00 0.00 0.00 0.00 0.00 0.00 0.00 0.00 0.00 0.00 0.00 0.00 0.00 0.00 0.00 0.00 0.00 0.00 0.00
0.20 0.37 0.51 0.43 0.34 0.31 0.33 0.30 0.33 0.34 0.21 0.09 0.03 0.00 0.00 0.00 0.00 0.00 0.00 0.00 0.00 0.00 0.00 0.00 0.00 0.00 0.00 0.00 0.00 0.00 0.00 0.00 0.00 0.00 0.00 0.00 0.00 0.00 0.00 0.00 0.00 0.00 0.00 0.00
0.20 0.33 0.49 0.41 0.32 0.32 0.31 0.23 0.24 0.26 0.22 0.09 0.03 0.00 0.00 0.00 0.00 0.00 0.00 0.00 0.00 0.00 0.00 0.00 0.00 0.00 0.00 0.00 0.00 0.00 0.00 0.00 0.00 0.00 0.00 0.00 0.00 0.00 0.00 0.00 0.00 0.00 0.00 0.00
0.26 0.32 0.37 0.35 0.23 0.19 0.17 0.13 0.14 0.19 0.17 0.07 0.02 0.00 0.00 0.00 0.00 0.00 0.00 0.00 0.00 0.00 0.00 0.00 0.00 0.00 0.00 0.00 0.00 0.00 0.00 0.00 0.00 0.00 0.00 0.00 0.00 0.00 0.00 0.00 0.00 0.00 0.00 0.00
0.23 0.28 0.25 0.20 0.12 0.09 0.08 0.08 0.08 0.11 0.10 0.05 0.01 0.00 0.00 0.00 0.00 0.00 0.00 0.00 0.00 0.00 0.00 0.00 0.00 0.00 0.00 0.00 0.00 0.00 0.00 0.00 0.00 0.00 0.00 0.00 0.00 0.00 0.00 0.00 0.00 0.00 0.00 0.00
0.13 0.20 0.20 0.16 0.08 0.06 0.06 0.05 0.05 0.06 0.06 0.03 0.01 0.00 0.00 0.00 0.00 0.00 0.00 0.00 0.00 0.00 0.00 0.00 0.00 0.00 0.00 0.00 0.00 0.00 0.00 0.00 0.00 0.00 0.00 0.00 0.00 0.00 0.00 0.00 0.00 0.00 0.00 0.00
0.06 0.12 0.17 0.13 0.05 0.03 0.04 0.03 0.02 0.03 0.03 0.02 0.01 0.00 0.00 0.00 0.00 0.00 0.00 0.00 0.00 0.00 0.00 0.00 0.00 0.00 0.00 0.00 0.00 0.00 0.00 0.00 0.00 0.00 0.00 0.00 0.00 0.00 0.00 0.00 0.00 0.00 0.00 0.00
0.03 0.08 0.15 0.11 0.05 0.03 0.01 0.00 0.00 0.01 0.01 0.01 0.01 0.00 0.00 0.00 0.00 0.00 0.00 0.00 0.00 0.00 0.00 0.00 0.00 0.00 0.00 0.00 0.00 0.00 0.00 0.00 0.00 0.00 0.00 0.00 0.00 0.00 0.00 0.00 0.00 0.00 0.00 0.00
0.03 0.07 0.13 0.09 0.04 0.01 0.00 0.00 0.00 0.00 0.00 0.00 0.00 0.00 0.00 0.00 0.00 0.00 0.00 0.00 0.00 0.00 0.00 0.00 0.00 0.00 0.00 0.00 0.00 0.00 0.00 0.00 0.00 0.00 0.00 0.00 0.00 0.00 0.00 0.00 0.00 0.00 0.00 0.00
0.03 0.06 0.11 0.08 0.04 0.02 0.00 0.00 0.00 0.00 0.00 0.00 0.00 0.00 0.00 0.00 0.00 0.00 0.00 0.00 0.00 0.00 0.00 0.00 0.00 0.00 0.00 0.00 0.00 0.00 0.00 0.00 0.00 0.00 0.00 0.00 0.00 0.00 0.00 0.00 0.00 0.00 0.00 0.00
0.04 0.07 0.08 0.07 0.04 0.01 0.00 0.00 0.00 0.00 0.00 0.00 0.00 0.00 0.00 0.00 0.00 0.00 0.00 0.00 0.00 0.00 0.00 0.00 0.00 0.00 0.00 0.00 0.00 0.00 0.00 0.00 0.00 0.00 0.00 0.00 0.00 0.00 0.00 0.00 0.00 0.00 0.00 0.00
0.01 0.03 0.03 0.03 0.02 0.00 0.00 0.00 0.00 0.00 0.00 0.00 0.00 0.00 0.00 0.00 0.00 0.00 0.00 0.00 0.00 0.00 0.00 0.00 0.00 0.00 0.00 0.00 0.00 0.00 0.00 0.00 0.00 0.00 0.00 0.00 0.00 0.00 0.00 0.00 0.00 0.00 0.00 0.00
0.00 0.00 0.00 0.00 0.00 0.00 0.00 0.00 0.00 0.00 0.00 0.00 0.00 0.00 0.00 0.00 0.00 0.00 0.01 0.01 0.01 0.01 0.00 0.00 0.00 0.00 0.00 0.00 0.00 0.00 0.00 0.00 0.00 0.00 0.00 0.00 0.00 0.00 0.00 0.00 0.00 0.00 0.00 0.00
0.00 0.00 0.00 0.00 0.00 0.00 0.00 0.00 0.00 0.00 0.00 0.00 0.00 0.00 0.00 0.00 0.00 0.01 0.01 0.01 0.01 0.00 0.00 0.00 0.00 0.00 0.00 0.00 0.00 0.00 0.00 0.00 0.00 0.00 0.00 0.00 0.00 0.00 0.00 0.00 0.00 0.00 0.00 0.00
0.00 0.00 0.00 0.00 0.00 0.00 0.00 0.00 0.00 0.00 0.00 0.00 0.00 0.00 0.00 0.01 0.02 0.02 0.02 0.01 0.00 0.00 0.00 0.00 0.00 0.00 0.00 0.00 0.00 0.00 0.00 0.00 0.00 0.00 0.00 0.00 0.00 0.00 0.00 0.00 0.00 0.00 0.00 0.00
0.00 0.00 0.00 0.00 0.00 0.00 0.00 0.00 0.00 0.00 0.00 0.00 0.00 0.00 0.01 0.02 0.03 0.01 0.00 0.00 0.00 0.00 0.00 0.00 0.00 0.00 0.00 0.00 0.00 0.00 0.00 0.00 0.00 0.00 0.00 0.00 0.00 0.00 0.00 0.00 0.00 0.00 0.00 0.00

GEFSCGP_prec_meanprecacc_042.txt.gz
Total_Precipitation_Accumulation
0.51 0.67 0.47 0.19 0.11 0.07 0.06 0.05 0.03 0.01 0.00 0.01 0.00 0.00 0.00 0.00 0.00 0.00 0.00 0.00 0.00 0.00 0.00 0.00 0.00 0.00 0.00 0.00 0.00 0.00 0.00 0.00 0.00 0.00 0.01 0.03 0.03 0.02 0.02 0.01 0.01 0.00 0.00 0.00
0.60 0.55 0.29 0.14 0.13 0.12 0.11 0.11 0.06 0.02 0.01 0.02 0.01 0.00 0.00 0.00 0.00 0.00 0.00 0.00 0.00 0.00 0.00 0.00 0.00 0.00 0.00 0.00 0.00 0.00 0.00 0.00 0.00 0.01 0.02 0.04 0.05 0.03 0.02 0.01 0.01 0.00 0.00 0.00
0.43 0.32 0.26 0.27 0.23 0.20 0.17 0.15 0.10 0.05 0.04 0.04 0.03 0.01 0.00 0.00 0.00 0.00 0.00 0.00 0.00 0.00 0.00 0.00 0.00 0.00 0.00 0.00 0.00 0.00 0.00 0.00 0.00 0.01 0.02 0.03 0.03 0.03 0.01 0.01 0.01 0.00 0.00 0.00
0.36 0.29 0.38 0.44 0.33 0.24 0.20 0.12 0.13 0.11 0.11 0.08 0.05 0.03 0.00 0.00 0.00 0.00 0.00 0.00 0.00 0.00 0.00 0.00 0.00 0.00 0.00 0.00 0.00 0.00 0.00 0.00 0.00 0.00 0.02 0.03 0.03 0.03 0.02 0.01 0.00 0.00 0.00 0.00
0.38 0.33 0.46 0.55 0.34 0.24 0.19 0.12 0.18 0.20 0.18 0.16 0.09 0.06 0.01 0.00 0.00 0.00 0.00 0.00 0.00 0.00 0.00 0.00 0.00 0.00 0.00 0.00 0.00 0.00 0.00 0.00 0.00 0.00 0.01 0.03 0.03 0.02 0.01 0.00 0.00 0.00 0.00 0.00
0.27 0.34 0.48 0.50 0.34 0.27 0.25 0.29 0.35 0.38 0.43 0.38 0.12 0.07 0.02 0.00 0.00 0.00 0.00 0.00 0.00 0.00 0.00 0.00 0.00 0.00 0.00 0.00 0.00 0.00 0.00 0.00 0.00 0.00 0.01 0.01 0.02 0.01 0.00 0.00 0.00 0.00 0.00 0.00
0.34 0.45 0.49 0.55 0.59 0.50 0.49 0.72 0.83 0.74 0.66 0.35 0.07 0.05 0.02 0.00 0.00 0.00 0.00 0.00 0.00 0.00 0.00 0.00 0.00 0.00 0.00 0.00 0.00 0.00 0.00 0.00 0.00 0.00 0.00 0.01 0.01 0.01 0.00 0.00 0.00 0.00 0.00 0.00
0.36 0.45 0.45 0.57 0.73 0.67 0.53 0.68 0.71 0.55 0.35 0.14 0.06 0.04 0.01 0.00 0.00 0.00 0.00 0.00 0.00 0.00 0.00 0.00 0.00 0.00 0.00 0.00 0.00 0.00 0.00 0.00 0.00 0.00 0.00 0.00 0.00 0.00 0.00 0.00 0.00 0.00 0.00 0.00
0.25 0.33 0.36 0.45 0.57 0.60 0.55 0.50 0.41 0.47 0.34 0.21 0.09 0.03 0.01 0.00 0.00 0.00 0.00 0.00 0.00 0.00 0.00 0.00 0.00 0.00 0.00 0.00 0.00 0.00 0.00 0.00 0.00 0.00 0.00 0.00 0.00 0.00 0.00 0.00 0.00 0.00 0.00 0.00
0.24 0.37 0.40 0.48 0.63 0.63 0.54 0.46 0.51 0.66 0.50 0.32 0.12 0.03 0.02 0.01 0.01 0.00 0.00 0.00 0.00 0.00 0.00 0.00 0.00 0.00 0.00 0.00 0.00 0.00 0.00 0.00 0.00 0.00 0.00 0.00 0.00 0.00 0.00 0.00 0.00 0.00 0.00 0.00
0.25 0.44 0.51 0.57 0.63 0.50 0.45 0.52 0.56 0.53 0.38 0.38 0.21 0.06 0.02 0.01 0.01 0.01 0.00 0.00 0.00 0.00 0.00 0.00 0.00 0.00 0.00 0.00 0.00 0.00 0.00 0.00 0.00 0.00 0.00 0.00 0.00 0.00 0.00 0.00 0.00 0.00 0.00 0.00
0.21 0.41 0.55 0.45 0.36 0.34 0.38 0.37 0.43 0.52 0.40 0.29 0.21 0.07 0.01 0.02 0.02 0.02 0.01 0.01 0.00 0.00 0.00 0.00 0.00 0.00 0.00 0.00 0.00 0.00 0.00 0.00 0.00 0.00 0.00 0.00 0.00 0.00 0.00 0.00 0.00 0.00 0.00 0.00
0.21 0.38 0.54 0.44 0.37 0.38 0.37 0.29 0.33 0.44 0.51 0.36 0.24 0.08 0.02 0.03 0.03 0.03 0.02 0.01 0.01 0.00 0.00 0.00 0.00 0.00 0.00 0.00 0.00 0.00 0.00 0.00 0.00 0.00 0.00 0.00 0.00 0.00 0.00 0.00 0.00 0.00 0.00 0.00
0.31 0.37 0.43 0.40 0.32 0.35 0.32 0.26 0.30 0.47 0.52 0.28 0.14 0.07 0.03 0.03 0.04 0.03 0.02 0.02 0.01 0.00 0.00 0.00 0.00 0.00 0.00 0.00 0.00 0.00 0.00 0.00 0.00 0.00 0.00 0.00 0.00 0.00 0.00 0.00 0.00 0.00 0.00 0.00
0.30 0.37 0.32 0.27 0.19 0.20 0.23 0.25 0.31 0.36 0.30 0.22 0.11 0.05 0.03 0.02 0.03 0.02 0.02 0.01 0.01 0.00 0.00 0.00 0.00 0.00 0.00 0.00 0.00 0.00 0.00 0.00 0.00 0.00 0.00 0.00 0.00 0.00 0.00 0.00 0.00 0.00 0.00 0.00
0.18 0.29 0.30 0.26 0.17 0.18 0.22 0.21 0.23 0.24 0.21 0.17 0.09 0.05 0.02 0.01 0.01 0.01 0.01 0.01 0.00 0.00 0.00 0.00 0.00 0.00 0.00 0.00 0.00 0.00 0.00 0.00 0.00 0.00 0.00 0.00 0.00 0.00 0.00 0.00 0.00 0.00 0.00 0.00
0.11 0.20 0.31 0.28 0.16 0.17 0.19 0.14 0.15 0.16 0.15 0.11 0.08 0.04 0.01 0.01 0.01 0.00 0.00 0.00 0.00 0.00 0.00 0.00 0.00 0.00 0.00 0.00 0.00 0.00 0.00 0.00 0.00 0.00 0.00 0.00 0.00 0.00 0.00 0.00 0.00 0.00 0.00 0.00
0.06 0.15 0.29 0.26 0.18 0.17 0.10 0.05 0.06 0.09 0.09 0.06 0.05 0.02 0.01 0.00 0.00 0.00 0.00 0.00 0.00 0.00 0.00 0.00 0.00 0.00 0.00 0.00 0.00 0.00 0.00 0.00 0.00 0.00 0.00 0.00 0.00 0.00 0.00 0.00 0.00 0.00 0.00 0.00
0.04 0.13 0.25 0.22 0.15 0.10 0.06 0.04 0.04 0.05 0.05 0.03 0.02 0.01 0.00 0.00 0.00 0.00 0.00 0.00 0.00 0.00 0.00 0.00 0.00 0.00 0.00 0.00 0.00 0.00 0.00 0.00 0.00 0.00 0.00 0.00 0.00 0.00 0.00 0.00 0.00 0.00 0.00 0.00
0.04 0.09 0.18 0.15 0.12 0.08 0.04 0.02 0.02 0.03 0.03 0.01 0.01 0.01 0.00 0.00 0.00 0.00 0.00 0.00 0.00 0.00 0.00 0.00 0.00 0.00 0.00 0.00 0.00 0.00 0.00 0.00 0.00 0.00 0.00 0.00 0.00 0.00 0.00 0.00 0.00 0.00 0.00 0.00
0.05 0.09 0.11 0.10 0.08 0.03 0.01 0.00 0.01 0.02 0.01 0.00 0.00 0.00 0.00 0.00 0.01 0.01 0.00 0.00 0.00 0.00 0.00 0.00 0.00 0.00 0.00 0.00 0.00 0.00 0.00 0.00 0.00 0.00 0.00 0.00 0.00 0.00 0.00 0.00 0.00 0.00 0.00 0.00
0.02 0.03 0.04 0.04 0.04 0.02 0.01 0.00 0.00 0.00 0.00 0.00 0.00 0.00 0.00 0.00 0.00 0.00 0.00 0.00 0.00 0.00 0.00 0.00 0.00 0.00 0.00 0.00 0.00 0.00 0.00 0.00 0.00 0.00 0.00 0.00 0.00 0.00 0.00 0.00 0.00 0.00 0.00 0.00
0.00 0.00 0.00 0.01 0.01 0.00 0.01 0.00 0.00 0.00 0.00 0.00 0.00 0.00 0.00 0.00 0.00 0.00 0.01 0.01 0.01 0.01 0.00 0.00 0.00 0.00 0.00 0.00 0.00 0.00 0.00 0.00 0.00 0.00 0.00 0.00 0.00 0.00 0.00 0.00 0.00 0.00 0.00 0.00
0.00 0.00 0.00 0.00 0.00 0.00 0.00 0.00 0.00 0.00 0.00 0.00 0.00 0.00 0.00 0.00 0.00 0.01 0.01 0.01 0.01 0.00 0.00 0.00 0.00 0.00 0.00 0.00 0.00 0.00 0.00 0.00 0.00 0.00 0.00 0.00 0.00 0.00 0.00 0.00 0.00 0.00 0.00 0.00
0.00 0.00 0.00 0.00 0.00 0.00 0.00 0.00 0.00 0.00 0.00 0.00 0.00 0.00 0.00 0.01 0.02 0.02 0.02 0.01 0.00 0.00 0.00 0.00 0.00 0.00 0.00 0.00 0.00 0.00 0.00 0.00 0.00 0.00 0.00 0.00 0.00 0.00 0.00 0.00 0.00 0.00 0.00 0.00
0.00 0.00 0.00 0.00 0.00 0.00 0.00 0.00 0.00 0.00 0.00 0.00 0.00 0.00 0.01 0.02 0.03 0.01 0.00 0.00 0.00 0.00 0.00 0.00 0.00 0.00 0.00 0.00 0.00 0.00 0.00 0.00 0.00 0.00 0.00 0.00 0.00 0.00 0.00 0.00 0.00 0.00 0.00 0.00

GEFSCGP_prec_meanprecacc_048.txt.gz
Total_Precipitation_Accumulation
0.51 0.67 0.47 0.19 0.11 0.07 0.06 0.06 0.03 0.01 0.00 0.01 0.00 0.00 0.00 0.00 0.00 0.00 0.00 0.00 0.00 0.00 0.00 0.00 0.00 0.00 0.00 0.00 0.00 0.00 0.00 0.00 0.00 0.01 0.02 0.06 0.08 0.10 0.10 0.10 0.09 0.07 0.05 0.02
0.60 0.55 0.29 0.14 0.13 0.12 0.12 0.11 0.06 0.02 0.01 0.02 0.01 0.00 0.00 0.00 0.00 0.00 0.00 0.00 0.00 0.00 0.00 0.00 0.00 0.00 0.00 0.00 0.00 0.00 0.00 0.00 0.00 0.02 0.04 0.08 0.11 0.11 0.11 0.11 0.09 0.07 0.05 0.03
0.43 0.32 0.26 0.27 0.23 0.20 0.17 0.15 0.10 0.05 0.04 0.04 0.03 0.01 0.00 0.00 0.00 0.00 0.00 0.00 0.00 0.00 0.00 0.00 0.00 0.00 0.00 0.00 0.00 0.00 0.00 0.00 0.00 0.01 0.03 0.05 0.08 0.08 0.07 0.07 0.06 0.05 0.03 0.02
0.36 0.29 0.38 0.44 0.33 0.24 0.20 0.12 0.13 0.11 0.11 0.08 0.05 0.03 0.00 0.00 0.00 0.00 0.00 0.00 0.00 0.00 0.00 0.00 0.00 0.00 0.00 0.00 0.00 0.00 0.00 0.00 0.00 0.01 0.03 0.06 0.08 0.08 0.07 0.06 0.05 0.03 0.02 0.01
0.38 0.33 0.46 0.55 0.34 0.24 0.19 0.12 0.18 0.20 0.19 0.17 0.09 0.06 0.01 0.00 0.00 0.00 0.00 0.00 0.00 0.00 0.00 0.00 0.00 0.00 0.00 0.00 0.00 0.00 0.00 0.00 0.00 0.01 0.02 0.05 0.07 0.07 0.06 0.03 0.03 0.02 0.01 0.00
0.27 0.34 0.48 0.50 0.34 0.27 0.25 0.30 0.35 0.39 0.45 0.40 0.12 0.07 0.02 0.00 0.00 0.00 0.00 0.00 0.00 0.00 0.00 0.00 0.00 0.00 0.00 0.00 0.00 0.00 0.00 0.00 0.00 0.01 0.02 0.03 0.06 0.06 0.04 0.03 0.02 0.01 0.01 0.00
0.34 0.45 0.49 0.55 0.59 0.50 0.50 0.73 0.84 0.75 0.68 0.36 0.07 0.05 0.02 0.00 0.00 0.00 0.00 0.00 0.00 0.00 0.00 0.00 0.00 0.00 0.00 0.00 0.00 0.00 0.00 0.00 0.00 0.01 0.01 0.03 0.06 0.06 0.05 0.03 0.02 0.01 0.01 0.01
0.37 0.45 0.45 0.57 0.73 0.67 0.53 0.69 0.71 0.55 0.35 0.14 0.06 0.04 0.01 0.00 0.00 0.00 0.00 0.00 0.00 0.00 0.00 0.00 0.00 0.00 0.00 0.00 0.00 0.00 0.00 0.00 0.00 0.00 0.01 0.02 0.03 0.03 0.02 0.02 0.01 0.01 0.01 0.01
0.25 0.33 0.36 0.45 0.57 0.60 0.56 0.51 0.41 0.49 0.36 0.22 0.10 0.03 0.01 0.00 0.01 0.01 0.00 0.00 0.00 0.00 0.00 0.00 0.00 0.00 0.00 0.00 0.00 0.00 0.00 0.00 0.00 0.00 0.00 0.00 0.01 0.01 0.01 0.01 0.00 0.00 0.00 0.00
0.24 0.37 0.40 0.48 0.63 0.63 0.54 0.47 0.54 0.73 0.54 0.34 0.12 0.03 0.02 0.02 0.02 0.02 0.01 0.00 0.00 0.00 0.00 0.00 0.00 0.00 0.00 0.00 0.00 0.00 0.00 0.00 0.00 0.00 0.00 0.00 0.00 0.00 0.00 0.00 0.00 0.00 0.00 0.00
0.25 0.45 0.52 0.57 0.63 0.50 0.46 0.54 0.60 0.59 0.42 0.41 0.22 0.06 0.02 0.02 0.04 0.04 0.02 0.01 0.00 0.00 0.00 0.00 0.00 0.00 0.00 0.00 0.00 0.00 0.00 0.00 0.00 0.00 0.00 0.00 0.00 0.00 0.00 0.00 0.00 0.00 0.00 0.00
0.21 0.42 0.56 0.45 0.36 0.34 0.39 0.38 0.46 0.60 0.44 0.33 0.25 0.08 0.02 0.03 0.05 0.06 0.05 0.02 0.01 0.00 0.00 0.00 0.00 0.00 0.00 0.00 0.00 0.00 0.00 0.00 0.00 0.00 0.00 0.00 0.00 0.00 0.00 0.00 0.00 0.00 0.00 0.00
0.21 0.39 0.55 0.44 0.37 0.39 0.38 0.29 0.35 0.51 0.61 0.43 0.30 0.11 0.04 0.05 0.08 0.09 0.07 0.04 0.02 0.01 0.00 0.00 0.00 0.00 0.00 0.00 0.00 0.00 0.00 0.00 0.00 0.00 0.00 0.00 0.00 0.00 0.00 0.00 0.00 0.00 0.00 0.00
0.32 0.38 0.43 0.40 0.32 0.36 0.34 0.28 0.35 0.60 0.68 0.35 0.17 0.10 0.07 0.10 0.11 0.11 0.09 0.07 0.04 0.02 0.01 0.00 0.00 0.00 0.00 0.00 0.00 0.00 0.00 0.00 0.00 0.00 0.00 0.00 0.00 0.00 0.00 0.00 0.00 0.00 0.00 0.00
0.33 0.40 0.33 0.27 0.20 0.22 0.26 0.29 0.36 0.48 0.41 0.30 0.15 0.10 0.10 0.11 0.13 0.11 0.07 0.06 0.05 0.02 0.01 0.01 0.00 0.00 0.00 0.00 0.00 0.00 0.00 0.00 0.00 0.00 0.00 0.00 0.00 0.00 0.00 0.00 0.00 0.00 0.00 0.00
0.21 0.33 0.33 0.28 0.18 0.21 0.27 0.25 0.28 0.31 0.28 0.24 0.15 0.10 0.07 0.09 0.11 0.09 0.05 0.05 0.04 0.02 0.02 0.01 0.00 0.00 0.00 0.00 0.00 0.00 0.00 0.00 0.00 0.00 0.00 0.00 0.00 0.00 0.00 0.00 0.00 0.00 0.00 0.00
0.13 0.23 0.35 0.30 0.18 0.21 0.26 0.18 0.20 0.23 0.21 0.17 0.15 0.09 0.04 0.05 0.05 0.03 0.03 0.03 0.02 0.02 0.01 0.01 0.01 0.00 0.00 0.00 0.00 0.00 0.00 0.00 0.00 0.00 0.00 0.00 0.00 0.00 0.00 0.00 0.00 0.00 0.00 0.00
0.09 0.17 0.34 0.29 0.21 0.22 0.14 0.09 0.12 0.16 0.15 0.11 0.09 0.05 0.02 0.01 0.01 0.01 0.02 0.02 0.01 0.01 0.01 0.01 0.00 0.00 0.00 0.00 0.00 0.00 0.00 0.00 0.00 0.00 0.00 0.00 0.00 0.00 0.00 0.00 0.00 0.00 0.00 0.00
0.05 0.15 0.31 0.27 0.19 0.12 0.10 0.10 0.11 0.13 0.11 0.07 0.04 0.02 0.01 0.01 0.01 0.01 0.01 0.01 0.01 0.00 0.00 0.00 0.00 0.00 0.00 0.00 0.00 0.00 0.00 0.00 0.00 0.00 0.00 0.00 0.00 0.00 0.00 0.00 0.00 0.00 0.00 0.00
0.06 0.11 0.23 0.20 0.18 0.13 0.10 0.07 0.06 0.10 0.10 0.04 0.02 0.01 0.01 0.01 0.01 0.01 0.01 0.01 0.01 0.00 0.00 0.00 0.00 0.00 0.00 0.00 0.00 0.00 0.00 0.00 0.00 0.00 0.00 0.00 0.00 0.00 0.00 0.00 0.00 0.00 0.00 0.00
0.07 0.12 0.15 0.14 0.13 0.07 0.05 0.03 0.03 0.06 0.06 0.02 0.01 0.01 0.01 0.01 0.01 0.01 0.01 0.01 0.00 0.00 0.00 0.00 0.00 0.00 0.00 0.00 0.00 0.00 0.00 0.00 0.00 0.00 0.00 0.00 0.00 0.00 0.00 0.00 0.00 0.00 0.00 0.00
0.02 0.05 0.05 0.05 0.06 0.04 0.03 0.02 0.02 0.02 0.01 0.01 0.01 0.01 0.00 0.01 0.01 0.01 0.01 0.01 0.00 0.00 0.00 0.00 0.00 0.00 0.00 0.00 0.00 0.00 0.00 0.00 0.00 0.00 0.00 0.00 0.00 0.00 0.00 0.00 0.00 0.00 0.00 0.00
0.00 0.01 0.01 0.01 0.01 0.01 0.02 0.02 0.00 0.00 0.00 0.00 0.00 0.00 0.00 0.00 0.01 0.01 0.01 0.01 0.01 0.01 0.00 0.00 0.00 0.00 0.00 0.00 0.00 0.00 0.00 0.00 0.00 0.00 0.00 0.00 0.00 0.00 0.00 0.00 0.00 0.00 0.00 0.00
0.00 0.00 0.01 0.00 0.00 0.00 0.01 0.01 0.01 0.00 0.00 0.00 0.00 0.00 0.00 0.00 0.01 0.01 0.02 0.02 0.01 0.00 0.00 0.00 0.00 0.00 0.00 0.00 0.00 0.00 0.00 0.00 0.00 0.00 0.00 0.00 0.00 0.00 0.00 0.00 0.00 0.00 0.00 0.00
0.01 0.00 0.00 0.00 0.00 0.00 0.00 0.00 0.00 0.00 0.00 0.00 0.00 0.00 0.00 0.01 0.02 0.03 0.02 0.01 0.00 0.00 0.00 0.00 0.00 0.00 0.00 0.00 0.00 0.00 0.00 0.00 0.00 0.00 0.00 0.00 0.00 0.00 0.00 0.00 0.00 0.00 0.00 0.00
0.01 0.00 0.01 0.01 0.00 0.00 0.00 0.00 0.00 0.00 0.00 0.00 0.00 0.00 0.01 0.02 0.03 0.01 0.01 0.00 0.00 0.00 0.00 0.00 0.00 0.00 0.00 0.00 0.00 0.00 0.00 0.00 0.00 0.00 0.00 0.00 0.00 0.00 0.00 0.00 0.00 0.00 0.00 0.00

GEFSCGP_prec_meanprecacc_054.txt.gz
Total_Precipitation_Accumulation
0.54 0.70 0.48 0.20 0.11 0.07 0.06 0.06 0.03 0.01 0.00 0.01 0.00 0.00 0.00 0.00 0.00 0.00 0.00 0.00 0.00 0.00 0.00 0.00 0.00 0.00 0.00 0.00 0.00 0.00 0.01 0.01 0.00 0.01 0.03 0.07 0.09 0.11 0.12 0.12 0.12 0.09 0.07 0.05
0.62 0.56 0.29 0.14 0.13 0.13 0.12 0.11 0.06 0.02 0.01 0.02 0.01 0.00 0.00 0.00 0.00 0.00 0.00 0.00 0.00 0.00 0.00 0.00 0.00 0.00 0.00 0.00 0.00 0.00 0.00 0.01 0.00 0.02 0.04 0.09 0.12 0.12 0.13 0.12 0.11 0.09 0.08 0.07
0.44 0.32 0.26 0.27 0.24 0.21 0.17 0.15 0.10 0.05 0.04 0.04 0.03 0.01 0.00 0.00 0.00 0.00 0.00 0.00 0.00 0.00 0.00 0.00 0.00 0.00 0.00 0.00 0.00 0.00 0.00 0.01 0.01 0.01 0.03 0.06 0.08 0.09 0.08 0.08 0.08 0.08 0.08 0.07
0.37 0.29 0.38 0.44 0.33 0.24 0.20 0.12 0.13 0.11 0.11 0.08 0.05 0.03 0.00 0.00 0.00 0.00 0.00 0.00 0.00 0.00 0.00 0.00 0.00 0.00 0.00 0.00 0.00 0.00 0.00 0.01 0.01 0.01 0.03 0.06 0.08 0.08 0.07 0.07 0.07 0.06 0.05 0.04
0.39 0.33 0.46 0.55 0.34 0.24 0.19 0.12 0.18 0.20 0.19 0.17 0.09 0.06 0.01 0.00 0.00 0.00 0.00 0.00 0.00 0.00 0.00 0.00 0.00 0.00 0.00 0.00 0.00 0.00 0.00 0.01 0.01 0.01 0.02 0.05 0.07 0.08 0.06 0.04 0.04 0.04 0.03 0.02
0.27 0.34 0.48 0.50 0.34 0.27 0.25 0.30 0.35 0.39 0.45 0.40 0.12 0.07 0.02 0.00 0.00 0.00 0.00 0.00 0.00 0.00 0.00 0.00 0.00 0.00 0.00 0.00 0.00 0.00 0.00 0.00 0.01 0.01 0.02 0.04 0.06 0.06 0.05 0.03 0.03 0.03 0.03 0.02
0.35 0.45 0.49 0.55 0.59 0.50 0.50 0.73 0.84 0.75 0.69 0.36 0.07 0.05 0.02 0.00 0.00 0.00 0.00 0.00 0.00 0.00 0.00 0.00 0.00 0.00 0.00 0.00 0.00 0.00 0.00 0.00 0.01 0.01 0.02 0.03 0.06 0.07 0.05 0.03 0.03 0.02 0.03 0.03
0.37 0.45 0.45 0.57 0.73 0.68 0.54 0.69 0.71 0.55 0.35 0.14 0.06 0.04 0.01 0.00 0.00 0.00 0.00 0.00 0.00 0.00 0.00 0.00 0.00 0.00 0.00 0.00 0.00 0.00 0.00 0.00 0.01 0.01 0.01 0.02 0.03 0.04 0.03 0.02 0.02 0.02 0.02 0.03
0.26 0.34 0.36 0.45 0.57 0.60 0.56 0.51 0.41 0.49 0.36 0.22 0.10 0.03 0.01 0.00 0.01 0.01 0.00 0.00 0.00 0.00 0.00 0.00 0.00 0.00 0.00 0.00 0.00 0.00 0.00 0.01 0.01 0.01 0.01 0.01 0.01 0.01 0.02 0.02 0.02 0.02 0.02 0.02
0.24 0.37 0.40 0.48 0.63 0.63 0.55 0.47 0.54 0.74 0.55 0.34 0.12 0.03 0.02 0.02 0.02 0.02 0.01 0.00 0.00 0.00 0.00 0.00 0.00 0.00 0.00 0.00 0.00 0.00 0.00 0.01 0.01 0.01 0.01 0.00 0.00 0.00 0.01 0.01 0.01 0.01 0.01 0.01
0.26 0.45 0.52 0.57 0.64 0.51 0.46 0.54 0.61 0.60 0.42 0.41 0.22 0.06 0.02 0.02 0.04 0.04 0.03 0.01 0.00 0.00 0.00 0.00 0.00 0.00 0.00 0.00 0.00 0.00 0.00 0.00 0.00 0.01 0.00 0.00 0.00 0.00 0.00 0.01 0.01 0.00 0.00 0.00
0.22 0.43 0.56 0.45 0.36 0.34 0.39 0.38 0.47 0.62 0.45 0.33 0.25 0.08 0.02 0.03 0.05 0.07 0.06 0.03 0.01 0.01 0.00 0.00 0.00 0.01 0.01 0.01 0.01 0.01 0.01 0.00 0.00 0.00 0.00 0.00 0.00 0.00 0.00 0.00 0.01 0.00 0.00 0.00
0.22 0.40 0.55 0.45 0.37 0.39 0.38 0.30 0.36 0.53 0.64 0.45 0.31 0.11 0.04 0.06 0.09 0.10 0.09 0.05 0.03 0.02 0.02 0.02 0.01 0.02 0.03 0.03 0.02 0.01 0.01 0.00 0.00 0.01 0.01 0.01 0.01 0.00 0.00 0.00 0.00 0.00 0.00 0.00
0.33 0.38 0.43 0.41 0.33 0.36 0.35 0.28 0.35 0.64 0.73 0.37 0.18 0.10 0.08 0.10 0.13 0.12 0.11 0.08 0.06 0.03 0.02 0.02 0.02 0.03 0.03 0.03 0.02 0.01 0.01 0.01 0.01 0.01 0.01 0.01 0.01 0.01 0.00 0.00 0.00 0.00 0.00 0.00
0.35 0.41 0.33 0.28 0.20 0.22 0.26 0.29 0.38 0.52 0.44 0.34 0.16 0.10 0.11 0.13 0.15 0.15 0.11 0.09 0.07 0.04 0.02 0.02 0.02 0.03 0.04 0.02 0.01 0.01 0.01 0.01 0.01 0.01 0.02 0.01 0.01 0.01 0.00 0.00 0.00 0.00 0.00 0.00
0.22 0.34 0.33 0.28 0.18 0.21 0.27 0.26 0.29 0.33 0.31 0.28 0.19 0.12 0.08 0.11 0.15 0.13 0.08 0.07 0.06 0.04 0.03 0.02 0.02 0.02 0.02 0.01 0.01 0.01 0.02 0.02 0.02 0.02 0.02 0.02 0.01 0.00 0.00 0.00 0.00 0.00 0.00 0.00
0.15 0.25 0.37 0.31 0.18 0.22 0.26 0.18 0.22 0.25 0.24 0.23 0.22 0.14 0.07 0.07 0.08 0.06 0.06 0.05 0.04 0.04 0.04 0.04 0.03 0.03 0.02 0.02 0.02 0.01 0.02 0.02 0.02 0.03 0.02 0.01 0.01 0.01 0.00 0.00 0.00 0.00 0.00 0.00
0.10 0.20 0.38 0.31 0.21 0.22 0.14 0.10 0.13 0.18 0.17 0.15 0.15 0.10 0.05 0.04 0.04 0.04 0.05 0.03 0.03 0.03 0.04 0.05 0.05 0.05 0.05 0.04 0.03 0.03 0.03 0.03 0.03 0.03 0.02 0.01 0.01 0.01 0.01 0.00 0.00 0.00 0.00 0.00
0.06 0.19 0.37 0.29 0.20 0.13 0.11 0.12 0.15 0.17 0.16 0.11 0.08 0.05 0.04 0.03 0.04 0.04 0.03 0.03 0.02 0.02 0.03 0.03 0.03 0.03 0.03 0.04 0.04 0.04 0.04 0.04 0.04 0.03 0.02 0.02 0.01 0.01 0.01 0.01 0.00 0.00 0.00 0.00
0.08 0.15 0.29 0.24 0.21 0.14 0.11 0.08 0.09 0.15 0.17 0.08 0.06 0.04 0.03 0.03 0.04 0.04 0.02 0.02 0.02 0.03 0.03 0.04 0.04 0.05 0.05 0.05 0.06 0.06 0.06 0.05 0.04 0.03 0.03 0.02 0.01 0.01 0.01 0.00 0.00 0.00 0.00 0.00
0.09 0.16 0.21 0.18 0.16 0.07 0.06 0.04 0.05 0.12 0.13 0.05 0.04 0.03 0.03 0.02 0.02 0.02 0.03 0.03 0.02 0.02 0.03 0.03 0.04 0.05 0.06 0.07 0.08 0.08 0.07 0.05 0.04 0.03 0.02 0.01 0.01 0.01 0.00 0.00 0.00 0.00 0.00 0.00
0.03 0.06 0.06 0.07 0.08 0.05 0.04 0.03 0.04 0.04 0.02 0.02 0.02 0.02 0.02 0.03 0.03 0.03 0.04 0.04 0.03 0.04 0.04 0.04 0.03 0.04 0.04 0.04 0.05 0.06 0.04 0.03 0.02 0.02 0.01 0.01 0.01 0.00 0.00 0.00 0.00 0.00 0.00 0.00
0.01 0.02 0.02 0.02 0.01 0.02 0.03 0.03 0.01 0.01 0.01 0.01 0.01 0.01 0.01 0.03 0.04 0.04 0.04 0.03 0.02 0.03 0.03 0.02 0.02 0.03 0.03 0.04 0.04 0.05 0.03 0.02 0.01 0.01 0.01 0.00 0.00 0.00 0.00 0.00 0.00 0.00 0.00 0.00
0.01 0.01 0.01 0.01 0.01 0.01 0.01 0.01 0.01 0.00 0.00 0.00 0.00 0.01 0.01 0.03 0.03 0.04 0.05 0.04 0.04 0.03 0.02 0.01 0.01 0.02 0.02 0.02 0.01 0.01 0.01 0.00 0.00 0.00 0.01 0.00 0.00 0.00 0.00 0.00 0.00 0.00 0.00 0.00
0.01 0.01 0.01 0.01 0.01 0.01 0.01 0.00 0.00 0.00 0.00 0.00 0.00 0.00 0.01 0.03 0.04 0.06 0.06 0.05 0.05 0.05 0.03 0.02 0.01 0.01 0.02 0.01 0.01 0.00 0.00 0.00 0.01 0.00 0.00 0.00 0.00 0.00 0.00 0.00 0.00 0.00 0.00 0.00
0.02 0.01 0.01 0.01 0.00 0.01 0.00 0.00 0.00 0.00 0.00 0.00 0.00 0.00 0.01 0.03 0.03 0.03 0.02 0.02 0.03 0.03 0.02 0.02 0.01 0.01 0.01 0.01 0.01 0.01 0.01 0.01 0.01 0.00 0.00 0.00 0.00 0.00 0.00 0.00 0.00 0.00 0.00 0.00

GEFSCGP_prec_meanprecacc_060.txt.gz
Total_Precipitation_Accumulation
0.59 0.75 0.53 0.21 0.12 0.08 0.07 0.06 0.03 0.01 0.00 0.01 0.00 0.00 0.00 0.00 0.00 0.00 0.00 0.00 0.00 0.00 0.00 0.00 0.00 0.00 0.00 0.00 0.00 0.00 0.02 0.03 0.06 0.08 0.09 0.13 0.15 0.17 0.16 0.15 0.15 0.13 0.09 0.06
0.67 0.59 0.31 0.16 0.14 0.13 0.12 0.11 0.06 0.02 0.01 0.02 0.01 0.00 0.00 0.00 0.00 0.00 0.00 0.00 0.00 0.00 0.00 0.00 0.00 0.00 0.00 0.00 0.00 0.00 0.01 0.02 0.03 0.05 0.09 0.18 0.24 0.24 0.23 0.19 0.16 0.13 0.11 0.09
0.47 0.34 0.27 0.29 0.26 0.22 0.18 0.16 0.10 0.05 0.04 0.04 0.03 0.01 0.00 0.00 0.00 0.00 0.00 0.00 0.00 0.00 0.00 0.00 0.00 0.00 0.00 0.00 0.00 0.00 0.00 0.02 0.04 0.05 0.11 0.16 0.19 0.18 0.15 0.12 0.11 0.11 0.12 0.11
0.39 0.30 0.39 0.45 0.35 0.25 0.20 0.12 0.13 0.11 0.11 0.08 0.05 0.03 0.00 0.00 0.00 0.00 0.00 0.00 0.00 0.00 0.00 0.00 0.00 0.00 0.00 0.00 0.00 0.00 0.01 0.03 0.04 0.05 0.08 0.11 0.12 0.11 0.10 0.11 0.11 0.13 0.12 0.10
0.41 0.34 0.47 0.56 0.35 0.24 0.19 0.12 0.18 0.20 0.19 0.17 0.09 0.06 0.01 0.00 0.00 0.00 0.00 0.00 0.00 0.00 0.00 0.00 0.00 0.00 0.00 0.00 0.00 0.00 0.01 0.03 0.04 0.05 0.06 0.10 0.11 0.12 0.12 0.10 0.10 0.10 0.09 0.08
0.28 0.35 0.48 0.50 0.34 0.28 0.25 0.30 0.35 0.39 0.45 0.40 0.12 0.07 0.02 0.00 0.00 0.00 0.00 0.00 0.00 0.00 0.00 0.00 0.00 0.00 0.00 0.00 0.00 0.00 0.01 0.02 0.03 0.04 0.06 0.08 0.09 0.09 0.08 0.07 0.07 0.07 0.08 0.07
0.36 0.46 0.49 0.55 0.59 0.50 0.50 0.73 0.84 0.75 0.69 0.36 0.07 0.05 0.02 0.00 0.00 0.00 0.00 0.00 0.00 0.00 0.00 0.00 0.00 0.00 0.00 0.00 0.00 0.00 0.00 0.01 0.02 0.03 0.04 0.06 0.09 0.10 0.09 0.08 0.08 0.08 0.08 0.08
0.39 0.47 0.45 0.58 0.73 0.68 0.54 0.69 0.71 0.56 0.35 0.14 0.06 0.04 0.01 0.00 0.00 0.00 0.00 0.00 0.00 0.00 0.00 0.00 0.00 0.00 0.00 0.00 0.00 0.00 0.00 0.01 0.02 0.03 0.03 0.04 0.06 0.07 0.07 0.07 0.07 0.08 0.09 0.11
0.26 0.34 0.36 0.45 0.57 0.60 0.56 0.51 0.41 0.49 0.36 0.22 0.10 0.03 0.01 0.00 0.01 0.01 0.00 0.00 0.00 0.00 0.00 0.00 0.00 0.00 0.00 0.00 0.00 0.00 0.00 0.01 0.02 0.02 0.03 0.03 0.03 0.04 0.05 0.06 0.07 0.08 0.08 0.08
0.24 0.38 0.41 0.48 0.64 0.63 0.55 0.47 0.54 0.74 0.55 0.34 0.12 0.03 0.02 0.02 0.02 0.02 0.01 0.00 0.00 0.00 0.00 0.00 0.00 0.00 0.00 0.00 0.00 0.00 0.01 0.01 0.02 0.02 0.02 0.02 0.02 0.03 0.04 0.05 0.05 0.05 0.05 0.05
0.26 0.46 0.53 0.57 0.64 0.51 0.46 0.54 0.61 0.60 0.42 0.41 0.22 0.06 0.02 0.02 0.04 0.04 0.03 0.01 0.00 0.00 0.00 0.00 0.00 0.00 0.00 0.00 0.01 0.01 0.01 0.01 0.01 0.02 0.02 0.02 0.02 0.03 0.04 0.04 0.04 0.04 0.04 0.03
0.22 0.43 0.57 0.45 0.36 0.34 0.39 0.38 0.47 0.62 0.45 0.33 0.25 0.08 0.02 0.03 0.05 0.07 0.06 0.03 0.01 0.01 0.00 0.00 0.00 0.01 0.01 0.02 0.02 0.02 0.02 0.02 0.02 0.02 0.02 0.02 0.03 0.03 0.03 0.03 0.04 0.03 0.03 0.03
0.22 0.40 0.56 0.45 0.38 0.39 0.38 0.30 0.36 0.53 0.65 0.45 0.31 0.11 0.04 0.06 0.09 0.10 0.09 0.05 0.03 0.02 0.02 0.02 0.02 0.02 0.03 0.04 0.04 0.03 0.03 0.02 0.03 0.03 0.03 0.03 0.03 0.03 0.03 0.03 0.03 0.02 0.02 0.02
0.33 0.38 0.43 0.41 0.33 0.36 0.35 0.28 0.35 0.64 0.74 0.37 0.18 0.10 0.08 0.10 0.13 0.12 0.11 0.09 0.06 0.04 0.03 0.02 0.02 0.04 0.06 0.06 0.05 0.04 0.05 0.05 0.05 0.05 0.04 0.04 0.04 0.04 0.03 0.03 0.03 0.02 0.02 0.02
0.35 0.41 0.34 0.28 0.20 0.22 0.26 0.29 0.38 0.52 0.44 0.35 0.16 0.10 0.11 0.13 0.16 0.15 0.11 0.09 0.07 0.05 0.03 0.03 0.03 0.04 0.07 0.08 0.07 0.07 0.07 0.07 0.06 0.07 0.06 0.04 0.04 0.04 0.03 0.03 0.03 0.02 0.02 0.02
0.23 0.34 0.33 0.28 0.18 0.21 0.27 0.26 0.29 0.33 0.31 0.29 0.19 0.13 0.08 0.11 0.15 0.13 0.09 0.07 0.07 0.05 0.03 0.03 0.03 0.04 0.05 0.06 0.07 0.08 0.08 0.08 0.08 0.08 0.06 0.05 0.04 0.03 0.03 0.03 0.03 0.03 0.03 0.03
0.15 0.25 0.37 0.31 0.18 0.22 0.26 0.18 0.22 0.25 0.25 0.23 0.22 0.14 0.07 0.08 0.08 0.07 0.06 0.06 0.05 0.04 0.04 0.05 0.04 0.05 0.06 0.06 0.06 0.06 0.06 0.06 0.07 0.09 0.08 0.06 0.05 0.04 0.04 0.04 0.05 0.06 0.06 0.05
0.11 0.20 0.39 0.32 0.21 0.22 0.14 0.10 0.13 0.18 0.18 0.15 0.15 0.10 0.06 0.05 0.04 0.05 0.05 0.04 0.03 0.04 0.04 0.05 0.05 0.06 0.06 0.07 0.06 0.05 0.05 0.07 0.08 0.09 0.09 0.08 0.08 0.08 0.08 0.09 0.10 0.09 0.08 0.06
0.07 0.20 0.39 0.31 0.20 0.13 0.11 0.12 0.15 0.18 0.16 0.11 0.09 0.06 0.04 0.04 0.04 0.05 0.04 0.03 0.02 0.03 0.04 0.04 0.04 0.04 0.05 0.06 0.07 0.07 0.09 0.11 0.11 0.14 0.16 0.15 0.15 0.16 0.15 0.15 0.13 0.11 0.09 0.07
0.08 0.16 0.32 0.27 0.22 0.14 0.11 0.08 0.09 0.15 0.18 0.09 0.07 0.05 0.04 0.03 0.05 0.05 0.03 0.03 0.03 0.03 0.04 0.05 0.05 0.06 0.07 0.10 0.12 0.12 0.14 0.15 0.16 0.19 0.23 0.21 0.19 0.20 0.18 0.13 0.10 0.07 0.05 0.04
0.11 0.19 0.24 0.21 0.18 0.07 0.06 0.04 0.06 0.13 0.15 0.07 0.05 0.04 0.04 0.02 0.03 0.03 0.03 0.03 0.02 0.03 0.04 0.05 0.07 0.09 0.12 0.16 0.18 0.20 0.21 0.22 0.21 0.21 0.23 0.20 0.17 0.16 0.13 0.10 0.07 0.06 0.04 0.03
0.04 0.07 0.07 0.08 0.10 0.05 0.04 0.04 0.05 0.05 0.04 0.03 0.02 0.02 0.02 0.04 0.03 0.03 0.05 0.05 0.03 0.06 0.06 0.06 0.08 0.11 0.12 0.17 0.21 0.22 0.21 0.20 0.19 0.17 0.17 0.15 0.13 0.11 0.09 0.07 0.06 0.04 0.03 0.02
0.01 0.02 0.02 0.02 0.02 0.02 0.04 0.04 0.02 0.02 0.02 0.02 0.02 0.02 0.01 0.04 0.05 0.05 0.05 0.04 0.04 0.05 0.06 0.07 0.08 0.09 0.10 0.13 0.17 0.20 0.20 0.18 0.16 0.15 0.14 0.12 0.10 0.08 0.06 0.05 0.03 0.02 0.02 0.01
0.01 0.01 0.02 0.02 0.01 0.02 0.03 0.03 0.03 0.02 0.01 0.01 0.00 0.01 0.01 0.03 0.04 0.06 0.06 0.05 0.04 0.04 0.04 0.05 0.06 0.08 0.10 0.11 0.12 0.15 0.14 0.12 0.11 0.11 0.10 0.08 0.07 0.05 0.03 0.02 0.01 0.01 0.00 0.00
0.03 0.02 0.02 0.01 0.01 0.02 0.02 0.02 0.01 0.01 0.00 0.00 0.00 0.00 0.01 0.03 0.05 0.07 0.07 0.07 0.07 0.07 0.05 0.05 0.04 0.05 0.06 0.06 0.06 0.06 0.07 0.06 0.06 0.05 0.04 0.03 0.02 0.02 0.01 0.01 0.00 0.00 0.00 0.00
0.02 0.02 0.02 0.02 0.01 0.01 0.01 0.01 0.00 0.00 0.00 0.00 0.00 0.00 0.01 0.03 0.04 0.04 0.04 0.06 0.08 0.07 0.07 0.06 0.04 0.04 0.04 0.04 0.03 0.03 0.03 0.03 0.02 0.02 0.01 0.01 0.01 0.00 0.00 0.00 0.00 0.00 0.00 0.00

GEFSCGP_prec_meanprecacc_066.txt.gz
Total_Precipitation_Accumulation
0.69 0.84 0.59 0.24 0.14 0.09 0.07 0.06 0.03 0.01 0.00 0.01 0.00 0.00 0.00 0.00 0.00 0.00 0.00 0.00 0.00 0.00 0.00 0.00 0.00 0.00 0.00 0.00 0.00 0.01 0.02 0.04 0.08 0.11 0.11 0.15 0.17 0.20 0.20 0.19 0.19 0.17 0.13 0.09
0.76 0.66 0.35 0.18 0.17 0.15 0.13 0.12 0.06 0.02 0.01 0.02 0.01 0.00 0.00 0.00 0.00 0.00 0.00 0.00 0.00 0.00 0.00 0.00 0.00 0.00 0.00 0.00 0.00 0.00 0.01 0.02 0.05 0.06 0.10 0.20 0.27 0.28 0.28 0.27 0.22 0.18 0.17 0.14
0.52 0.37 0.31 0.33 0.30 0.26 0.20 0.16 0.10 0.05 0.04 0.04 0.03 0.01 0.00 0.00 0.00 0.00 0.00 0.00 0.00 0.00 0.00 0.00 0.00 0.00 0.00 0.00 0.00 0.00 0.00 0.02 0.04 0.07 0.14 0.19 0.23 0.21 0.18 0.15 0.14 0.16 0.19 0.18
0.44 0.33 0.42 0.50 0.40 0.30 0.23 0.13 0.14 0.12 0.11 0.08 0.05 0.03 0.00 0.00 0.00 0.00 0.00 0.00 0.00 0.00 0.00 0.00 0.00 0.00 0.00 0.00 0.00 0.00 0.01 0.03 0.04 0.07 0.09 0.12 0.13 0.12 0.11 0.13 0.15 0.20 0.21 0.20
0.45 0.37 0.50 0.60 0.40 0.29 0.22 0.13 0.19 0.21 0.19 0.17 0.09 0.06 0.01 0.00 0.00 0.00 0.00 0.00 0.00 0.00 0.00 0.00 0.00 0.00 0.00 0.00 0.00 0.00 0.01 0.03 0.04 0.05 0.07 0.11 0.12 0.13 0.13 0.13 0.15 0.16 0.17 0.17
0.31 0.37 0.51 0.53 0.38 0.31 0.27 0.31 0.36 0.39 0.45 0.40 0.12 0.07 0.02 0.00 0.00 0.00 0.00 0.00 0.00 0.00 0.00 0.00 0.00 0.00 0.00 0.00 0.00 0.00 0.01 0.02 0.03 0.04 0.06 0.08 0.10 0.11 0.10 0.09 0.11 0.12 0.16 0.17
0.41 0.49 0.51 0.57 0.62 0.53 0.52 0.75 0.85 0.76 0.69 0.36 0.07 0.05 0.02 0.00 0.00 0.00 0.00 0.00 0.00 0.00 0.00 0.00 0.00 0.00 0.00 0.00 0.00 0.00 0.00 0.01 0.02 0.03 0.05 0.07 0.10 0.12 0.11 0.11 0.12 0.13 0.13 0.14
0.44 0.52 0.47 0.58 0.75 0.70 0.55 0.70 0.72 0.56 0.35 0.14 0.06 0.04 0.01 0.00 0.00 0.00 0.00 0.00 0.00 0.00 0.00 0.00 0.00 0.00 0.00 0.00 0.00 0.00 0.00 0.01 0.02 0.03 0.03 0.04 0.06 0.08 0.09 0.10 0.10 0.12 0.14 0.18
0.27 0.36 0.37 0.45 0.58 0.61 0.57 0.52 0.41 0.49 0.36 0.22 0.10 0.03 0.01 0.00 0.01 0.01 0.00 0.00 0.00 0.00 0.00 0.00 0.00 0.00 0.00 0.00 0.00 0.00 0.00 0.01 0.02 0.03 0.03 0.03 0.03 0.05 0.07 0.09 0.11 0.13 0.14 0.15
0.25 0.39 0.41 0.49 0.64 0.63 0.55 0.47 0.55 0.74 0.55 0.34 0.12 0.03 0.02 0.02 0.02 0.02 0.01 0.00 0.00 0.00 0.00 0.00 0.00 0.00 0.00 0.00 0.00 0.00 0.01 0.01 0.02 0.02 0.02 0.03 0.03 0.05 0.06 0.07 0.08 0.09 0.10 0.11
0.26 0.46 0.54 0.58 0.64 0.51 0.46 0.54 0.61 0.60 0.42 0.41 0.22 0.06 0.02 0.02 0.04 0.04 0.03 0.01 0.00 0.00 0.00 0.00 0.00 0.00 0.00 0.00 0.01 0.01 0.01 0.01 0.01 0.02 0.02 0.02 0.03 0.04 0.05 0.06 0.07 0.08 0.08 0.08
0.22 0.43 0.57 0.46 0.36 0.34 0.39 0.38 0.47 0.62 0.45 0.33 0.25 0.08 0.02 0.03 0.05 0.07 0.06 0.03 0.01 0.01 0.00 0.00 0.00 0.01 0.01 0.02 0.02 0.02 0.02 0.02 0.02 0.02 0.02 0.03 0.03 0.04 0.04 0.05 0.06 0.06 0.06 0.06
0.22 0.40 0.56 0.46 0.38 0.39 0.39 0.30 0.36 0.53 0.65 0.45 0.31 0.11 0.04 0.06 0.09 0.10 0.09 0.05 0.03 0.02 0.02 0.02 0.02 0.02 0.03 0.04 0.04 0.03 0.03 0.02 0.03 0.03 0.03 0.04 0.04 0.04 0.05 0.05 0.05 0.05 0.05 0.05
0.33 0.38 0.43 0.42 0.33 0.36 0.35 0.28 0.35 0.64 0.74 0.37 0.18 0.10 0.08 0.10 0.13 0.13 0.11 0.09 0.06 0.04 0.03 0.02 0.02 0.04 0.06 0.06 0.05 0.05 0.05 0.05 0.05 0.06 0.06 0.05 0.05 0.06 0.06 0.05 0.05 0.04 0.04 0.04
0.35 0.41 0.34 0.28 0.20 0.22 0.26 0.29 0.38 0.52 0.44 0.35 0.16 0.10 0.11 0.13 0.16 0.15 0.11 0.09 0.07 0.05 0.03 0.03 0.03 0.04 0.07 0.08 0.08 0.07 0.08 0.08 0.09 0.09 0.09 0.08 0.07 0.07 0.07 0.07 0.06 0.05 0.04 0.04
0.23 0.35 0.33 0.28 0.18 0.21 0.27 0.26 0.29 0.33 0.31 0.29 0.19 0.13 0.08 0.11 0.15 0.13 0.09 0.07 0.07 0.05 0.03 0.03 0.03 0.04 0.05 0.06 0.07 0.08 0.09 0.10 0.11 0.12 0.11 0.10 0.09 0.08 0.08 0.08 0.07 0.06 0.06 0.05
0.16 0.26 0.37 0.31 0.18 0.22 0.26 0.18 0.22 0.25 0.25 0.23 0.23 0.14 0.07 0.08 0.08 0.07 0.07 0.06 0.05 0.04 0.04 0.05 0.04 0.05 0.06 0.06 0.06 0.07 0.07 0.07 0.10 0.13 0.13 0.12 0.10 0.11 0.11 0.09 0.09 0.11 0.12 0.12
0.11 0.21 0.39 0.32 0.21 0.22 0.14 0.10 0.13 0.18 0.18 0.15 0.15 0.10 0.06 0.05 0.04 0.05 0.05 0.04 0.03 0.04 0.04 0.05 0.05 0.06 0.06 0.07 0.07 0.06 0.06 0.08 0.10 0.12 0.13 0.13 0.14 0.15 0.15 0.16 0.17 0.17 0.17 0.18
0.07 0.20 0.39 0.31 0.21 0.13 0.11 0.12 0.15 0.18 0.16 0.11 0.09 0.06 0.04 0.04 0.04 0.05 0.04 0.03 0.02 0.03 0.04 0.04 0.04 0.04 0.05 0.06 0.07 0.08 0.10 0.12 0.13 0.17 0.20 0.20 0.22 0.23 0.23 0.24 0.26 0.26 0.25 0.22
0.09 0.17 0.34 0.29 0.22 0.14 0.11 0.08 0.09 0.15 0.19 0.09 0.07 0.05 0.04 0.04 0.05 0.05 0.03 0.03 0.03 0.03 0.04 0.05 0.05 0.06 0.07 0.10 0.12 0.13 0.15 0.17 0.19 0.22 0.27 0.26 0.27 0.30 0.30 0.28 0.27 0.24 0.22 0.21
0.13 0.21 0.27 0.23 0.19 0.07 0.06 0.04 0.06 0.14 0.17 0.08 0.05 0.05 0.04 0.03 0.03 0.03 0.04 0.03 0.02 0.03 0.04 0.05 0.07 0.09 0.12 0.16 0.18 0.20 0.23 0.24 0.24 0.25 0.27 0.25 0.24 0.25 0.24 0.24 0.22 0.19 0.17 0.15
0.04 0.08 0.08 0.09 0.11 0.05 0.04 0.04 0.06 0.06 0.04 0.03 0.03 0.02 0.03 0.04 0.03 0.03 0.05 0.05 0.04 0.06 0.06 0.06 0.08 0.11 0.12 0.17 0.21 0.23 0.22 0.22 0.21 0.20 0.21 0.21 0.20 0.19 0.17 0.17 0.16 0.14 0.11 0.09
0.01 0.02 0.02 0.02 0.02 0.02 0.04 0.04 0.03 0.03 0.03 0.02 0.02 0.02 0.02 0.04 0.05 0.05 0.06 0.05 0.04 0.05 0.06 0.07 0.08 0.09 0.10 0.14 0.18 0.21 0.22 0.20 0.18 0.17 0.17 0.16 0.14 0.13 0.11 0.10 0.09 0.07 0.05 0.03
0.02 0.01 0.02 0.02 0.02 0.02 0.03 0.04 0.03 0.03 0.03 0.02 0.01 0.01 0.01 0.03 0.04 0.06 0.06 0.05 0.05 0.05 0.04 0.05 0.06 0.08 0.10 0.12 0.13 0.16 0.16 0.14 0.13 0.13 0.12 0.11 0.09 0.07 0.05 0.04 0.03 0.03 0.02 0.01
0.04 0.03 0.03 0.02 0.01 0.02 0.02 0.02 0.02 0.02 0.02 0.01 0.01 0.00 0.01 0.03 0.05 0.07 0.07 0.08 0.07 0.07 0.05 0.05 0.05 0.05 0.07 0.06 0.07 0.07 0.07 0.07 0.07 0.07 0.06 0.05 0.04 0.03 0.03 0.02 0.01 0.01 0.00 0.00
0.03 0.03 0.03 0.03 0.02 0.02 0.02 0.01 0.01 0.01 0.01 0.01 0.01 0.00 0.01 0.04 0.04 0.04 0.04 0.06 0.08 0.08 0.07 0.06 0.04 0.04 0.04 0.04 0.04 0.04 0.04 0.03 0.03 0.03 0.02 0.02 0.01 0.01 0.01 0.00 0.00 0.00 0.00 0.00

GEFSCGP_prec_meanprecacc_072.txt.gz
Total_Precipitation_Accumulation
0.88 1.02 0.70 0.29 0.16 0.09 0.07 0.06 0.04 0.01 0.00 0.01 0.00 0.00 0.00 0.00 0.00 0.00 0.00 0.00 0.00 0.00 0.00 0.00 0.00 0.00 0.00 0.00 0.00 0.01 0.02 0.04 0.09 0.11 0.11 0.15 0.17 0.21 0.21 0.20 0.21 0.19 0.14 0.10
0.92 0.79 0.42 0.22 0.20 0.17 0.14 0.12 0.07 0.03 0.01 0.02 0.01 0.00 0.00 0.00 0.00 0.00 0.00 0.00 0.00 0.00 0.00 0.00 0.00 0.00 0.00 0.00 0.00 0.00 0.01 0.02 0.05 0.06 0.11 0.20 0.28 0.29 0.29 0.28 0.23 0.20 0.18 0.16
0.66 0.47 0.38 0.40 0.35 0.29 0.22 0.17 0.11 0.06 0.05 0.04 0.03 0.01 0.00 0.00 0.00 0.00 0.00 0.00 0.00 0.00 0.00 0.00 0.00 0.00 0.00 0.00 0.00 0.00 0.00 0.02 0.04 0.07 0.14 0.19 0.24 0.21 0.18 0.15 0.14 0.16 0.20 0.20
0.54 0.41 0.50 0.59 0.47 0.34 0.27 0.15 0.14 0.12 0.12 0.09 0.05 0.03 0.00 0.00 0.00 0.00 0.00 0.00 0.00 0.00 0.00 0.00 0.00 0.00 0.00 0.00 0.00 0.00 0.01 0.03 0.04 0.07 0.10 0.12 0.14 0.13 0.11 0.13 0.15 0.20 0.22 0.22
0.54 0.43 0.57 0.69 0.48 0.34 0.26 0.16 0.20 0.22 0.20 0.17 0.09 0.06 0.01 0.00 0.00 0.00 0.00 0.00 0.00 0.00 0.00 0.00 0.00 0.00 0.00 0.00 0.00 0.00 0.01 0.03 0.04 0.05 0.07 0.11 0.13 0.13 0.13 0.13 0.15 0.16 0.18 0.19
0.38 0.43 0.57 0.60 0.45 0.39 0.33 0.35 0.39 0.42 0.47 0.41 0.12 0.07 0.02 0.00 0.00 0.00 0.00 0.00 0.00 0.00 0.00 0.00 0.00 0.00 0.00 0.00 0.00 0.00 0.01 0.02 0.03 0.04 0.06 0.08 0.10 0.11 0.11 0.09 0.11 0.12 0.16 0.18
0.52 0.56 0.57 0.63 0.70 0.61 0.59 0.80 0.91 0.81 0.72 0.37 0.07 0.06 0.03 0.00 0.00 0.00 0.00 0.00 0.00 0.00 0.00 0.00 0.00 0.00 0.00 0.00 0.00 0.00 0.00 0.01 0.02 0.03 0.05 0.07 0.10 0.12 0.11 0.11 0.12 0.13 0.14 0.15
0.53 0.61 0.53 0.63 0.80 0.76 0.61 0.74 0.74 0.58 0.36 0.14 0.06 0.04 0.01 0.00 0.00 0.00 0.00 0.00 0.00 0.00 0.00 0.00 0.00 0.00 0.00 0.00 0.00 0.00 0.00 0.01 0.02 0.03 0.03 0.04 0.06 0.08 0.09 0.11 0.11 0.12 0.15 0.20
0.31 0.42 0.41 0.48 0.60 0.63 0.60 0.55 0.42 0.50 0.36 0.22 0.10 0.03 0.01 0.00 0.01 0.01 0.00 0.00 0.00 0.00 0.00 0.00 0.00 0.00 0.00 0.00 0.00 0.00 0.00 0.01 0.02 0.03 0.03 0.03 0.03 0.05 0.07 0.09 0.11 0.13 0.15 0.17
0.27 0.43 0.46 0.51 0.66 0.66 0.57 0.49 0.55 0.74 0.55 0.34 0.12 0.03 0.02 0.02 0.02 0.02 0.01 0.00 0.00 0.00 0.00 0.00 0.00 0.00 0.00 0.00 0.00 0.00 0.01 0.01 0.02 0.02 0.02 0.03 0.03 0.05 0.06 0.07 0.08 0.09 0.11 0.12
0.28 0.49 0.58 0.61 0.67 0.53 0.47 0.55 0.62 0.60 0.42 0.41 0.22 0.06 0.02 0.02 0.04 0.04 0.03 0.01 0.00 0.00 0.00 0.00 0.00 0.00 0.00 0.00 0.01 0.01 0.01 0.01 0.01 0.02 0.02 0.02 0.03 0.04 0.05 0.06 0.07 0.08 0.08 0.08
0.24 0.45 0.60 0.49 0.37 0.35 0.39 0.38 0.47 0.62 0.45 0.33 0.25 0.08 0.02 0.03 0.05 0.07 0.06 0.03 0.01 0.01 0.00 0.00 0.00 0.01 0.01 0.02 0.02 0.02 0.02 0.02 0.02 0.02 0.02 0.03 0.03 0.04 0.04 0.05 0.06 0.06 0.06 0.07
0.23 0.41 0.58 0.49 0.40 0.40 0.39 0.30 0.36 0.53 0.65 0.45 0.31 0.11 0.04 0.06 0.09 0.10 0.09 0.05 0.03 0.02 0.02 0.02 0.02 0.02 0.03 0.04 0.04 0.03 0.03 0.02 0.03 0.03 0.03 0.04 0.04 0.05 0.05 0.05 0.05 0.05 0.05 0.05
0.34 0.38 0.44 0.42 0.34 0.37 0.35 0.28 0.35 0.64 0.74 0.37 0.18 0.10 0.08 0.10 0.13 0.13 0.11 0.09 0.06 0.04 0.03 0.02 0.02 0.04 0.06 0.06 0.05 0.05 0.05 0.05 0.06 0.06 0.06 0.05 0.05 0.06 0.06 0.05 0.05 0.05 0.04 0.05
0.35 0.41 0.34 0.28 0.20 0.22 0.26 0.29 0.38 0.52 0.44 0.35 0.16 0.10 0.11 0.13 0.16 0.15 0.11 0.09 0.07 0.05 0.03 0.03 0.03 0.04 0.07 0.08 0.08 0.07 0.08 0.08 0.09 0.10 0.10 0.08 0.07 0.07 0.07 0.07 0.06 0.05 0.05 0.06
0.23 0.35 0.33 0.28 0.18 0.21 0.27 0.26 0.29 0.33 0.31 0.29 0.19 0.13 0.08 0.11 0.15 0.13 0.09 0.07 0.07 0.05 0.03 0.03 0.03 0.04 0.05 0.06 0.07 0.08 0.09 0.10 0.11 0.12 0.11 0.11 0.09 0.09 0.09 0.09 0.09 0.08 0.08 0.09
0.16 0.26 0.38 0.31 0.18 0.22 0.26 0.18 0.22 0.25 0.25 0.23 0.23 0.14 0.07 0.08 0.08 0.07 0.07 0.06 0.05 0.04 0.04 0.05 0.04 0.05 0.06 0.06 0.06 0.07 0.07 0.07 0.10 0.13 0.13 0.12 0.11 0.12 0.13 0.12 0.13 0.15 0.18 0.19
0.11 0.21 0.39 0.32 0.21 0.22 0.14 0.10 0.13 0.19 0.18 0.16 0.16 0.10 0.06 0.05 0.04 0.05 0.05 0.04 0.03 0.04 0.04 0.05 0.05 0.06 0.06 0.07 0.07 0.06 0.06 0.08 0.10 0.12 0.13 0.13 0.14 0.16 0.17 0.19 0.21 0.23 0.25 0.27
0.07 0.20 0.40 0.32 0.21 0.13 0.11 0.12 0.15 0.18 0.16 0.11 0.09 0.06 0.04 0.04 0.04 0.05 0.04 0.03 0.02 0.03 0.04 0.04 0.04 0.04 0.05 0.06 0.07 0.08 0.10 0.12 0.13 0.17 0.21 0.21 0.23 0.24 0.26 0.29 0.30 0.31 0.32 0.31
0.09 0.17 0.35 0.29 0.23 0.14 0.11 0.09 0.09 0.16 0.20 0.10 0.07 0.05 0.04 0.04 0.05 0.05 0.03 0.03 0.03 0.03 0.04 0.05 0.05 0.06 0.07 0.10 0.12 0.13 0.15 0.17 0.19 0.22 0.28 0.27 0.29 0.32 0.33 0.33 0.32 0.29 0.28 0.29
0.14 0.22 0.28 0.24 0.20 0.07 0.06 0.04 0.06 0.14 0.19 0.08 0.06 0.05 0.04 0.03 0.03 0.03 0.04 0.03 0.02 0.03 0.04 0.05 0.07 0.09 0.12 0.16 0.18 0.20 0.23 0.24 0.24 0.25 0.27 0.26 0.25 0.26 0.26 0.26 0.25 0.24 0.22 0.20
0.05 0.08 0.09 0.09 0.11 0.06 0.04 0.04 0.06 0.06 0.04 0.04 0.03 0.03 0.03 0.04 0.03 0.03 0.05 0.05 0.04 0.06 0.06 0.06 0.08 0.11 0.12 0.17 0.21 0.23 0.22 0.22 0.21 0.20 0.21 0.21 0.21 0.21 0.19 0.19 0.19 0.17 0.15 0.14
0.01 0.02 0.02 0.02 0.02 0.02 0.04 0.04 0.03 0.03 0.03 0.03 0.03 0.02 0.02 0.05 0.05 0.05 0.06 0.05 0.04 0.05 0.06 0.07 0.08 0.09 0.10 0.14 0.18 0.22 0.22 0.20 0.19 0.17 0.17 0.16 0.15 0.14 0.13 0.12 0.11 0.09 0.07 0.05
0.02 0.01 0.02 0.02 0.02 0.02 0.04 0.04 0.03 0.03 0.03 0.02 0.02 0.02 0.02 0.03 0.04 0.06 0.06 0.05 0.05 0.05 0.04 0.05 0.06 0.08 0.10 0.12 0.13 0.16 0.16 0.14 0.14 0.13 0.13 0.11 0.10 0.08 0.07 0.05 0.05 0.04 0.03 0.02
0.04 0.03 0.03 0.02 0.01 0.02 0.02 0.02 0.02 0.02 0.02 0.01 0.01 0.01 0.01 0.04 0.05 0.07 0.07 0.08 0.07 0.07 0.05 0.05 0.05 0.05 0.07 0.06 0.07 0.07 0.07 0.07 0.07 0.07 0.06 0.05 0.04 0.04 0.03 0.03 0.02 0.01 0.01 0.01
0.03 0.03 0.04 0.03 0.02 0.02 0.02 0.01 0.01 0.01 0.01 0.01 0.01 0.01 0.02 0.04 0.05 0.04 0.04 0.06 0.08 0.08 0.07 0.07 0.05 0.04 0.05 0.04 0.04 0.04 0.04 0.03 0.03 0.03 0.02 0.02 0.02 0.01 0.01 0.01 0.01 0.00 0.00 0.00

GEFSCGP_prec_meanprecacc_078.txt.gz
Total_Precipitation_Accumulation
1.06 1.19 0.82 0.36 0.19 0.11 0.09 0.08 0.05 0.02 0.01 0.01 0.01 0.00 0.00 0.00 0.00 0.00 0.00 0.00 0.00 0.00 0.00 0.00 0.00 0.00 0.00 0.00 0.00 0.01 0.02 0.04 0.09 0.11 0.12 0.16 0.18 0.21 0.21 0.20 0.22 0.19 0.15 0.10
1.10 0.91 0.49 0.26 0.23 0.21 0.16 0.15 0.09 0.04 0.02 0.02 0.01 0.00 0.00 0.00 0.00 0.00 0.00 0.00 0.00 0.00 0.00 0.00 0.00 0.00 0.00 0.00 0.01 0.01 0.02 0.03 0.05 0.07 0.11 0.20 0.28 0.29 0.29 0.28 0.24 0.20 0.18 0.16
0.81 0.54 0.44 0.47 0.41 0.34 0.26 0.20 0.13 0.08 0.06 0.05 0.03 0.01 0.00 0.00 0.00 0.00 0.00 0.00 0.00 0.00 0.00 0.00 0.00 0.00 0.00 0.00 0.00 0.01 0.01 0.03 0.05 0.08 0.15 0.20 0.24 0.22 0.19 0.15 0.14 0.17 0.20 0.21
0.69 0.48 0.57 0.69 0.55 0.39 0.32 0.17 0.16 0.15 0.14 0.10 0.06 0.03 0.00 0.00 0.00 0.00 0.00 0.00 0.00 0.00 0.00 0.00 0.00 0.00 0.00 0.00 0.00 0.00 0.01 0.03 0.05 0.08 0.10 0.13 0.14 0.13 0.11 0.13 0.16 0.20 0.22 0.22
0.67 0.51 0.63 0.78 0.56 0.40 0.31 0.18 0.23 0.25 0.23 0.20 0.10 0.06 0.01 0.00 0.00 0.00 0.00 0.00 0.00 0.00 0.00 0.00 0.00 0.00 0.00 0.00 0.00 0.00 0.01 0.03 0.05 0.06 0.07 0.11 0.13 0.13 0.13 0.13 0.15 0.16 0.18 0.19
0.48 0.51 0.66 0.69 0.54 0.47 0.39 0.39 0.44 0.46 0.52 0.45 0.13 0.07 0.02 0.00 0.00 0.00 0.00 0.00 0.00 0.00 0.00 0.00 0.00 0.00 0.00 0.00 0.00 0.00 0.01 0.02 0.04 0.05 0.07 0.09 0.10 0.11 0.11 0.09 0.11 0.13 0.17 0.18
0.65 0.66 0.66 0.72 0.81 0.72 0.68 0.90 1.02 0.91 0.79 0.39 0.07 0.06 0.03 0.00 0.00 0.00 0.00 0.00 0.00 0.00 0.00 0.00 0.00 0.00 0.00 0.00 0.00 0.00 0.00 0.01 0.02 0.03 0.05 0.07 0.10 0.12 0.11 0.11 0.13 0.14 0.14 0.15
0.67 0.73 0.60 0.71 0.91 0.85 0.69 0.81 0.81 0.64 0.39 0.15 0.06 0.04 0.01 0.00 0.00 0.00 0.00 0.00 0.00 0.00 0.00 0.00 0.00 0.00 0.00 0.00 0.00 0.00 0.00 0.01 0.02 0.03 0.03 0.04 0.06 0.08 0.09 0.11 0.11 0.12 0.15 0.20
0.42 0.51 0.47 0.54 0.67 0.68 0.66 0.60 0.45 0.53 0.39 0.23 0.10 0.03 0.01 0.00 0.01 0.01 0.00 0.00 0.00 0.00 0.00 0.00 0.00 0.00 0.00 0.00 0.00 0.00 0.00 0.01 0.02 0.03 0.03 0.03 0.03 0.05 0.07 0.09 0.11 0.14 0.15 0.17
0.35 0.50 0.50 0.57 0.73 0.72 0.62 0.52 0.58 0.76 0.57 0.36 0.13 0.03 0.02 0.02 0.02 0.02 0.01 0.00 0.00 0.00 0.00 0.00 0.00 0.00 0.00 0.00 0.00 0.00 0.01 0.01 0.02 0.02 0.02 0.03 0.03 0.05 0.06 0.07 0.08 0.10 0.11 0.12
0.33 0.54 0.64 0.67 0.73 0.57 0.51 0.58 0.64 0.62 0.44 0.43 0.24 0.06 0.02 0.02 0.04 0.04 0.03 0.01 0.00 0.00 0.00 0.00 0.00 0.00 0.00 0.00 0.01 0.01 0.01 0.01 0.01 0.02 0.02 0.02 0.03 0.04 0.05 0.06 0.07 0.08 0.08 0.09
0.27 0.48 0.65 0.53 0.40 0.36 0.41 0.40 0.48 0.64 0.46 0.34 0.26 0.08 0.02 0.03 0.05 0.07 0.06 0.03 0.01 0.01 0.00 0.00 0.00 0.01 0.01 0.02 0.02 0.02 0.02 0.02 0.02 0.02 0.02 0.03 0.03 0.04 0.04 0.05 0.06 0.06 0.06 0.07
0.25 0.44 0.62 0.52 0.42 0.42 0.40 0.31 0.37 0.54 0.65 0.45 0.31 0.11 0.04 0.06 0.09 0.10 0.09 0.05 0.03 0.02 0.02 0.02 0.02 0.02 0.03 0.04 0.04 0.03 0.03 0.02 0.03 0.03 0.03 0.04 0.04 0.05 0.05 0.05 0.05 0.05 0.05 0.05
0.35 0.40 0.46 0.45 0.35 0.37 0.35 0.28 0.36 0.65 0.75 0.37 0.18 0.10 0.08 0.10 0.13 0.13 0.11 0.09 0.06 0.04 0.03 0.02 0.02 0.04 0.06 0.06 0.05 0.05 0.05 0.05 0.06 0.06 0.06 0.05 0.05 0.06 0.06 0.05 0.05 0.05 0.04 0.05
0.36 0.43 0.34 0.28 0.20 0.22 0.26 0.29 0.38 0.52 0.44 0.35 0.16 0.10 0.11 0.13 0.16 0.15 0.11 0.09 0.07 0.05 0.03 0.03 0.03 0.04 0.07 0.08 0.08 0.07 0.08 0.08 0.09 0.10 0.10 0.08 0.07 0.07 0.07 0.07 0.06 0.05 0.05 0.06
0.24 0.36 0.34 0.28 0.19 0.21 0.27 0.26 0.29 0.33 0.31 0.29 0.19 0.13 0.08 0.11 0.15 0.13 0.09 0.07 0.07 0.05 0.03 0.03 0.03 0.04 0.05 0.06 0.07 0.08 0.09 0.10 0.11 0.12 0.11 0.11 0.09 0.09 0.09 0.09 0.09 0.08 0.08 0.09
0.17 0.26 0.38 0.31 0.18 0.22 0.26 0.18 0.22 0.25 0.25 0.23 0.23 0.15 0.07 0.08 0.08 0.07 0.07 0.06 0.05 0.04 0.04 0.05 0.04 0.05 0.06 0.06 0.06 0.07 0.07 0.07 0.10 0.13 0.13 0.12 0.11 0.12 0.13 0.12 0.13 0.15 0.18 0.20
0.12 0.22 0.40 0.33 0.22 0.23 0.15 0.10 0.13 0.19 0.18 0.16 0.16 0.10 0.06 0.05 0.04 0.05 0.05 0.04 0.03 0.04 0.04 0.05 0.05 0.06 0.06 0.07 0.07 0.06 0.06 0.08 0.10 0.12 0.13 0.13 0.14 0.16 0.18 0.20 0.22 0.23 0.25 0.27
0.08 0.21 0.41 0.33 0.21 0.13 0.11 0.12 0.15 0.18 0.17 0.12 0.09 0.06 0.04 0.04 0.04 0.05 0.04 0.03 0.02 0.03 0.04 0.04 0.04 0.04 0.05 0.06 0.07 0.08 0.10 0.12 0.13 0.17 0.21 0.21 0.23 0.24 0.26 0.29 0.31 0.32 0.33 0.33
0.10 0.18 0.37 0.31 0.24 0.15 0.11 0.09 0.09 0.16 0.21 0.10 0.07 0.06 0.04 0.04 0.06 0.06 0.03 0.03 0.03 0.03 0.04 0.05 0.05 0.06 0.07 0.10 0.12 0.13 0.15 0.17 0.19 0.22 0.28 0.27 0.29 0.32 0.34 0.33 0.33 0.30 0.30 0.30
0.15 0.24 0.30 0.25 0.21 0.08 0.06 0.05 0.06 0.16 0.21 0.09 0.06 0.05 0.05 0.03 0.03 0.03 0.04 0.03 0.02 0.03 0.04 0.05 0.07 0.09 0.12 0.16 0.18 0.20 0.23 0.24 0.24 0.25 0.27 0.26 0.25 0.26 0.26 0.27 0.26 0.25 0.23 0.22
0.05 0.09 0.10 0.10 0.13 0.07 0.04 0.04 0.06 0.07 0.05 0.04 0.03 0.03 0.03 0.04 0.03 0.03 0.05 0.05 0.04 0.06 0.06 0.06 0.08 0.11 0.12 0.17 0.21 0.23 0.22 0.22 0.21 0.20 0.21 0.21 0.21 0.21 0.19 0.19 0.19 0.18 0.17 0.15
0.01 0.02 0.03 0.03 0.03 0.02 0.04 0.04 0.03 0.03 0.03 0.03 0.03 0.03 0.02 0.05 0.05 0.05 0.06 0.05 0.04 0.05 0.06 0.07 0.08 0.09 0.10 0.14 0.18 0.22 0.22 0.20 0.19 0.17 0.17 0.16 0.15 0.14 0.13 0.12 0.11 0.10 0.08 0.07
0.02 0.01 0.03 0.03 0.03 0.02 0.04 0.04 0.03 0.03 0.03 0.02 0.02 0.02 0.02 0.03 0.05 0.06 0.06 0.05 0.05 0.05 0.04 0.05 0.06 0.08 0.10 0.12 0.13 0.16 0.16 0.14 0.14 0.13 0.13 0.11 0.10 0.08 0.07 0.06 0.05 0.04 0.04 0.03
0.05 0.04 0.03 0.03 0.02 0.02 0.02 0.02 0.02 0.02 0.02 0.01 0.01 0.01 0.01 0.04 0.06 0.07 0.08 0.08 0.07 0.07 0.06 0.05 0.05 0.06 0.07 0.06 0.07 0.07 0.07 0.07 0.07 0.07 0.06 0.05 0.04 0.04 0.03 0.03 0.02 0.01 0.01 0.01
0.04 0.04 0.04 0.03 0.02 0.02 0.02 0.01 0.01 0.01 0.01 0.01 0.01 0.01 0.02 0.04 0.05 0.04 0.05 0.06 0.08 0.08 0.08 0.07 0.05 0.04 0.05 0.04 0.04 0.04 0.04 0.04 0.03 0.03 0.02 0.02 0.02 0.01 0.01 0.01 0.01 0.00 0.00 0.00

GEFSCGP_prec_meanprecacc_084.txt.gz
Total_Precipitation_Accumulation
1.21 1.33 0.93 0.44 0.25 0.15 0.11 0.09 0.06 0.03 0.02 0.02 0.01 0.00 0.00 0.00 0.00 0.00 0.00 0.00 0.00 0.00 0.00 0.00 0.00 0.00 0.00 0.01 0.01 0.02 0.03 0.05 0.10 0.12 0.12 0.16 0.18 0.21 0.21 0.21 0.22 0.19 0.15 0.11
1.23 1.00 0.54 0.32 0.30 0.26 0.21 0.18 0.11 0.06 0.04 0.04 0.02 0.01 0.00 0.00 0.00 0.00 0.00 0.00 0.00 0.00 0.00 0.00 0.00 0.00 0.00 0.00 0.01 0.02 0.03 0.04 0.06 0.08 0.12 0.21 0.29 0.30 0.30 0.29 0.24 0.20 0.19 0.16
0.90 0.60 0.48 0.53 0.49 0.42 0.32 0.24 0.16 0.10 0.08 0.07 0.05 0.02 0.00 0.00 0.00 0.00 0.00 0.00 0.00 0.00 0.00 0.00 0.00 0.00 0.00 0.00 0.01 0.01 0.03 0.05 0.07 0.11 0.17 0.21 0.25 0.22 0.20 0.16 0.15 0.18 0.22 0.22
0.76 0.53 0.61 0.75 0.63 0.47 0.38 0.20 0.20 0.18 0.18 0.13 0.08 0.05 0.00 0.00 0.00 0.00 0.00 0.00 0.00 0.00 0.00 0.00 0.00 0.00 0.00 0.00 0.00 0.01 0.02 0.05 0.07 0.10 0.12 0.14 0.14 0.13 0.13 0.15 0.17 0.22 0.24 0.24
0.73 0.55 0.67 0.83 0.61 0.46 0.36 0.21 0.26 0.30 0.28 0.25 0.12 0.08 0.01 0.00 0.00 0.00 0.00 0.00 0.00 0.00 0.00 0.00 0.00 0.00 0.00 0.00 0.00 0.00 0.02 0.04 0.06 0.08 0.10 0.14 0.15 0.15 0.15 0.15 0.16 0.17 0.19 0.20
0.54 0.56 0.71 0.74 0.59 0.52 0.44 0.44 0.48 0.54 0.60 0.51 0.15 0.08 0.03 0.00 0.00 0.00 0.00 0.00 0.00 0.00 0.00 0.00 0.00 0.00 0.00 0.00 0.00 0.00 0.01 0.02 0.05 0.06 0.08 0.11 0.12 0.13 0.13 0.11 0.12 0.14 0.18 0.20
0.71 0.73 0.72 0.78 0.88 0.79 0.76 0.99 1.13 1.03 0.91 0.43 0.08 0.07 0.03 0.00 0.00 0.00 0.00 0.00 0.00 0.00 0.00 0.00 0.00 0.00 0.00 0.00 0.00 0.00 0.00 0.01 0.04 0.05 0.06 0.08 0.11 0.13 0.13 0.12 0.14 0.15 0.15 0.16
0.75 0.83 0.67 0.77 0.97 0.92 0.77 0.90 0.89 0.70 0.44 0.16 0.06 0.04 0.01 0.00 0.00 0.00 0.00 0.00 0.00 0.00 0.00 0.00 0.00 0.00 0.00 0.00 0.00 0.00 0.00 0.01 0.03 0.05 0.06 0.06 0.08 0.10 0.10 0.12 0.12 0.13 0.16 0.21
0.53 0.61 0.52 0.58 0.72 0.72 0.72 0.68 0.50 0.57 0.41 0.24 0.10 0.03 0.01 0.00 0.01 0.01 0.00 0.00 0.00 0.00 0.00 0.00 0.00 0.00 0.00 0.00 0.00 0.00 0.00 0.01 0.02 0.03 0.04 0.05 0.06 0.07 0.08 0.10 0.12 0.14 0.15 0.17
0.49 0.60 0.56 0.62 0.79 0.77 0.67 0.57 0.62 0.80 0.59 0.37 0.14 0.03 0.02 0.02 0.02 0.02 0.01 0.00 0.00 0.00 0.00 0.00 0.00 0.00 0.00 0.00 0.00 0.00 0.01 0.01 0.02 0.02 0.03 0.03 0.05 0.06 0.08 0.09 0.09 0.10 0.11 0.12
0.42 0.60 0.71 0.72 0.80 0.62 0.56 0.63 0.67 0.64 0.45 0.44 0.25 0.06 0.02 0.02 0.04 0.04 0.03 0.01 0.00 0.00 0.00 0.00 0.00 0.00 0.00 0.00 0.01 0.01 0.01 0.01 0.01 0.02 0.02 0.02 0.03 0.05 0.07 0.07 0.08 0.08 0.08 0.09
0.31 0.52 0.72 0.57 0.44 0.39 0.44 0.43 0.50 0.65 0.47 0.35 0.27 0.09 0.02 0.03 0.05 0.07 0.06 0.03 0.01 0.01 0.00 0.00 0.00 0.01 0.01 0.02 0.02 0.02 0.02 0.02 0.02 0.02 0.02 0.03 0.03 0.04 0.05 0.06 0.07 0.06 0.06 0.07
0.29 0.48 0.66 0.55 0.45 0.44 0.42 0.32 0.37 0.54 0.67 0.46 0.32 0.11 0.04 0.06 0.09 0.10 0.09 0.05 0.03 0.02 0.02 0.02 0.02 0.02 0.03 0.04 0.04 0.03 0.03 0.02 0.03 0.03 0.03 0.04 0.04 0.05 0.05 0.05 0.06 0.05 0.05 0.05
0.38 0.43 0.49 0.46 0.36 0.38 0.36 0.28 0.36 0.65 0.76 0.38 0.18 0.10 0.08 0.10 0.13 0.13 0.11 0.09 0.06 0.04 0.03 0.02 0.02 0.04 0.06 0.06 0.05 0.05 0.05 0.05 0.06 0.06 0.06 0.05 0.05 0.06 0.06 0.05 0.05 0.05 0.04 0.05
0.38 0.44 0.35 0.29 0.21 0.22 0.26 0.29 0.38 0.53 0.45 0.35 0.17 0.11 0.11 0.13 0.16 0.15 0.11 0.09 0.07 0.05 0.03 0.03 0.03 0.04 0.07 0.08 0.08 0.07 0.08 0.08 0.09 0.10 0.10 0.08 0.07 0.07 0.07 0.07 0.06 0.05 0.05 0.06
0.26 0.37 0.34 0.29 0.19 0.21 0.27 0.26 0.29 0.33 0.32 0.30 0.20 0.13 0.08 0.11 0.15 0.13 0.09 0.07 0.07 0.05 0.03 0.03 0.03 0.04 0.05 0.06 0.07 0.08 0.09 0.10 0.11 0.12 0.11 0.11 0.09 0.09 0.09 0.09 0.09 0.08 0.08 0.09
0.18 0.27 0.39 0.32 0.19 0.22 0.27 0.19 0.22 0.25 0.26 0.24 0.23 0.15 0.07 0.08 0.08 0.07 0.07 0.06 0.05 0.04 0.04 0.05 0.04 0.05 0.06 0.06 0.06 0.07 0.07 0.07 0.10 0.13 0.13 0.12 0.11 0.12 0.13 0.12 0.13 0.15 0.18 0.20
0.13 0.23 0.41 0.34 0.23 0.24 0.15 0.10 0.14 0.19 0.18 0.16 0.16 0.10 0.06 0.05 0.04 0.05 0.06 0.04 0.03 0.04 0.04 0.05 0.05 0.06 0.06 0.07 0.07 0.06 0.06 0.08 0.10 0.12 0.13 0.13 0.14 0.16 0.18 0.20 0.22 0.23 0.25 0.27
0.08 0.22 0.43 0.34 0.22 0.14 0.12 0.12 0.15 0.18 0.17 0.12 0.10 0.06 0.05 0.04 0.04 0.05 0.04 0.03 0.02 0.03 0.04 0.04 0.04 0.04 0.05 0.06 0.07 0.08 0.10 0.12 0.13 0.17 0.21 0.21 0.23 0.24 0.26 0.29 0.31 0.32 0.33 0.33
0.10 0.19 0.39 0.32 0.26 0.16 0.12 0.09 0.09 0.16 0.22 0.11 0.08 0.06 0.05 0.04 0.06 0.06 0.03 0.03 0.03 0.03 0.04 0.05 0.05 0.06 0.07 0.10 0.12 0.13 0.15 0.17 0.19 0.22 0.28 0.27 0.29 0.32 0.34 0.33 0.33 0.30 0.30 0.30
0.16 0.25 0.31 0.26 0.22 0.08 0.06 0.05 0.06 0.16 0.22 0.09 0.06 0.05 0.05 0.03 0.04 0.03 0.04 0.03 0.02 0.03 0.04 0.05 0.07 0.09 0.12 0.16 0.18 0.20 0.23 0.24 0.24 0.25 0.27 0.26 0.25 0.26 0.26 0.27 0.26 0.25 0.23 0.22
0.06 0.10 0.10 0.11 0.13 0.07 0.04 0.04 0.07 0.07 0.05 0.04 0.03 0.03 0.03 0.05 0.04 0.03 0.05 0.05 0.04 0.06 0.06 0.06 0.08 0.11 0.12 0.17 0.21 0.23 0.22 0.22 0.21 0.20 0.21 0.21 0.21 0.21 0.19 0.19 0.19 0.18 0.17 0.15
0.02 0.03 0.03 0.03 0.03 0.03 0.04 0.04 0.03 0.03 0.03 0.03 0.03 0.03 0.02 0.05 0.05 0.06 0.06 0.05 0.04 0.05 0.06 0.07 0.08 0.09 0.10 0.14 0.18 0.22 0.22 0.20 0.19 0.17 0.17 0.16 0.15 0.14 0.13 0.12 0.11 0.10 0.08 0.07
0.03 0.02 0.03 0.04 0.03 0.03 0.04 0.04 0.04 0.03 0.03 0.02 0.02 0.02 0.02 0.04 0.05 0.07 0.06 0.05 0.05 0.05 0.05 0.05 0.06 0.08 0.10 0.12 0.13 0.16 0.16 0.14 0.14 0.13 0.13 0.11 0.10 0.08 0.07 0.06 0.05 0.04 0.04 0.03
0.06 0.05 0.04 0.04 0.03 0.03 0.03 0.03 0.02 0.02 0.02 0.01 0.01 0.01 0.02 0.04 0.06 0.08 0.08 0.08 0.07 0.07 0.06 0.06 0.05 0.06 0.07 0.07 0.07 0.07 0.07 0.07 0.07 0.07 0.06 0.05 0.04 0.04 0.03 0.03 0.02 0.02 0.01 0.01
0.04 0.04 0.05 0.04 0.03 0.03 0.03 0.02 0.01 0.01 0.01 0.01 0.01 0.01 0.02 0.04 0.05 0.04 0.05 0.07 0.09 0.09 0.08 0.07 0.05 0.05 0.05 0.05 0.04 0.04 0.04 0.04 0.03 0.03 0.03 0.02 0.02 0.02 0.01 0.01 0.01 0.01 0.00 0.00

GEFSCGP_prec_meanprecacc_090.txt.gz
Total_Precipitation_Accumulation
1.28 1.43 1.05 0.54 0.32 0.20 0.15 0.11 0.08 0.04 0.02 0.03 0.02 0.01 0.00 0.00 0.01 0.00 0.00 0.00 0.00 0.00 0.00 0.01 0.02 0.03 0.04 0.04 0.05 0.06 0.07 0.09 0.16 0.17 0.17 0.20 0.21 0.23 0.23 0.22 0.23 0.20 0.15 0.11
1.30 1.07 0.60 0.38 0.36 0.33 0.28 0.22 0.13 0.07 0.04 0.04 0.02 0.01 0.00 0.00 0.01 0.01 0.00 0.00 0.00 0.00 0.00 0.01 0.01 0.01 0.02 0.03 0.04 0.06 0.06 0.08 0.10 0.12 0.17 0.25 0.33 0.33 0.32 0.30 0.25 0.21 0.19 0.17
0.95 0.64 0.52 0.59 0.57 0.48 0.40 0.29 0.18 0.11 0.09 0.08 0.05 0.02 0.00 0.00 0.00 0.01 0.01 0.00 0.00 0.00 0.00 0.00 0.01 0.01 0.01 0.02 0.02 0.03 0.05 0.08 0.10 0.15 0.24 0.27 0.30 0.25 0.21 0.18 0.16 0.19 0.23 0.23
0.80 0.56 0.65 0.80 0.71 0.53 0.44 0.24 0.22 0.20 0.20 0.15 0.09 0.05 0.00 0.00 0.00 0.00 0.00 0.00 0.00 0.00 0.00 0.00 0.00 0.00 0.00 0.01 0.01 0.02 0.04 0.07 0.10 0.13 0.16 0.17 0.17 0.15 0.15 0.18 0.20 0.25 0.26 0.25
0.77 0.59 0.72 0.88 0.67 0.52 0.40 0.24 0.29 0.33 0.31 0.27 0.14 0.08 0.01 0.00 0.00 0.00 0.00 0.00 0.00 0.00 0.00 0.00 0.00 0.00 0.00 0.00 0.01 0.01 0.03 0.05 0.08 0.10 0.12 0.16 0.17 0.17 0.19 0.19 0.19 0.20 0.22 0.24
0.57 0.60 0.76 0.78 0.63 0.59 0.50 0.50 0.53 0.58 0.65 0.55 0.16 0.09 0.03 0.00 0.00 0.00 0.00 0.00 0.00 0.00 0.00 0.00 0.00 0.01 0.00 0.00 0.00 0.01 0.02 0.03 0.06 0.08 0.10 0.13 0.14 0.16 0.16 0.15 0.16 0.18 0.23 0.26
0.77 0.79 0.76 0.81 0.94 0.88 0.86 1.10 1.24 1.14 0.98 0.46 0.08 0.07 0.03 0.00 0.00 0.00 0.00 0.00 0.00 0.00 0.00 0.00 0.00 0.00 0.00 0.00 0.00 0.00 0.01 0.02 0.04 0.06 0.08 0.10 0.13 0.16 0.15 0.15 0.18 0.19 0.19 0.20
0.81 0.90 0.71 0.80 1.03 0.99 0.86 0.98 0.95 0.75 0.46 0.17 0.06 0.05 0.01 0.00 0.00 0.00 0.00 0.00 0.00 0.00 0.00 0.00 0.00 0.00 0.00 0.00 0.00 0.00 0.01 0.01 0.03 0.05 0.07 0.08 0.10 0.11 0.12 0.13 0.14 0.16 0.19 0.24
0.57 0.66 0.55 0.61 0.76 0.79 0.78 0.72 0.53 0.60 0.43 0.25 0.11 0.03 0.01 0.00 0.01 0.01 0.00 0.00 0.00 0.00 0.00 0.00 0.00 0.00 0.00 0.00 0.00 0.00 0.01 0.01 0.02 0.04 0.05 0.07 0.08 0.09 0.10 0.12 0.14 0.16 0.18 0.21
0.53 0.64 0.59 0.66 0.83 0.83 0.73 0.60 0.64 0.83 0.62 0.39 0.14 0.03 0.02 0.02 0.02 0.02 0.01 0.00 0.00 0.00 0.00 0.00 0.00 0.00 0.00 0.00 0.00 0.00 0.01 0.01 0.02 0.03 0.03 0.04 0.05 0.08 0.09 0.11 0.11 0.12 0.13 0.15
0.47 0.66 0.76 0.78 0.85 0.66 0.59 0.66 0.69 0.67 0.48 0.45 0.25 0.06 0.02 0.02 0.04 0.04 0.03 0.01 0.00 0.00 0.00 0.00 0.00 0.00 0.00 0.00 0.01 0.01 0.01 0.01 0.01 0.02 0.02 0.03 0.04 0.06 0.08 0.09 0.10 0.10 0.11 0.11
0.35 0.57 0.76 0.62 0.47 0.42 0.46 0.45 0.53 0.68 0.49 0.36 0.28 0.09 0.02 0.03 0.05 0.07 0.06 0.03 0.01 0.01 0.00 0.00 0.00 0.01 0.01 0.02 0.02 0.02 0.02 0.02 0.02 0.02 0.02 0.03 0.03 0.04 0.05 0.07 0.08 0.08 0.08 0.09
0.34 0.52 0.71 0.60 0.50 0.48 0.45 0.34 0.40 0.57 0.68 0.47 0.33 0.12 0.04 0.06 0.09 0.10 0.09 0.05 0.03 0.02 0.02 0.02 0.02 0.02 0.03 0.04 0.04 0.03 0.03 0.02 0.03 0.03 0.04 0.04 0.04 0.05 0.05 0.05 0.06 0.05 0.06 0.06
0.44 0.46 0.52 0.49 0.39 0.40 0.37 0.30 0.38 0.68 0.79 0.39 0.19 0.11 0.08 0.10 0.13 0.13 0.11 0.09 0.06 0.04 0.03 0.02 0.02 0.04 0.06 0.06 0.05 0.05 0.05 0.05 0.06 0.06 0.06 0.05 0.05 0.06 0.06 0.05 0.05 0.05 0.04 0.05
0.42 0.47 0.36 0.30 0.21 0.23 0.27 0.30 0.40 0.54 0.46 0.36 0.17 0.11 0.11 0.13 0.16 0.15 0.11 0.09 0.07 0.05 0.03 0.03 0.03 0.04 0.07 0.08 0.08 0.07 0.08 0.08 0.09 0.10 0.10 0.08 0.07 0.07 0.07 0.07 0.06 0.05 0.05 0.06
0.28 0.39 0.35 0.30 0.20 0.21 0.28 0.27 0.30 0.34 0.32 0.30 0.20 0.13 0.08 0.12 0.15 0.13 0.09 0.08 0.07 0.05 0.03 0.03 0.03 0.04 0.05 0.06 0.07 0.08 0.09 0.10 0.11 0.12 0.11 0.11 0.09 0.09 0.09 0.09 0.09 0.08 0.08 0.09
0.20 0.28 0.40 0.34 0.20 0.23 0.28 0.19 0.22 0.26 0.26 0.25 0.23 0.15 0.07 0.08 0.09 0.07 0.07 0.06 0.05 0.04 0.04 0.05 0.04 0.05 0.06 0.06 0.06 0.07 0.07 0.07 0.10 0.13 0.13 0.12 0.11 0.12 0.13 0.12 0.13 0.15 0.18 0.20
0.14 0.24 0.43 0.35 0.24 0.25 0.16 0.10 0.14 0.19 0.19 0.17 0.16 0.11 0.07 0.05 0.04 0.05 0.06 0.04 0.03 0.04 0.04 0.05 0.05 0.06 0.06 0.07 0.07 0.06 0.06 0.08 0.10 0.12 0.13 0.13 0.14 0.16 0.18 0.20 0.22 0.23 0.25 0.27
0.09 0.24 0.45 0.36 0.23 0.15 0.12 0.12 0.15 0.19 0.18 0.13 0.11 0.06 0.05 0.04 0.05 0.05 0.04 0.03 0.03 0.03 0.04 0.04 0.04 0.04 0.05 0.06 0.07 0.08 0.10 0.12 0.13 0.17 0.21 0.21 0.23 0.24 0.26 0.29 0.31 0.32 0.33 0.33
0.11 0.20 0.42 0.35 0.28 0.17 0.12 0.09 0.09 0.17 0.23 0.11 0.08 0.06 0.05 0.04 0.07 0.06 0.03 0.03 0.03 0.03 0.04 0.05 0.06 0.06 0.07 0.10 0.12 0.13 0.15 0.17 0.19 0.22 0.28 0.28 0.29 0.33 0.34 0.34 0.33 0.30 0.30 0.30
0.17 0.27 0.34 0.29 0.24 0.09 0.07 0.05 0.06 0.17 0.22 0.09 0.06 0.05 0.05 0.03 0.04 0.04 0.04 0.03 0.02 0.03 0.04 0.05 0.07 0.09 0.12 0.16 0.18 0.20 0.23 0.24 0.24 0.25 0.27 0.26 0.25 0.27 0.27 0.27 0.26 0.25 0.23 0.22
0.08 0.12 0.12 0.12 0.15 0.08 0.05 0.05 0.07 0.08 0.05 0.04 0.03 0.03 0.03 0.05 0.04 0.04 0.05 0.05 0.04 0.06 0.06 0.06 0.08 0.11 0.12 0.17 0.21 0.23 0.23 0.22 0.21 0.20 0.21 0.21 0.21 0.21 0.19 0.19 0.19 0.18 0.17 0.15
0.04 0.06 0.07 0.05 0.05 0.03 0.05 0.05 0.04 0.03 0.03 0.03 0.03 0.03 0.02 0.05 0.06 0.06 0.06 0.05 0.04 0.05 0.06 0.07 0.08 0.09 0.10 0.14 0.18 0.22 0.22 0.20 0.19 0.18 0.18 0.17 0.15 0.14 0.13 0.12 0.11 0.10 0.08 0.07
0.05 0.04 0.06 0.06 0.04 0.03 0.04 0.05 0.04 0.03 0.03 0.02 0.02 0.02 0.02 0.04 0.06 0.07 0.07 0.06 0.05 0.05 0.05 0.05 0.06 0.08 0.11 0.12 0.13 0.16 0.16 0.14 0.14 0.13 0.13 0.12 0.10 0.08 0.07 0.06 0.05 0.04 0.04 0.03
0.08 0.07 0.06 0.07 0.05 0.04 0.04 0.04 0.03 0.03 0.02 0.02 0.01 0.01 0.02 0.04 0.07 0.08 0.09 0.09 0.08 0.08 0.06 0.06 0.06 0.06 0.07 0.07 0.07 0.08 0.08 0.07 0.07 0.07 0.06 0.06 0.05 0.04 0.04 0.03 0.02 0.02 0.01 0.01
0.05 0.05 0.06 0.07 0.04 0.05 0.04 0.03 0.03 0.02 0.02 0.01 0.01 0.01 0.02 0.04 0.05 0.05 0.05 0.07 0.09 0.09 0.08 0.07 0.06 0.05 0.05 0.05 0.05 0.05 0.04 0.04 0.04 0.03 0.03 0.03 0.02 0.02 0.02 0.01 0.01 0.01 0.01 0.01

GEFSCGP_prec_meanprecacc_096.txt.gz
Total_Precipitation_Accumulation
1.33 1.49 1.14 0.63 0.42 0.27 0.18 0.14 0.11 0.06 0.03 0.04 0.02 0.01 0.00 0.00 0.01 0.00 0.00 0.00 0.00 0.00 0.01 0.02 0.03 0.05 0.07 0.09 0.10 0.11 0.13 0.18 0.25 0.26 0.28 0.30 0.29 0.30 0.28 0.25 0.25 0.22 0.17 0.12
1.33 1.11 0.65 0.43 0.42 0.40 0.32 0.26 0.16 0.09 0.06 0.05 0.03 0.01 0.00 0.00 0.01 0.01 0.00 0.00 0.00 0.00 0.00 0.01 0.02 0.03 0.04 0.06 0.09 0.12 0.14 0.17 0.19 0.20 0.26 0.37 0.45 0.43 0.41 0.37 0.28 0.23 0.21 0.19
0.98 0.66 0.55 0.64 0.62 0.55 0.45 0.33 0.21 0.14 0.11 0.10 0.06 0.03 0.00 0.00 0.00 0.01 0.01 0.00 0.00 0.00 0.00 0.01 0.01 0.02 0.03 0.04 0.06 0.08 0.10 0.14 0.18 0.25 0.35 0.39 0.42 0.38 0.33 0.25 0.22 0.24 0.27 0.26
0.83 0.58 0.67 0.85 0.77 0.59 0.49 0.27 0.25 0.23 0.24 0.18 0.09 0.06 0.00 0.00 0.00 0.00 0.00 0.01 0.00 0.00 0.00 0.00 0.00 0.01 0.01 0.02 0.03 0.04 0.07 0.11 0.14 0.19 0.22 0.25 0.25 0.23 0.24 0.27 0.29 0.31 0.31 0.29
0.80 0.60 0.74 0.92 0.72 0.57 0.44 0.26 0.33 0.37 0.36 0.31 0.15 0.09 0.01 0.00 0.00 0.00 0.00 0.00 0.00 0.00 0.00 0.00 0.00 0.01 0.01 0.01 0.02 0.03 0.05 0.07 0.10 0.13 0.15 0.21 0.21 0.22 0.25 0.26 0.27 0.27 0.27 0.29
0.59 0.62 0.79 0.81 0.67 0.64 0.55 0.53 0.59 0.64 0.74 0.61 0.17 0.09 0.03 0.00 0.00 0.00 0.00 0.00 0.00 0.00 0.00 0.00 0.00 0.01 0.01 0.01 0.01 0.02 0.03 0.05 0.07 0.10 0.13 0.16 0.17 0.19 0.19 0.18 0.21 0.24 0.30 0.32
0.80 0.82 0.80 0.85 0.99 0.95 0.93 1.17 1.36 1.27 1.09 0.49 0.09 0.07 0.03 0.00 0.00 0.00 0.00 0.00 0.00 0.00 0.00 0.00 0.00 0.00 0.00 0.00 0.00 0.01 0.02 0.03 0.05 0.08 0.10 0.12 0.16 0.19 0.18 0.18 0.22 0.24 0.25 0.26
0.85 0.94 0.75 0.83 1.07 1.06 0.92 1.04 1.02 0.81 0.49 0.17 0.07 0.05 0.01 0.00 0.00 0.00 0.00 0.00 0.00 0.00 0.00 0.00 0.00 0.00 0.00 0.00 0.00 0.00 0.01 0.02 0.04 0.06 0.08 0.10 0.12 0.13 0.14 0.16 0.17 0.19 0.22 0.28
0.61 0.71 0.59 0.64 0.78 0.83 0.84 0.77 0.57 0.64 0.45 0.26 0.11 0.03 0.01 0.00 0.01 0.01 0.00 0.00 0.00 0.00 0.00 0.00 0.00 0.00 0.00 0.00 0.00 0.00 0.01 0.02 0.03 0.04 0.06 0.08 0.09 0.10 0.11 0.13 0.16 0.18 0.20 0.23
0.57 0.69 0.64 0.69 0.87 0.88 0.78 0.64 0.67 0.86 0.65 0.40 0.14 0.03 0.02 0.02 0.02 0.02 0.01 0.00 0.00 0.00 0.00 0.00 0.00 0.00 0.00 0.00 0.00 0.00 0.01 0.02 0.02 0.03 0.03 0.05 0.06 0.09 0.10 0.12 0.12 0.13 0.15 0.16
0.52 0.71 0.81 0.82 0.88 0.70 0.63 0.70 0.72 0.69 0.49 0.46 0.26 0.07 0.03 0.03 0.04 0.04 0.03 0.01 0.00 0.00 0.00 0.00 0.00 0.00 0.00 0.00 0.01 0.01 0.01 0.01 0.02 0.02 0.03 0.03 0.04 0.06 0.08 0.09 0.10 0.11 0.11 0.11
0.39 0.60 0.80 0.64 0.49 0.44 0.48 0.47 0.55 0.71 0.51 0.37 0.29 0.10 0.02 0.03 0.05 0.07 0.06 0.03 0.01 0.01 0.00 0.00 0.00 0.01 0.01 0.02 0.02 0.02 0.02 0.02 0.02 0.02 0.02 0.03 0.04 0.04 0.05 0.07 0.08 0.08 0.08 0.09
0.39 0.56 0.74 0.64 0.53 0.51 0.48 0.35 0.41 0.59 0.70 0.49 0.35 0.13 0.04 0.06 0.09 0.10 0.09 0.05 0.03 0.02 0.02 0.02 0.02 0.02 0.03 0.04 0.04 0.03 0.03 0.02 0.03 0.03 0.04 0.04 0.04 0.05 0.05 0.05 0.06 0.06 0.06 0.06
0.52 0.51 0.56 0.53 0.42 0.42 0.39 0.31 0.39 0.70 0.82 0.41 0.20 0.11 0.08 0.11 0.13 0.13 0.11 0.09 0.06 0.04 0.03 0.02 0.02 0.04 0.06 0.06 0.05 0.05 0.05 0.05 0.06 0.06 0.06 0.05 0.05 0.06 0.06 0.06 0.05 0.05 0.04 0.05
0.48 0.52 0.39 0.32 0.23 0.25 0.28 0.31 0.41 0.55 0.47 0.37 0.18 0.11 0.11 0.13 0.16 0.16 0.11 0.10 0.07 0.05 0.03 0.03 0.03 0.04 0.07 0.08 0.08 0.07 0.08 0.08 0.09 0.10 0.10 0.08 0.07 0.07 0.07 0.07 0.06 0.05 0.05 0.06
0.31 0.42 0.36 0.31 0.20 0.23 0.30 0.28 0.31 0.35 0.33 0.31 0.21 0.15 0.09 0.12 0.16 0.15 0.10 0.08 0.07 0.05 0.03 0.03 0.03 0.04 0.05 0.06 0.07 0.08 0.09 0.10 0.11 0.12 0.11 0.11 0.09 0.09 0.09 0.09 0.09 0.08 0.08 0.09
0.22 0.30 0.41 0.34 0.20 0.24 0.30 0.22 0.25 0.28 0.27 0.26 0.25 0.16 0.09 0.10 0.10 0.08 0.07 0.06 0.05 0.04 0.04 0.05 0.04 0.05 0.06 0.06 0.06 0.07 0.07 0.07 0.10 0.13 0.13 0.12 0.11 0.12 0.13 0.12 0.13 0.15 0.18 0.20
0.16 0.25 0.44 0.36 0.24 0.27 0.18 0.12 0.16 0.21 0.21 0.18 0.18 0.13 0.08 0.06 0.05 0.05 0.06 0.04 0.03 0.04 0.05 0.05 0.06 0.06 0.06 0.07 0.07 0.06 0.06 0.08 0.10 0.12 0.13 0.13 0.14 0.16 0.18 0.20 0.22 0.23 0.25 0.27
0.10 0.26 0.48 0.38 0.25 0.16 0.13 0.14 0.17 0.21 0.21 0.16 0.14 0.09 0.07 0.05 0.05 0.05 0.04 0.03 0.03 0.03 0.04 0.04 0.04 0.04 0.05 0.06 0.07 0.08 0.10 0.12 0.13 0.17 0.21 0.21 0.23 0.24 0.26 0.29 0.31 0.32 0.33 0.33
0.12 0.21 0.44 0.37 0.30 0.19 0.14 0.10 0.10 0.18 0.26 0.14 0.10 0.07 0.06 0.05 0.08 0.06 0.03 0.03 0.03 0.03 0.04 0.05 0.06 0.06 0.07 0.10 0.12 0.13 0.15 0.17 0.19 0.22 0.28 0.28 0.29 0.33 0.34 0.34 0.33 0.30 0.30 0.30
0.19 0.29 0.36 0.31 0.25 0.11 0.08 0.06 0.07 0.20 0.25 0.10 0.07 0.06 0.05 0.04 0.05 0.04 0.04 0.03 0.02 0.03 0.04 0.05 0.07 0.09 0.12 0.16 0.18 0.20 0.23 0.24 0.24 0.25 0.28 0.26 0.25 0.27 0.27 0.27 0.26 0.25 0.23 0.22
0.10 0.14 0.13 0.14 0.17 0.10 0.06 0.06 0.10 0.11 0.06 0.05 0.04 0.03 0.04 0.05 0.04 0.04 0.06 0.06 0.04 0.06 0.06 0.06 0.08 0.11 0.12 0.17 0.21 0.23 0.23 0.22 0.21 0.20 0.22 0.22 0.22 0.21 0.20 0.19 0.19 0.18 0.17 0.16
0.06 0.09 0.10 0.08 0.08 0.06 0.06 0.07 0.07 0.06 0.04 0.03 0.04 0.04 0.03 0.06 0.06 0.07 0.07 0.06 0.05 0.06 0.06 0.07 0.08 0.09 0.10 0.14 0.18 0.22 0.22 0.20 0.19 0.18 0.18 0.17 0.15 0.14 0.13 0.12 0.11 0.11 0.09 0.07
0.07 0.05 0.08 0.09 0.07 0.05 0.06 0.07 0.07 0.06 0.05 0.04 0.03 0.03 0.03 0.05 0.07 0.08 0.07 0.07 0.06 0.06 0.06 0.06 0.07 0.09 0.11 0.12 0.14 0.16 0.16 0.15 0.14 0.14 0.13 0.12 0.10 0.09 0.07 0.06 0.05 0.05 0.04 0.03
0.09 0.08 0.08 0.10 0.07 0.06 0.06 0.07 0.05 0.04 0.03 0.03 0.02 0.02 0.03 0.06 0.08 0.09 0.09 0.09 0.08 0.08 0.07 0.07 0.06 0.07 0.08 0.07 0.08 0.08 0.08 0.07 0.08 0.08 0.07 0.06 0.05 0.05 0.04 0.04 0.03 0.02 0.02 0.01
0.07 0.07 0.08 0.10 0.06 0.07 0.07 0.06 0.04 0.03 0.03 0.02 0.02 0.02 0.03 0.05 0.06 0.05 0.06 0.08 0.09 0.09 0.08 0.08 0.06 0.06 0.06 0.06 0.05 0.05 0.04 0.04 0.04 0.04 0.04 0.03 0.03 0.02 0.02 0.02 0.02 0.02 0.01 0.01

GEFSCGP_prec_meanprecacc_102.txt.gz
Total_Precipitation_Accumulation
1.37 1.54 1.20 0.68 0.48 0.34 0.23 0.19 0.15 0.10 0.06 0.07 0.04 0.02 0.02 0.01 0.01 0.01 0.01 0.02 0.02 0.02 0.03 0.04 0.06 0.08 0.10 0.13 0.17 0.19 0.22 0.28 0.38 0.39 0.40 0.41 0.39 0.39 0.34 0.29 0.28 0.24 0.18 0.13
1.38 1.15 0.68 0.47 0.47 0.45 0.37 0.31 0.20 0.14 0.09 0.08 0.05 0.02 0.02 0.02 0.01 0.01 0.01 0.01 0.02 0.02 0.02 0.03 0.04 0.04 0.06 0.08 0.12 0.16 0.21 0.28 0.29 0.27 0.33 0.47 0.58 0.55 0.52 0.47 0.35 0.27 0.24 0.22
1.01 0.69 0.57 0.67 0.67 0.59 0.50 0.39 0.26 0.18 0.15 0.13 0.09 0.05 0.02 0.01 0.01 0.01 0.01 0.01 0.01 0.01 0.01 0.01 0.02 0.03 0.05 0.06 0.08 0.11 0.16 0.21 0.26 0.33 0.45 0.52 0.57 0.52 0.45 0.36 0.30 0.31 0.34 0.32
0.86 0.60 0.70 0.87 0.80 0.62 0.53 0.32 0.29 0.26 0.30 0.23 0.13 0.09 0.02 0.01 0.00 0.00 0.01 0.01 0.01 0.00 0.00 0.01 0.01 0.02 0.03 0.04 0.05 0.08 0.13 0.17 0.20 0.26 0.28 0.32 0.35 0.34 0.34 0.38 0.41 0.43 0.40 0.37
0.83 0.62 0.77 0.95 0.75 0.59 0.48 0.31 0.37 0.40 0.41 0.36 0.18 0.11 0.02 0.01 0.00 0.00 0.00 0.01 0.01 0.00 0.00 0.00 0.01 0.02 0.02 0.03 0.04 0.05 0.07 0.11 0.14 0.18 0.20 0.26 0.28 0.32 0.37 0.37 0.36 0.36 0.37 0.37
0.62 0.64 0.81 0.84 0.70 0.66 0.58 0.58 0.63 0.69 0.81 0.68 0.19 0.10 0.03 0.00 0.00 0.00 0.00 0.00 0.00 0.00 0.00 0.00 0.00 0.01 0.01 0.01 0.02 0.05 0.06 0.07 0.11 0.14 0.18 0.19 0.21 0.24 0.25 0.26 0.30 0.32 0.37 0.39
0.84 0.85 0.82 0.87 1.03 0.99 0.98 1.25 1.46 1.38 1.19 0.54 0.10 0.08 0.03 0.00 0.00 0.00 0.00 0.00 0.00 0.00 0.00 0.00 0.00 0.00 0.01 0.01 0.01 0.02 0.04 0.05 0.07 0.10 0.14 0.16 0.20 0.24 0.23 0.24 0.28 0.30 0.32 0.32
0.90 0.99 0.77 0.85 1.11 1.12 0.98 1.11 1.11 0.89 0.54 0.19 0.08 0.06 0.01 0.00 0.00 0.00 0.00 0.00 0.00 0.00 0.00 0.00 0.00 0.00 0.01 0.01 0.01 0.01 0.02 0.04 0.06 0.09 0.10 0.12 0.14 0.16 0.18 0.20 0.21 0.23 0.26 0.33
0.67 0.75 0.61 0.66 0.81 0.87 0.90 0.82 0.61 0.70 0.49 0.28 0.12 0.04 0.01 0.01 0.01 0.01 0.00 0.00 0.00 0.00 0.00 0.00 0.00 0.00 0.00 0.00 0.00 0.01 0.01 0.03 0.05 0.07 0.08 0.10 0.11 0.12 0.14 0.16 0.18 0.21 0.24 0.27
0.63 0.74 0.67 0.71 0.89 0.91 0.82 0.67 0.70 0.91 0.70 0.44 0.16 0.04 0.02 0.02 0.02 0.02 0.01 0.00 0.00 0.00 0.00 0.00 0.00 0.00 0.00 0.00 0.00 0.01 0.01 0.02 0.03 0.04 0.06 0.07 0.09 0.11 0.12 0.14 0.14 0.15 0.17 0.19
0.56 0.75 0.85 0.84 0.90 0.72 0.65 0.72 0.74 0.73 0.53 0.52 0.30 0.08 0.03 0.03 0.04 0.04 0.03 0.01 0.00 0.00 0.00 0.00 0.00 0.00 0.00 0.01 0.01 0.01 0.01 0.02 0.02 0.03 0.03 0.04 0.05 0.07 0.09 0.11 0.11 0.12 0.12 0.13
0.43 0.64 0.83 0.67 0.50 0.45 0.50 0.49 0.57 0.75 0.55 0.41 0.34 0.13 0.03 0.03 0.05 0.07 0.06 0.03 0.01 0.01 0.01 0.00 0.00 0.01 0.01 0.02 0.03 0.03 0.02 0.02 0.02 0.02 0.03 0.04 0.05 0.06 0.07 0.08 0.09 0.10 0.09 0.10
0.43 0.60 0.79 0.68 0.56 0.53 0.51 0.37 0.43 0.61 0.74 0.52 0.40 0.16 0.05 0.07 0.09 0.10 0.09 0.06 0.03 0.02 0.02 0.02 0.02 0.02 0.03 0.04 0.04 0.04 0.04 0.03 0.03 0.04 0.04 0.04 0.05 0.06 0.06 0.06 0.06 0.06 0.07 0.07
0.55 0.55 0.61 0.60 0.46 0.46 0.43 0.34 0.41 0.73 0.87 0.46 0.24 0.14 0.09 0.12 0.13 0.13 0.11 0.09 0.06 0.04 0.03 0.02 0.02 0.04 0.06 0.06 0.05 0.05 0.06 0.06 0.06 0.07 0.06 0.06 0.06 0.06 0.06 0.06 0.06 0.05 0.05 0.05
0.50 0.55 0.42 0.35 0.25 0.27 0.32 0.35 0.43 0.58 0.50 0.41 0.20 0.13 0.12 0.14 0.17 0.16 0.12 0.10 0.08 0.05 0.03 0.03 0.03 0.04 0.07 0.08 0.08 0.07 0.08 0.09 0.10 0.11 0.10 0.08 0.08 0.08 0.07 0.07 0.07 0.06 0.05 0.06
0.33 0.43 0.38 0.33 0.22 0.25 0.33 0.32 0.35 0.38 0.36 0.34 0.24 0.17 0.10 0.13 0.17 0.15 0.10 0.09 0.08 0.05 0.03 0.03 0.03 0.04 0.05 0.06 0.07 0.08 0.09 0.10 0.11 0.12 0.12 0.11 0.10 0.09 0.09 0.09 0.09 0.08 0.08 0.09
0.23 0.31 0.43 0.35 0.21 0.26 0.33 0.26 0.29 0.32 0.31 0.29 0.29 0.19 0.11 0.12 0.12 0.10 0.09 0.08 0.07 0.05 0.04 0.05 0.04 0.05 0.06 0.06 0.07 0.07 0.07 0.07 0.10 0.13 0.13 0.12 0.11 0.12 0.13 0.12 0.13 0.16 0.19 0.20
0.17 0.26 0.45 0.37 0.25 0.28 0.20 0.13 0.18 0.24 0.24 0.22 0.22 0.16 0.11 0.09 0.08 0.07 0.07 0.06 0.04 0.04 0.05 0.06 0.06 0.06 0.06 0.07 0.07 0.06 0.07 0.08 0.10 0.12 0.13 0.13 0.14 0.16 0.18 0.20 0.22 0.23 0.25 0.27
0.11 0.27 0.49 0.39 0.26 0.17 0.13 0.14 0.18 0.24 0.26 0.20 0.17 0.12 0.10 0.09 0.07 0.07 0.05 0.04 0.03 0.03 0.04 0.04 0.04 0.04 0.05 0.06 0.07 0.08 0.10 0.12 0.13 0.17 0.21 0.21 0.23 0.24 0.26 0.29 0.31 0.32 0.33 0.33
0.12 0.22 0.45 0.38 0.31 0.20 0.15 0.10 0.11 0.20 0.32 0.17 0.13 0.10 0.09 0.09 0.11 0.08 0.05 0.03 0.03 0.04 0.04 0.05 0.06 0.06 0.07 0.10 0.12 0.13 0.15 0.17 0.19 0.22 0.28 0.28 0.29 0.33 0.34 0.34 0.33 0.30 0.30 0.30
0.19 0.29 0.37 0.32 0.27 0.12 0.09 0.06 0.08 0.23 0.30 0.13 0.10 0.09 0.08 0.07 0.08 0.06 0.05 0.04 0.02 0.04 0.04 0.05 0.07 0.09 0.12 0.16 0.18 0.20 0.23 0.25 0.24 0.25 0.28 0.26 0.25 0.27 0.27 0.27 0.26 0.25 0.24 0.22
0.11 0.15 0.14 0.15 0.20 0.13 0.08 0.08 0.13 0.15 0.08 0.06 0.05 0.05 0.05 0.07 0.06 0.05 0.06 0.06 0.04 0.06 0.07 0.06 0.08 0.11 0.12 0.17 0.21 0.23 0.23 0.22 0.21 0.21 0.22 0.22 0.22 0.21 0.20 0.19 0.20 0.19 0.18 0.16
0.07 0.10 0.12 0.10 0.11 0.09 0.09 0.10 0.10 0.07 0.05 0.05 0.05 0.05 0.04 0.07 0.08 0.08 0.08 0.06 0.05 0.06 0.07 0.07 0.08 0.09 0.10 0.14 0.18 0.22 0.22 0.20 0.19 0.18 0.19 0.18 0.15 0.14 0.14 0.12 0.12 0.11 0.09 0.08
0.08 0.06 0.08 0.10 0.09 0.08 0.08 0.08 0.08 0.08 0.06 0.05 0.04 0.03 0.04 0.06 0.08 0.09 0.08 0.07 0.06 0.06 0.06 0.07 0.07 0.09 0.11 0.12 0.14 0.16 0.16 0.15 0.14 0.14 0.14 0.13 0.11 0.09 0.08 0.07 0.06 0.05 0.05 0.04
0.09 0.09 0.09 0.12 0.09 0.08 0.08 0.08 0.06 0.05 0.04 0.03 0.02 0.03 0.04 0.07 0.09 0.10 0.10 0.10 0.09 0.09 0.07 0.07 0.07 0.07 0.08 0.08 0.09 0.09 0.08 0.08 0.08 0.08 0.08 0.07 0.06 0.05 0.05 0.04 0.03 0.03 0.02 0.02
0.08 0.08 0.10 0.12 0.08 0.08 0.08 0.06 0.05 0.04 0.03 0.03 0.02 0.02 0.03 0.06 0.06 0.06 0.06 0.09 0.11 0.10 0.09 0.08 0.06 0.06 0.06 0.06 0.06 0.06 0.05 0.05 0.05 0.04 0.04 0.04 0.03 0.03 0.03 0.02 0.02 0.03 0.02 0.02

GEFSCGP_prec_meanprecacc_108.txt.gz
Total_Precipitation_Accumulation
1.39 1.57 1.23 0.70 0.51 0.38 0.27 0.22 0.18 0.13 0.10 0.11 0.08 0.06 0.05 0.05 0.05 0.05 0.05 0.06 0.08 0.08 0.09 0.12 0.14 0.19 0.23 0.27 0.35 0.42 0.43 0.48 0.61 0.64 0.63 0.63 0.59 0.54 0.45 0.39 0.37 0.30 0.22 0.16
1.39 1.17 0.69 0.48 0.49 0.48 0.41 0.34 0.23 0.17 0.14 0.12 0.08 0.05 0.04 0.04 0.03 0.03 0.04 0.03 0.05 0.07 0.08 0.09 0.11 0.12 0.16 0.20 0.27 0.33 0.39 0.47 0.47 0.46 0.54 0.68 0.81 0.80 0.73 0.65 0.48 0.35 0.29 0.25
1.03 0.71 0.59 0.68 0.70 0.63 0.53 0.42 0.28 0.21 0.20 0.18 0.13 0.08 0.04 0.03 0.02 0.02 0.03 0.03 0.03 0.04 0.05 0.07 0.08 0.09 0.11 0.15 0.19 0.23 0.31 0.38 0.42 0.50 0.64 0.73 0.78 0.74 0.64 0.52 0.44 0.42 0.43 0.40
0.88 0.62 0.72 0.91 0.85 0.65 0.55 0.34 0.31 0.29 0.34 0.30 0.18 0.13 0.04 0.02 0.02 0.01 0.02 0.03 0.02 0.02 0.03 0.05 0.06 0.07 0.08 0.10 0.13 0.17 0.23 0.28 0.33 0.39 0.44 0.47 0.49 0.47 0.45 0.48 0.51 0.55 0.53 0.49
0.86 0.64 0.79 0.98 0.78 0.62 0.50 0.32 0.38 0.43 0.45 0.40 0.21 0.14 0.04 0.02 0.01 0.01 0.01 0.02 0.02 0.02 0.02 0.03 0.04 0.06 0.06 0.07 0.10 0.14 0.16 0.18 0.22 0.29 0.35 0.44 0.44 0.45 0.49 0.50 0.50 0.49 0.49 0.50
0.64 0.66 0.83 0.86 0.72 0.69 0.60 0.60 0.67 0.72 0.86 0.73 0.21 0.12 0.05 0.01 0.01 0.00 0.00 0.01 0.01 0.01 0.01 0.01 0.02 0.04 0.05 0.05 0.07 0.11 0.13 0.15 0.19 0.23 0.29 0.33 0.35 0.38 0.38 0.39 0.44 0.46 0.48 0.49
0.87 0.88 0.84 0.89 1.04 1.01 1.00 1.27 1.51 1.45 1.25 0.58 0.11 0.09 0.04 0.01 0.00 0.00 0.00 0.01 0.01 0.01 0.00 0.01 0.01 0.02 0.03 0.04 0.05 0.07 0.10 0.11 0.13 0.17 0.22 0.26 0.32 0.36 0.34 0.33 0.36 0.39 0.40 0.40
0.93 1.02 0.80 0.87 1.14 1.16 1.01 1.14 1.14 0.94 0.57 0.22 0.09 0.07 0.03 0.00 0.00 0.01 0.00 0.00 0.01 0.01 0.00 0.00 0.01 0.01 0.02 0.03 0.03 0.04 0.05 0.07 0.10 0.14 0.17 0.20 0.24 0.26 0.28 0.29 0.27 0.28 0.31 0.38
0.70 0.77 0.63 0.68 0.84 0.92 0.94 0.85 0.64 0.73 0.52 0.31 0.14 0.04 0.01 0.01 0.01 0.01 0.01 0.00 0.00 0.01 0.00 0.00 0.00 0.01 0.01 0.01 0.02 0.02 0.03 0.05 0.07 0.10 0.12 0.15 0.17 0.18 0.20 0.22 0.24 0.27 0.29 0.33
0.66 0.76 0.68 0.73 0.91 0.94 0.85 0.70 0.73 0.95 0.74 0.47 0.17 0.04 0.03 0.03 0.03 0.02 0.01 0.00 0.00 0.01 0.01 0.00 0.00 0.00 0.01 0.01 0.01 0.02 0.02 0.03 0.05 0.06 0.08 0.10 0.13 0.15 0.17 0.19 0.19 0.21 0.22 0.24
0.58 0.78 0.87 0.86 0.93 0.75 0.66 0.74 0.77 0.77 0.59 0.56 0.32 0.09 0.04 0.04 0.05 0.04 0.03 0.01 0.01 0.00 0.01 0.01 0.00 0.00 0.01 0.02 0.02 0.02 0.02 0.03 0.03 0.04 0.05 0.07 0.09 0.12 0.14 0.16 0.16 0.17 0.16 0.17
0.44 0.66 0.85 0.68 0.51 0.46 0.51 0.50 0.59 0.79 0.59 0.47 0.39 0.14 0.03 0.04 0.06 0.07 0.07 0.03 0.02 0.01 0.01 0.01 0.01 0.01 0.01 0.03 0.03 0.03 0.03 0.03 0.03 0.03 0.04 0.05 0.07 0.09 0.11 0.13 0.14 0.13 0.13 0.12
0.46 0.62 0.81 0.70 0.58 0.54 0.52 0.38 0.45 0.64 0.78 0.58 0.46 0.19 0.07 0.08 0.10 0.11 0.10 0.06 0.04 0.02 0.02 0.02 0.02 0.03 0.04 0.04 0.05 0.05 0.04 0.04 0.04 0.04 0.04 0.05 0.06 0.08 0.08 0.09 0.09 0.09 0.09 0.08
0.58 0.57 0.64 0.62 0.49 0.49 0.46 0.36 0.44 0.78 0.92 0.50 0.28 0.18 0.12 0.14 0.15 0.14 0.12 0.10 0.07 0.05 0.03 0.03 0.03 0.04 0.06 0.06 0.06 0.05 0.06 0.07 0.07 0.07 0.07 0.06 0.07 0.08 0.08 0.08 0.08 0.08 0.08 0.07
0.52 0.56 0.43 0.37 0.27 0.30 0.35 0.38 0.45 0.60 0.52 0.45 0.23 0.16 0.15 0.16 0.18 0.17 0.13 0.10 0.08 0.05 0.04 0.03 0.04 0.05 0.07 0.09 0.08 0.08 0.09 0.09 0.11 0.12 0.12 0.10 0.09 0.10 0.10 0.10 0.09 0.08 0.08 0.09
0.33 0.44 0.39 0.34 0.22 0.26 0.35 0.36 0.38 0.41 0.40 0.38 0.28 0.21 0.12 0.14 0.17 0.16 0.11 0.09 0.09 0.06 0.05 0.03 0.03 0.04 0.05 0.06 0.08 0.08 0.09 0.10 0.12 0.13 0.13 0.13 0.12 0.12 0.12 0.12 0.11 0.10 0.10 0.11
0.23 0.31 0.44 0.36 0.22 0.28 0.36 0.30 0.34 0.37 0.36 0.35 0.36 0.27 0.14 0.14 0.14 0.11 0.11 0.10 0.08 0.06 0.06 0.06 0.05 0.06 0.06 0.06 0.07 0.07 0.07 0.08 0.10 0.14 0.15 0.14 0.13 0.14 0.15 0.15 0.16 0.18 0.21 0.21
0.17 0.26 0.46 0.38 0.25 0.30 0.22 0.15 0.21 0.29 0.28 0.25 0.26 0.21 0.15 0.13 0.11 0.10 0.10 0.08 0.06 0.06 0.06 0.07 0.07 0.07 0.07 0.08 0.07 0.07 0.07 0.09 0.11 0.13 0.14 0.15 0.16 0.17 0.19 0.21 0.23 0.25 0.27 0.30
0.11 0.27 0.49 0.39 0.27 0.18 0.15 0.16 0.21 0.29 0.31 0.24 0.21 0.16 0.15 0.13 0.10 0.10 0.08 0.08 0.06 0.06 0.06 0.06 0.06 0.06 0.06 0.07 0.08 0.09 0.10 0.13 0.13 0.17 0.21 0.22 0.24 0.26 0.27 0.30 0.32 0.33 0.34 0.34
0.12 0.22 0.46 0.39 0.32 0.22 0.16 0.11 0.12 0.23 0.36 0.21 0.16 0.14 0.13 0.11 0.14 0.13 0.08 0.06 0.06 0.06 0.06 0.07 0.07 0.08 0.09 0.11 0.13 0.13 0.15 0.18 0.19 0.23 0.28 0.28 0.30 0.33 0.34 0.34 0.33 0.31 0.30 0.31
0.20 0.29 0.38 0.32 0.28 0.13 0.09 0.07 0.09 0.27 0.37 0.17 0.14 0.13 0.11 0.10 0.11 0.09 0.07 0.06 0.04 0.05 0.06 0.07 0.08 0.11 0.14 0.19 0.20 0.21 0.23 0.25 0.25 0.26 0.28 0.27 0.26 0.27 0.27 0.27 0.26 0.25 0.24 0.22
0.11 0.16 0.15 0.15 0.21 0.15 0.09 0.09 0.16 0.19 0.11 0.09 0.08 0.08 0.08 0.09 0.09 0.09 0.09 0.08 0.06 0.08 0.08 0.08 0.10 0.12 0.13 0.20 0.24 0.24 0.23 0.23 0.22 0.21 0.22 0.23 0.22 0.22 0.20 0.20 0.20 0.19 0.18 0.16
0.07 0.10 0.12 0.11 0.13 0.12 0.11 0.12 0.12 0.10 0.07 0.06 0.06 0.06 0.06 0.09 0.10 0.10 0.09 0.07 0.07 0.08 0.08 0.08 0.09 0.10 0.12 0.15 0.19 0.23 0.23 0.21 0.20 0.19 0.20 0.18 0.16 0.15 0.14 0.13 0.12 0.11 0.09 0.08
0.08 0.06 0.09 0.11 0.09 0.09 0.09 0.10 0.09 0.09 0.07 0.06 0.05 0.04 0.05 0.07 0.09 0.10 0.09 0.08 0.07 0.07 0.06 0.07 0.08 0.09 0.12 0.13 0.15 0.17 0.17 0.16 0.15 0.15 0.15 0.15 0.13 0.11 0.10 0.08 0.07 0.06 0.05 0.04
0.09 0.09 0.09 0.12 0.10 0.08 0.08 0.08 0.07 0.06 0.05 0.04 0.03 0.04 0.04 0.07 0.09 0.11 0.12 0.11 0.10 0.10 0.08 0.08 0.08 0.08 0.10 0.09 0.10 0.10 0.10 0.09 0.10 0.10 0.10 0.09 0.08 0.08 0.07 0.06 0.05 0.04 0.03 0.03
0.09 0.09 0.11 0.12 0.08 0.09 0.09 0.07 0.05 0.04 0.04 0.03 0.03 0.03 0.05 0.07 0.07 0.06 0.07 0.10 0.12 0.11 0.10 0.09 0.07 0.07 0.08 0.08 0.07 0.07 0.07 0.07 0.07 0.07 0.07 0.07 0.06 0.05 0.05 0.04 0.04 0.04 0.03 0.03

GEFSCGP_prec_meanprecacc_114.txt.gz
Total_Precipitation_Accumulation
1.40 1.60 1.27 0.72 0.53 0.41 0.31 0.24 0.20 0.17 0.17 0.16 0.13 0.12 0.11 0.10 0.10 0.10 0.10 0.12 0.15 0.16 0.18 0.21 0.28 0.39 0.49 0.62 0.75 0.81 0.80 0.89 1.06 1.00 0.89 0.81 0.73 0.67 0.57 0.48 0.44 0.36 0.27 0.20
1.41 1.19 0.71 0.49 0.51 0.51 0.44 0.36 0.25 0.20 0.18 0.17 0.13 0.10 0.09 0.08 0.08 0.08 0.08 0.08 0.09 0.12 0.13 0.17 0.21 0.26 0.33 0.46 0.63 0.74 0.82 0.92 0.98 0.92 0.90 0.96 1.06 1.03 0.94 0.84 0.63 0.48 0.39 0.31
1.04 0.72 0.60 0.70 0.71 0.65 0.56 0.44 0.30 0.24 0.24 0.22 0.17 0.13 0.07 0.05 0.05 0.05 0.07 0.06 0.05 0.06 0.09 0.11 0.14 0.18 0.23 0.30 0.42 0.56 0.70 0.81 0.91 1.01 1.18 1.23 1.22 1.08 0.90 0.76 0.69 0.64 0.62 0.54
0.89 0.63 0.74 0.94 0.87 0.67 0.57 0.35 0.32 0.31 0.37 0.34 0.22 0.18 0.07 0.04 0.03 0.03 0.04 0.06 0.04 0.03 0.05 0.08 0.10 0.13 0.17 0.21 0.29 0.39 0.54 0.66 0.76 0.86 0.94 0.97 0.93 0.82 0.73 0.75 0.79 0.83 0.79 0.72
0.87 0.66 0.81 1.02 0.82 0.64 0.51 0.33 0.39 0.44 0.47 0.43 0.24 0.17 0.06 0.04 0.03 0.02 0.02 0.03 0.03 0.02 0.03 0.05 0.07 0.10 0.11 0.16 0.23 0.32 0.42 0.50 0.59 0.68 0.73 0.84 0.86 0.83 0.85 0.83 0.80 0.76 0.74 0.72
0.65 0.67 0.86 0.90 0.76 0.72 0.61 0.61 0.68 0.74 0.88 0.75 0.23 0.14 0.06 0.02 0.02 0.01 0.01 0.02 0.03 0.02 0.02 0.03 0.04 0.07 0.09 0.11 0.16 0.24 0.35 0.45 0.51 0.58 0.63 0.69 0.72 0.75 0.74 0.73 0.74 0.73 0.73 0.70
0.89 0.90 0.86 0.91 1.08 1.04 1.02 1.29 1.53 1.48 1.28 0.60 0.11 0.10 0.05 0.01 0.01 0.01 0.01 0.01 0.02 0.01 0.01 0.02 0.02 0.03 0.05 0.08 0.10 0.16 0.20 0.28 0.36 0.46 0.55 0.58 0.66 0.70 0.64 0.62 0.64 0.69 0.68 0.62
0.96 1.06 0.82 0.89 1.17 1.19 1.03 1.15 1.15 0.95 0.59 0.24 0.10 0.08 0.03 0.01 0.01 0.01 0.01 0.01 0.02 0.02 0.01 0.01 0.01 0.02 0.04 0.05 0.07 0.09 0.12 0.15 0.21 0.29 0.35 0.40 0.48 0.52 0.53 0.52 0.48 0.49 0.52 0.57
0.71 0.80 0.65 0.69 0.85 0.93 0.96 0.86 0.64 0.74 0.53 0.32 0.15 0.05 0.02 0.01 0.01 0.02 0.01 0.00 0.01 0.02 0.01 0.01 0.01 0.01 0.02 0.03 0.04 0.05 0.07 0.10 0.14 0.19 0.23 0.27 0.30 0.32 0.34 0.36 0.37 0.40 0.43 0.47
0.67 0.79 0.71 0.74 0.93 0.96 0.87 0.71 0.74 0.96 0.75 0.48 0.18 0.05 0.03 0.03 0.04 0.04 0.03 0.01 0.01 0.01 0.01 0.01 0.01 0.01 0.02 0.02 0.03 0.04 0.05 0.07 0.09 0.12 0.14 0.17 0.22 0.25 0.28 0.30 0.29 0.32 0.34 0.36
0.59 0.80 0.90 0.89 0.96 0.77 0.68 0.76 0.79 0.78 0.60 0.57 0.33 0.10 0.04 0.05 0.07 0.07 0.06 0.03 0.01 0.01 0.01 0.01 0.01 0.01 0.01 0.02 0.03 0.04 0.04 0.05 0.06 0.07 0.09 0.10 0.12 0.17 0.21 0.24 0.24 0.25 0.25 0.25
0.45 0.67 0.87 0.71 0.53 0.47 0.52 0.51 0.61 0.81 0.61 0.48 0.40 0.15 0.04 0.05 0.08 0.09 0.10 0.06 0.02 0.01 0.01 0.01 0.01 0.01 0.02 0.03 0.04 0.04 0.04 0.05 0.05 0.06 0.06 0.08 0.10 0.12 0.14 0.17 0.19 0.18 0.19 0.19
0.48 0.64 0.82 0.71 0.59 0.56 0.53 0.40 0.47 0.67 0.81 0.60 0.48 0.21 0.08 0.09 0.12 0.12 0.12 0.08 0.04 0.03 0.03 0.02 0.02 0.03 0.04 0.05 0.05 0.05 0.05 0.05 0.05 0.05 0.06 0.07 0.08 0.09 0.10 0.11 0.12 0.11 0.12 0.12
0.59 0.58 0.65 0.64 0.50 0.50 0.47 0.38 0.47 0.82 0.96 0.52 0.30 0.20 0.13 0.15 0.16 0.15 0.13 0.10 0.07 0.05 0.04 0.03 0.03 0.05 0.06 0.07 0.06 0.06 0.07 0.08 0.08 0.08 0.08 0.08 0.08 0.09 0.10 0.09 0.09 0.09 0.09 0.10
0.52 0.57 0.44 0.38 0.28 0.31 0.36 0.41 0.49 0.65 0.55 0.47 0.25 0.18 0.16 0.17 0.19 0.18 0.13 0.11 0.08 0.06 0.04 0.04 0.04 0.05 0.08 0.09 0.08 0.08 0.09 0.10 0.11 0.13 0.13 0.11 0.10 0.10 0.11 0.10 0.10 0.09 0.09 0.10
0.33 0.44 0.39 0.34 0.23 0.26 0.36 0.37 0.39 0.43 0.43 0.42 0.30 0.23 0.15 0.16 0.18 0.16 0.12 0.10 0.09 0.07 0.05 0.04 0.04 0.05 0.05 0.07 0.08 0.09 0.09 0.11 0.13 0.14 0.14 0.14 0.13 0.12 0.13 0.13 0.12 0.11 0.11 0.13
0.23 0.32 0.44 0.37 0.22 0.28 0.37 0.32 0.36 0.40 0.39 0.39 0.41 0.32 0.18 0.15 0.14 0.12 0.11 0.10 0.08 0.07 0.06 0.06 0.06 0.06 0.07 0.07 0.07 0.08 0.07 0.08 0.10 0.14 0.15 0.15 0.14 0.15 0.17 0.16 0.17 0.19 0.22 0.23
0.17 0.26 0.46 0.38 0.26 0.31 0.24 0.17 0.23 0.31 0.31 0.28 0.30 0.25 0.18 0.15 0.12 0.10 0.10 0.09 0.07 0.07 0.07 0.08 0.08 0.08 0.08 0.08 0.08 0.07 0.07 0.09 0.11 0.13 0.15 0.16 0.17 0.19 0.20 0.23 0.25 0.27 0.29 0.31
0.11 0.28 0.50 0.39 0.27 0.19 0.16 0.16 0.22 0.31 0.34 0.26 0.23 0.19 0.17 0.15 0.11 0.11 0.09 0.08 0.07 0.07 0.07 0.07 0.07 0.07 0.07 0.08 0.08 0.09 0.11 0.13 0.14 0.18 0.22 0.23 0.25 0.27 0.29 0.31 0.33 0.35 0.35 0.35
0.13 0.23 0.46 0.39 0.32 0.22 0.17 0.11 0.13 0.24 0.39 0.22 0.18 0.16 0.16 0.13 0.16 0.15 0.09 0.07 0.07 0.07 0.07 0.08 0.09 0.09 0.10 0.12 0.13 0.14 0.16 0.19 0.20 0.23 0.29 0.29 0.31 0.34 0.36 0.35 0.35 0.32 0.32 0.32
0.21 0.31 0.38 0.33 0.28 0.13 0.09 0.07 0.10 0.29 0.39 0.19 0.15 0.14 0.13 0.12 0.15 0.12 0.10 0.08 0.06 0.07 0.08 0.09 0.10 0.12 0.16 0.20 0.22 0.22 0.24 0.26 0.26 0.27 0.29 0.28 0.27 0.28 0.28 0.28 0.28 0.27 0.26 0.24
0.12 0.16 0.15 0.15 0.21 0.16 0.09 0.09 0.17 0.21 0.13 0.10 0.09 0.09 0.09 0.11 0.12 0.11 0.11 0.10 0.08 0.10 0.10 0.10 0.11 0.13 0.15 0.22 0.27 0.27 0.25 0.25 0.23 0.23 0.24 0.24 0.24 0.23 0.21 0.21 0.22 0.21 0.20 0.18
0.08 0.11 0.12 0.11 0.13 0.12 0.11 0.12 0.13 0.10 0.07 0.06 0.07 0.07 0.07 0.11 0.12 0.12 0.11 0.09 0.08 0.10 0.10 0.10 0.10 0.11 0.13 0.17 0.22 0.26 0.25 0.24 0.22 0.22 0.22 0.21 0.19 0.18 0.17 0.15 0.14 0.14 0.12 0.10
0.09 0.07 0.09 0.11 0.10 0.09 0.10 0.10 0.10 0.09 0.08 0.06 0.05 0.05 0.05 0.08 0.10 0.11 0.11 0.10 0.09 0.09 0.09 0.09 0.09 0.11 0.13 0.14 0.16 0.19 0.19 0.18 0.18 0.18 0.18 0.18 0.16 0.14 0.12 0.11 0.10 0.09 0.08 0.07
0.09 0.09 0.09 0.13 0.10 0.08 0.08 0.08 0.07 0.06 0.05 0.04 0.03 0.04 0.05 0.08 0.10 0.12 0.13 0.13 0.12 0.12 0.11 0.10 0.10 0.10 0.12 0.11 0.11 0.12 0.12 0.11 0.12 0.13 0.13 0.13 0.12 0.11 0.10 0.09 0.08 0.07 0.06 0.06
0.09 0.09 0.11 0.13 0.08 0.09 0.09 0.07 0.05 0.04 0.04 0.03 0.03 0.03 0.05 0.07 0.07 0.07 0.08 0.11 0.13 0.13 0.12 0.12 0.10 0.09 0.10 0.10 0.09 0.10 0.10 0.09 0.09 0.09 0.09 0.09 0.09 0.09 0.08 0.08 0.07 0.07 0.06 0.06

GEFSCGP_prec_meanprecacc_120.txt.gz
Total_Precipitation_Accumulation
1.41 1.61 1.29 0.74 0.55 0.44 0.35 0.28 0.23 0.22 0.20 0.21 0.19 0.20 0.19 0.17 0.16 0.16 0.18 0.21 0.24 0.25 0.31 0.39 0.49 0.72 1.01 1.21 1.32 1.28 1.16 1.18 1.34 1.31 1.13 0.99 0.86 0.78 0.66 0.56 0.49 0.40 0.30 0.23
1.41 1.19 0.72 0.50 0.53 0.54 0.48 0.40 0.29 0.25 0.22 0.23 0.19 0.19 0.17 0.16 0.14 0.13 0.15 0.15 0.17 0.20 0.25 0.34 0.39 0.52 0.73 0.99 1.17 1.24 1.24 1.27 1.31 1.27 1.23 1.21 1.24 1.18 1.06 0.93 0.71 0.54 0.44 0.35
1.04 0.72 0.60 0.72 0.75 0.69 0.60 0.48 0.34 0.28 0.30 0.28 0.23 0.22 0.14 0.11 0.09 0.09 0.12 0.13 0.13 0.15 0.20 0.25 0.29 0.37 0.50 0.67 0.89 1.00 1.11 1.16 1.22 1.38 1.62 1.64 1.54 1.32 1.08 0.87 0.78 0.74 0.71 0.63
0.89 0.63 0.76 0.97 0.91 0.70 0.60 0.38 0.35 0.34 0.43 0.41 0.28 0.27 0.12 0.08 0.06 0.05 0.08 0.11 0.10 0.11 0.15 0.19 0.21 0.25 0.35 0.44 0.62 0.79 0.97 1.08 1.08 1.17 1.33 1.41 1.37 1.12 0.94 0.92 0.95 0.98 0.94 0.87
0.88 0.66 0.83 1.05 0.86 0.67 0.53 0.35 0.42 0.48 0.52 0.48 0.29 0.23 0.13 0.07 0.06 0.04 0.05 0.07 0.07 0.08 0.11 0.13 0.13 0.16 0.20 0.30 0.47 0.63 0.77 0.95 0.98 1.00 1.08 1.27 1.36 1.31 1.23 1.13 1.05 0.97 0.94 0.91
0.66 0.68 0.87 0.93 0.78 0.73 0.62 0.63 0.71 0.77 0.91 0.78 0.26 0.18 0.11 0.05 0.05 0.04 0.03 0.04 0.04 0.06 0.08 0.08 0.08 0.11 0.14 0.19 0.28 0.42 0.58 0.78 0.92 0.98 1.04 1.11 1.20 1.27 1.23 1.12 1.06 1.02 0.98 0.92
0.90 0.91 0.88 0.93 1.10 1.05 1.03 1.31 1.56 1.51 1.31 0.64 0.14 0.12 0.09 0.03 0.03 0.04 0.03 0.03 0.04 0.04 0.05 0.06 0.06 0.07 0.10 0.13 0.17 0.24 0.32 0.45 0.65 0.83 0.95 1.01 1.08 1.15 1.14 1.10 1.07 1.07 1.00 0.90
0.97 1.07 0.83 0.90 1.18 1.20 1.03 1.17 1.17 0.97 0.61 0.27 0.12 0.11 0.07 0.02 0.02 0.03 0.02 0.03 0.04 0.03 0.03 0.04 0.05 0.07 0.08 0.09 0.10 0.14 0.19 0.25 0.36 0.53 0.63 0.72 0.85 0.95 0.95 0.95 0.91 0.90 0.88 0.86
0.72 0.81 0.66 0.69 0.85 0.94 0.96 0.86 0.65 0.74 0.53 0.34 0.17 0.07 0.04 0.02 0.03 0.04 0.04 0.03 0.03 0.04 0.03 0.03 0.04 0.05 0.06 0.06 0.06 0.08 0.10 0.15 0.22 0.31 0.41 0.50 0.58 0.65 0.69 0.69 0.68 0.71 0.72 0.71
0.68 0.80 0.71 0.75 0.94 0.96 0.87 0.72 0.75 0.96 0.76 0.49 0.20 0.07 0.06 0.05 0.06 0.07 0.06 0.04 0.03 0.03 0.03 0.03 0.03 0.03 0.04 0.04 0.04 0.05 0.06 0.09 0.14 0.19 0.26 0.33 0.42 0.46 0.52 0.57 0.55 0.53 0.55 0.56
0.59 0.81 0.91 0.90 0.98 0.78 0.68 0.77 0.80 0.79 0.61 0.58 0.35 0.14 0.07 0.07 0.10 0.11 0.09 0.05 0.03 0.03 0.03 0.03 0.03 0.02 0.02 0.03 0.05 0.05 0.05 0.06 0.08 0.12 0.17 0.19 0.24 0.29 0.35 0.40 0.41 0.40 0.39 0.39
0.46 0.68 0.88 0.72 0.54 0.48 0.52 0.52 0.62 0.82 0.62 0.49 0.42 0.19 0.06 0.07 0.10 0.13 0.13 0.09 0.05 0.03 0.03 0.03 0.03 0.02 0.03 0.04 0.05 0.05 0.05 0.06 0.07 0.08 0.10 0.13 0.17 0.20 0.22 0.26 0.28 0.27 0.27 0.28
0.49 0.64 0.83 0.72 0.60 0.57 0.54 0.40 0.48 0.68 0.82 0.61 0.51 0.24 0.10 0.11 0.14 0.15 0.15 0.11 0.07 0.06 0.04 0.03 0.03 0.04 0.06 0.06 0.06 0.06 0.06 0.05 0.06 0.07 0.08 0.10 0.13 0.16 0.16 0.17 0.18 0.17 0.16 0.16
0.60 0.58 0.65 0.64 0.51 0.52 0.48 0.40 0.49 0.84 0.98 0.55 0.34 0.23 0.16 0.18 0.18 0.17 0.16 0.13 0.09 0.07 0.05 0.04 0.04 0.06 0.08 0.09 0.07 0.07 0.08 0.08 0.09 0.09 0.10 0.10 0.12 0.15 0.15 0.14 0.13 0.12 0.12 0.12
0.53 0.57 0.45 0.39 0.28 0.32 0.37 0.42 0.50 0.67 0.57 0.51 0.28 0.21 0.20 0.21 0.21 0.20 0.15 0.13 0.09 0.07 0.06 0.05 0.05 0.06 0.09 0.11 0.09 0.08 0.10 0.11 0.12 0.14 0.14 0.13 0.13 0.15 0.14 0.13 0.12 0.12 0.11 0.12
0.33 0.45 0.40 0.35 0.24 0.27 0.37 0.38 0.40 0.45 0.44 0.43 0.32 0.26 0.19 0.20 0.21 0.18 0.13 0.11 0.10 0.07 0.05 0.05 0.04 0.05 0.06 0.07 0.09 0.09 0.10 0.11 0.13 0.15 0.15 0.16 0.15 0.16 0.16 0.15 0.15 0.14 0.13 0.14
0.23 0.32 0.44 0.37 0.22 0.29 0.39 0.33 0.37 0.41 0.40 0.41 0.44 0.35 0.22 0.18 0.17 0.14 0.12 0.10 0.09 0.07 0.07 0.07 0.06 0.06 0.07 0.07 0.08 0.08 0.08 0.08 0.11 0.15 0.17 0.18 0.17 0.19 0.20 0.18 0.19 0.22 0.25 0.27
0.17 0.27 0.46 0.38 0.26 0.32 0.26 0.18 0.23 0.32 0.31 0.29 0.32 0.27 0.21 0.18 0.15 0.13 0.11 0.09 0.07 0.07 0.08 0.08 0.08 0.08 0.08 0.09 0.08 0.07 0.08 0.10 0.11 0.14 0.17 0.17 0.18 0.21 0.22 0.25 0.27 0.29 0.32 0.34
0.11 0.28 0.50 0.40 0.27 0.19 0.17 0.17 0.23 0.32 0.35 0.26 0.24 0.19 0.18 0.16 0.13 0.12 0.10 0.09 0.08 0.07 0.07 0.07 0.07 0.08 0.08 0.08 0.09 0.10 0.12 0.14 0.15 0.19 0.22 0.23 0.26 0.29 0.30 0.33 0.35 0.36 0.38 0.37
0.14 0.23 0.47 0.39 0.33 0.22 0.17 0.11 0.13 0.25 0.40 0.22 0.18 0.17 0.16 0.14 0.18 0.16 0.10 0.09 0.09 0.08 0.08 0.09 0.09 0.10 0.11 0.12 0.14 0.14 0.17 0.20 0.21 0.24 0.29 0.29 0.32 0.36 0.38 0.38 0.37 0.35 0.34 0.35
0.22 0.31 0.39 0.33 0.29 0.13 0.09 0.07 0.10 0.30 0.40 0.19 0.15 0.15 0.14 0.13 0.17 0.14 0.11 0.09 0.08 0.09 0.09 0.10 0.10 0.13 0.17 0.21 0.23 0.23 0.25 0.27 0.27 0.28 0.30 0.29 0.28 0.31 0.31 0.31 0.31 0.29 0.28 0.27
0.12 0.16 0.15 0.15 0.21 0.16 0.09 0.09 0.17 0.21 0.13 0.10 0.09 0.10 0.10 0.12 0.13 0.13 0.12 0.11 0.10 0.13 0.12 0.12 0.13 0.15 0.16 0.23 0.28 0.28 0.26 0.26 0.25 0.24 0.26 0.27 0.27 0.27 0.26 0.25 0.25 0.24 0.23 0.22
0.08 0.11 0.13 0.11 0.13 0.13 0.11 0.13 0.13 0.10 0.08 0.07 0.07 0.07 0.07 0.11 0.12 0.13 0.13 0.11 0.09 0.12 0.13 0.12 0.12 0.13 0.15 0.19 0.24 0.28 0.27 0.26 0.24 0.23 0.24 0.24 0.22 0.23 0.22 0.19 0.18 0.16 0.14 0.13
0.09 0.07 0.09 0.11 0.10 0.09 0.10 0.10 0.10 0.09 0.08 0.06 0.05 0.05 0.05 0.08 0.11 0.12 0.12 0.11 0.10 0.10 0.12 0.12 0.11 0.13 0.15 0.16 0.18 0.21 0.22 0.21 0.21 0.20 0.20 0.21 0.20 0.18 0.16 0.14 0.13 0.12 0.11 0.10
0.09 0.09 0.09 0.13 0.10 0.08 0.09 0.08 0.07 0.06 0.05 0.04 0.04 0.04 0.05 0.08 0.10 0.12 0.13 0.14 0.13 0.13 0.13 0.14 0.13 0.13 0.14 0.13 0.14 0.14 0.14 0.15 0.16 0.16 0.15 0.15 0.15 0.15 0.14 0.12 0.11 0.11 0.10 0.11
0.09 0.09 0.11 0.13 0.08 0.09 0.09 0.07 0.05 0.05 0.04 0.04 0.03 0.03 0.05 0.07 0.07 0.07 0.08 0.11 0.14 0.14 0.13 0.14 0.13 0.13 0.13 0.13 0.12 0.12 0.12 0.13 0.13 0.13 0.13 0.12 0.12 0.11 0.11 0.10 0.09 0.10 0.10 0.12

GEFSCGP_prec_meanprecacc_126.txt.gz
Total_Precipitation_Accumulation
1.42 1.64 1.32 0.76 0.59 0.49 0.38 0.31 0.26 0.27 0.26 0.28 0.25 0.27 0.27 0.23 0.22 0.24 0.29 0.36 0.40 0.40 0.45 0.58 0.70 0.98 1.34 1.62 1.72 1.74 1.64 1.66 1.85 1.74 1.53 1.30 1.10 1.01 0.85 0.66 0.55 0.45 0.35 0.27
1.43 1.21 0.73 0.52 0.55 0.58 0.52 0.45 0.34 0.31 0.27 0.29 0.26 0.26 0.23 0.22 0.21 0.21 0.26 0.31 0.32 0.31 0.37 0.51 0.59 0.76 1.02 1.41 1.63 1.69 1.73 1.76 1.83 1.75 1.62 1.53 1.49 1.39 1.27 1.11 0.81 0.60 0.48 0.38
1.06 0.74 0.61 0.74 0.78 0.73 0.63 0.52 0.39 0.34 0.35 0.32 0.30 0.30 0.20 0.18 0.17 0.18 0.24 0.28 0.27 0.25 0.30 0.40 0.48 0.59 0.75 0.97 1.32 1.48 1.54 1.60 1.64 1.83 2.07 1.99 1.83 1.56 1.29 1.05 0.94 0.84 0.77 0.66
0.89 0.64 0.77 0.99 0.94 0.73 0.63 0.41 0.39 0.38 0.48 0.48 0.36 0.40 0.22 0.19 0.18 0.17 0.23 0.26 0.24 0.23 0.25 0.31 0.36 0.42 0.56 0.66 0.92 1.24 1.42 1.49 1.48 1.58 1.79 1.83 1.67 1.35 1.14 1.08 1.09 1.11 1.03 0.92
0.88 0.67 0.84 1.07 0.88 0.70 0.56 0.38 0.46 0.52 0.57 0.55 0.37 0.35 0.24 0.18 0.20 0.18 0.19 0.20 0.18 0.20 0.23 0.24 0.23 0.27 0.35 0.47 0.69 1.01 1.23 1.39 1.39 1.37 1.46 1.64 1.68 1.60 1.47 1.34 1.21 1.13 1.09 1.01
0.66 0.68 0.87 0.94 0.80 0.74 0.64 0.66 0.76 0.82 0.97 0.89 0.35 0.28 0.21 0.15 0.17 0.15 0.13 0.14 0.14 0.15 0.17 0.18 0.18 0.20 0.24 0.32 0.46 0.74 0.99 1.19 1.32 1.34 1.37 1.43 1.47 1.57 1.49 1.34 1.27 1.19 1.13 1.05
0.91 0.92 0.88 0.94 1.12 1.07 1.05 1.36 1.63 1.59 1.39 0.73 0.18 0.17 0.18 0.11 0.12 0.12 0.11 0.12 0.12 0.11 0.12 0.12 0.13 0.15 0.18 0.23 0.30 0.48 0.61 0.78 1.00 1.18 1.27 1.32 1.35 1.42 1.42 1.34 1.28 1.26 1.15 1.02
0.99 1.08 0.84 0.91 1.19 1.21 1.05 1.21 1.23 1.04 0.67 0.30 0.15 0.19 0.18 0.10 0.10 0.11 0.10 0.11 0.13 0.13 0.11 0.10 0.11 0.14 0.16 0.18 0.21 0.29 0.37 0.47 0.62 0.83 0.93 1.00 1.11 1.17 1.19 1.21 1.16 1.13 1.07 1.02
0.73 0.82 0.66 0.69 0.85 0.95 0.98 0.89 0.67 0.77 0.56 0.37 0.22 0.15 0.13 0.11 0.11 0.12 0.11 0.11 0.13 0.13 0.10 0.10 0.13 0.15 0.14 0.15 0.14 0.18 0.22 0.29 0.38 0.52 0.66 0.73 0.79 0.83 0.88 0.91 0.89 0.93 0.95 0.93
0.69 0.81 0.72 0.75 0.95 0.97 0.88 0.74 0.77 0.99 0.78 0.53 0.24 0.14 0.18 0.16 0.15 0.14 0.11 0.10 0.12 0.13 0.12 0.13 0.16 0.15 0.12 0.11 0.11 0.12 0.13 0.16 0.21 0.29 0.41 0.51 0.58 0.62 0.69 0.75 0.72 0.69 0.73 0.76
0.60 0.81 0.91 0.90 0.98 0.78 0.69 0.77 0.81 0.80 0.62 0.61 0.39 0.23 0.19 0.17 0.18 0.16 0.15 0.12 0.11 0.11 0.12 0.14 0.15 0.13 0.11 0.11 0.12 0.10 0.09 0.10 0.12 0.17 0.25 0.32 0.38 0.44 0.53 0.56 0.56 0.57 0.56 0.55
0.46 0.68 0.88 0.72 0.54 0.48 0.53 0.52 0.63 0.83 0.63 0.51 0.45 0.26 0.14 0.14 0.16 0.17 0.18 0.14 0.11 0.10 0.11 0.13 0.13 0.10 0.10 0.11 0.10 0.09 0.08 0.09 0.10 0.11 0.15 0.21 0.28 0.33 0.37 0.42 0.43 0.41 0.44 0.43
0.49 0.64 0.84 0.73 0.61 0.57 0.55 0.41 0.48 0.68 0.83 0.62 0.54 0.30 0.14 0.15 0.17 0.19 0.19 0.16 0.13 0.11 0.10 0.11 0.10 0.10 0.12 0.12 0.11 0.10 0.10 0.09 0.09 0.10 0.11 0.13 0.19 0.24 0.27 0.29 0.31 0.30 0.30 0.32
0.61 0.59 0.66 0.66 0.53 0.52 0.49 0.40 0.49 0.84 0.99 0.57 0.36 0.26 0.19 0.20 0.20 0.20 0.20 0.17 0.14 0.11 0.08 0.07 0.08 0.10 0.13 0.14 0.12 0.11 0.11 0.11 0.12 0.12 0.12 0.12 0.15 0.21 0.23 0.21 0.19 0.20 0.21 0.23
0.53 0.58 0.45 0.39 0.28 0.32 0.37 0.42 0.51 0.67 0.58 0.52 0.29 0.22 0.22 0.23 0.23 0.22 0.18 0.15 0.12 0.09 0.08 0.07 0.07 0.09 0.12 0.14 0.13 0.12 0.13 0.14 0.16 0.18 0.17 0.15 0.15 0.20 0.21 0.20 0.18 0.17 0.17 0.19
0.34 0.45 0.40 0.35 0.24 0.27 0.37 0.38 0.40 0.45 0.45 0.44 0.32 0.27 0.20 0.21 0.22 0.19 0.14 0.12 0.11 0.08 0.06 0.06 0.06 0.06 0.08 0.10 0.12 0.13 0.14 0.16 0.20 0.20 0.19 0.18 0.18 0.20 0.21 0.21 0.21 0.20 0.19 0.20
0.24 0.32 0.45 0.37 0.22 0.29 0.39 0.33 0.37 0.41 0.41 0.41 0.45 0.36 0.22 0.19 0.18 0.14 0.13 0.11 0.10 0.08 0.08 0.07 0.06 0.07 0.08 0.08 0.09 0.09 0.10 0.12 0.16 0.21 0.22 0.22 0.22 0.23 0.25 0.24 0.26 0.30 0.33 0.34
0.18 0.27 0.47 0.38 0.26 0.32 0.27 0.18 0.23 0.32 0.32 0.29 0.32 0.27 0.21 0.18 0.15 0.13 0.12 0.10 0.08 0.08 0.09 0.09 0.08 0.08 0.08 0.09 0.08 0.08 0.09 0.12 0.14 0.17 0.21 0.21 0.22 0.25 0.26 0.30 0.34 0.37 0.39 0.41
0.11 0.28 0.50 0.40 0.27 0.19 0.17 0.17 0.23 0.32 0.35 0.26 0.24 0.19 0.19 0.16 0.13 0.13 0.10 0.10 0.09 0.08 0.08 0.08 0.08 0.08 0.08 0.08 0.09 0.10 0.12 0.15 0.17 0.22 0.26 0.26 0.29 0.31 0.33 0.36 0.38 0.41 0.44 0.43
0.14 0.24 0.47 0.40 0.33 0.22 0.17 0.11 0.13 0.25 0.41 0.23 0.18 0.17 0.17 0.14 0.18 0.16 0.10 0.09 0.10 0.09 0.08 0.09 0.10 0.10 0.11 0.13 0.15 0.15 0.17 0.21 0.23 0.27 0.32 0.32 0.34 0.39 0.40 0.40 0.40 0.39 0.39 0.41
0.22 0.31 0.39 0.33 0.29 0.13 0.10 0.07 0.10 0.30 0.41 0.19 0.15 0.15 0.14 0.13 0.17 0.14 0.11 0.09 0.08 0.09 0.09 0.10 0.11 0.13 0.17 0.22 0.24 0.24 0.26 0.29 0.29 0.30 0.33 0.32 0.32 0.34 0.33 0.34 0.33 0.33 0.32 0.31
0.12 0.16 0.15 0.16 0.21 0.16 0.09 0.09 0.17 0.22 0.13 0.10 0.09 0.10 0.10 0.12 0.13 0.13 0.12 0.11 0.10 0.13 0.13 0.12 0.13 0.15 0.17 0.24 0.30 0.30 0.29 0.29 0.28 0.27 0.29 0.30 0.31 0.31 0.29 0.28 0.28 0.27 0.25 0.24
0.08 0.11 0.13 0.11 0.13 0.13 0.11 0.13 0.13 0.10 0.08 0.07 0.07 0.07 0.07 0.11 0.13 0.13 0.13 0.11 0.09 0.12 0.13 0.12 0.13 0.13 0.15 0.19 0.25 0.31 0.31 0.29 0.28 0.27 0.28 0.28 0.27 0.27 0.27 0.23 0.22 0.20 0.16 0.14
0.09 0.07 0.09 0.11 0.10 0.09 0.10 0.10 0.10 0.09 0.08 0.06 0.05 0.05 0.05 0.08 0.11 0.12 0.12 0.11 0.10 0.10 0.12 0.12 0.12 0.13 0.16 0.18 0.19 0.23 0.24 0.24 0.25 0.25 0.25 0.25 0.25 0.23 0.21 0.18 0.17 0.16 0.14 0.13
0.09 0.09 0.09 0.13 0.10 0.08 0.09 0.08 0.07 0.06 0.05 0.04 0.04 0.04 0.05 0.08 0.10 0.12 0.13 0.14 0.13 0.13 0.13 0.14 0.14 0.14 0.15 0.15 0.16 0.16 0.16 0.17 0.20 0.22 0.21 0.20 0.20 0.20 0.19 0.16 0.15 0.14 0.13 0.15
0.09 0.09 0.11 0.13 0.09 0.09 0.09 0.07 0.06 0.05 0.04 0.04 0.03 0.03 0.05 0.07 0.07 0.07 0.08 0.11 0.14 0.14 0.14 0.14 0.14 0.14 0.14 0.14 0.15 0.15 0.14 0.16 0.17 0.19 0.19 0.18 0.18 0.17 0.16 0.15 0.13 0.13 0.13 0.14